[[{"header":{"parameterUnit":"m.s-1","parameterCategory":1,"la1":30.6,"la2":28.766,"lo1":-90.7593,"lo2":-88.6598,"dy":0.0162,"dx":0.0183,"nx":116,"ny":114,"refTime":"2024-02-12T06:00:00:Z","depth":0,"parameterNumber":2,"parameterNumberName":"U-component_of_WINDS"},"data":[0.0,0.0,0.0,0.0,0.0,0.0,0.0,0.0,0.0,0.0,0.0,0.0,0.0,0.0,0.0,0.0,0.0,0.0,0.0,0.0,0.0,0.0,0.0,0.0,0.0,0.0,0.0,0.0,0.0,0.0,0.0,0.0,0.0,0.0,0.0,0.0,0.0,0.0,0.0,0.0,0.0,0.0,0.0,0.0,0.0,0.0,0.0,0.0,0.0,0.0,0.0,0.0,0.0,0.0,0.0,0.0,0.0,0.0,0.0,0.0,0.0,0.0,0.0,0.0,0.0,0.0,0.0,0.0,0.0,0.0,0.0,0.0,0.0,0.0,0.0,0.0,0.0,0.0,0.0,0.0,0.0,0.0,0.0,0.0,0.0,0.0,0.0,0.0,0.0,0.0,0.0,0.0,0.0,0.0,0.0,0.0,0.0,0.0,0.0,0.0,0.0,0.0,0.0,0.0,0.0,0.0,0.0,0.0,0.0,0.0,0.0,0.0,0.0,0.0,0.0,0.0,0.0,0.0,0.0,0.0,0.0,0.0,0.0,0.0,0.0,0.0,0.0,0.0,0.0,0.0,0.0,0.0,0.0,0.0,0.0,0.0,0.0,0.0,0.0,0.0,0.0,0.0,0.0,0.0,0.0,0.0,0.0,0.0,0.0,0.0,0.0,0.0,0.0,0.0,0.0,0.0,0.0,0.0,0.0,0.0,0.0,0.0,0.0,0.0,0.0,0.0,0.0,0.0,0.0,0.0,0.0,0.0,0.0,0.0,0.0,0.0,0.0,0.0,0.0,0.0,0.0,0.0,0.0,0.0,0.0,0.0,0.0,0.0,0.0,0.0,0.0,0.0,0.0,0.0,0.0,0.0,0.0,0.0,0.0,0.0,0.0,0.0,0.0,0.0,0.0,0.0,0.0,0.0,0.0,0.0,0.0,0.0,0.0,0.0,0.0,0.0,0.0,0.0,0.0,0.0,0.0,0.0,0.0,0.0,0.0,0.0,0.0,0.0,0.0,0.0,0.0,0.0,0.0,0.0,0.0,0.0,0.0,0.0,0.0,0.0,0.0,0.0,0.0,0.0,0.0,0.0,0.0,0.0,0.0,0.0,0.0,0.0,0.0,0.0,0.0,0.0,0.0,0.0,0.0,0.0,0.0,0.0,0.0,0.0,0.0,0.0,0.0,0.0,0.0,0.0,0.0,0.0,0.0,0.0,0.0,0.0,0.0,0.0,0.0,0.0,0.0,0.0,0.0,0.0,0.0,0.0,0.0,0.0,0.0,0.0,0.0,0.0,0.0,0.0,0.0,0.0,0.0,0.0,0.0,0.0,0.0,0.0,0.0,0.0,0.0,0.0,0.0,0.0,0.0,0.0,0.0,0.0,0.0,0.0,0.0,0.0,0.0,0.0,0.0,0.0,0.0,0.0,0.0,0.0,0.0,0.0,0.0,0.0,0.0,0.0,0.0,0.0,0.0,0.0,0.0,0.0,0.0,0.0,0.0,0.0,0.0,0.0,0.0,0.0,0.0,0.0,0.0,0.0,0.0,0.0,0.0,0.0,0.0,0.0,0.0,0.0,0.0,0.0,0.0,0.0,0.0,0.0,0.0,0.0,0.0,0.0,0.0,0.0,0.0,0.0,0.0,0.0,0.0,0.0,0.0,0.0,0.0,0.0,0.0,0.0,0.0,0.0,0.0,0.0,0.0,0.0,0.0,0.0,0.0,0.0,0.0,0.0,0.0,0.0,0.0,0.0,0.0,0.0,0.0,0.0,0.0,0.0,0.0,0.0,0.0,0.0,0.0,0.0,0.0,0.0,0.0,0.0,0.0,0.0,0.0,0.0,0.0,0.0,0.0,0.0,0.0,0.0,0.0,0.0,0.0,0.0,0.0,0.0,0.0,0.0,0.0,0.0,0.0,0.0,0.0,0.0,0.0,0.0,0.0,0.0,0.0,0.0,0.0,0.0,0.0,0.0,0.0,0.0,0.0,0.0,0.0,0.0,0.0,0.0,0.0,0.0,0.0,0.0,0.0,0.0,0.0,0.0,0.0,0.0,0.0,0.0,0.0,0.0,0.0,0.0,0.0,0.0,0.0,0.0,0.0,0.0,0.0,0.0,0.0,0.0,0.0,0.0,0.0,0.0,0.0,0.0,0.0,0.0,0.0,0.0,0.0,0.0,0.0,0.0,0.0,0.0,0.0,0.0,0.0,0.0,0.0,0.0,0.0,0.0,0.0,0.0,0.0,0.0,0.0,0.0,0.0,0.0,0.0,0.0,0.0,0.0,0.0,0.0,0.0,0.0,0.0,0.0,0.0,0.0,0.0,0.0,0.0,0.0,0.0,0.0,0.0,0.0,0.0,0.0,0.0,0.0,0.0,0.0,0.0,0.0,0.0,0.0,0.0,0.0,0.0,0.0,0.0,0.0,0.0,0.0,0.0,0.0,0.0,0.0,0.0,0.0,0.0,0.0,0.0,0.0,0.0,0.0,0.0,0.0,0.0,0.0,0.0,0.0,0.0,0.0,0.0,0.0,0.0,0.0,0.0,0.0,0.0,0.0,0.0,0.0,0.0,0.0,0.0,0.0,0.0,0.0,0.0,0.0,0.0,0.0,0.0,0.0,0.0,0.0,0.0,0.0,0.0,0.0,0.0,0.0,0.0,0.0,0.0,0.0,0.0,0.0,0.0,0.0,0.0,0.0,0.0,0.0,0.0,0.0,0.0,0.0,0.0,0.0,0.0,0.0,0.0,0.0,0.0,0.0,0.0,0.0,0.0,0.0,0.0,0.0,0.0,0.0,0.0,0.0,0.0,0.0,0.0,0.0,0.0,0.0,0.0,0.0,0.0,0.0,0.0,0.0,0.0,0.0,0.0,0.0,0.0,0.0,0.0,0.0,0.0,0.0,0.0,0.0,0.0,0.0,0.0,0.0,0.0,0.0,0.0,0.0,0.0,0.0,0.0,0.0,0.0,0.0,0.0,0.0,0.0,0.0,0.0,0.0,0.0,0.0,0.0,0.0,0.0,0.0,0.0,0.0,0.0,0.0,0.0,0.0,0.0,0.0,0.0,0.0,0.0,0.0,0.0,0.0,0.0,0.0,0.0,0.0,0.0,0.0,0.0,0.0,0.0,0.0,0.0,0.0,0.0,0.0,0.0,0.0,0.0,0.0,0.0,0.0,0.0,0.0,0.0,0.0,0.0,0.0,0.0,0.0,0.0,0.0,0.0,0.0,0.0,0.0,0.0,0.0,0.0,0.0,0.0,0.0,0.0,0.0,0.0,0.0,0.0,0.0,0.0,0.0,0.0,0.0,0.0,0.0,0.0,0.0,0.0,0.0,0.0,0.0,0.0,0.0,0.0,0.0,0.0,0.0,0.0,0.0,0.0,0.0,0.0,0.0,0.0,0.0,0.0,0.0,0.0,0.0,0.0,0.0,0.0,0.0,0.0,0.0,0.0,0.0,0.0,0.0,0.0,0.0,0.0,0.0,0.0,0.0,0.0,0.0,0.0,0.0,0.0,0.0,0.0,0.0,0.0,0.0,0.0,0.0,0.0,0.0,0.0,0.0,0.0,0.0,0.0,0.0,0.0,0.0,0.0,0.0,0.0,0.0,0.0,0.0,0.0,0.0,0.0,0.0,0.0,0.0,0.0,0.0,0.0,0.0,0.0,0.0,0.0,0.0,0.0,0.0,0.0,0.0,0.0,0.0,0.0,0.0,0.0,0.0,0.0,0.0,0.0,0.0,0.0,0.0,0.0,0.0,0.0,0.0,0.0,0.0,0.0,0.0,0.0,0.0,0.0,0.0,0.0,0.0,0.0,0.0,0.0,0.0,0.0,0.0,0.0,0.0,0.0,0.0,0.0,0.0,0.0,0.0,0.0,0.0,0.0,0.0,0.0,0.0,0.0,0.0,0.0,0.0,0.0,0.0,0.0,0.0,0.0,0.0,0.0,0.0,0.0,0.0,0.0,0.0,0.0,0.0,0.0,0.0,0.0,0.0,0.0,0.0,0.0,0.0,0.0,0.0,0.0,0.0,0.0,0.0,0.0,0.0,0.0,0.0,0.0,0.0,0.0,0.0,0.0,0.0,0.0,0.0,0.0,0.0,0.0,0.0,0.0,0.0,0.0,0.0,0.0,0.0,0.0,0.0,0.0,0.0,0.0,0.0,0.0,0.0,0.0,0.0,0.0,0.0,0.0,0.0,0.0,0.0,0.0,0.0,0.0,0.0,0.0,0.0,0.0,0.0,0.0,0.0,0.0,0.0,0.0,0.0,0.0,0.0,0.0,0.0,0.0,0.0,0.0,0.0,0.0,0.0,0.0,0.0,0.0,0.0,0.0,0.0,0.0,0.0,0.0,0.0,0.0,0.0,0.0,0.0,0.0,0.0,0.0,0.0,0.0,0.0,0.0,0.0,0.0,0.0,0.0,0.0,0.0,0.0,0.0,0.0,0.0,0.0,0.0,0.0,0.0,0.0,0.0,0.0,0.0,0.0,0.0,0.0,0.0,0.0,0.0,0.0,0.0,0.0,0.0,0.0,0.0,0.0,0.0,0.0,0.0,0.0,0.0,0.0,0.0,0.0,0.0,0.0,0.0,0.0,0.0,0.0,0.0,0.0,0.0,0.0,0.0,0.0,0.0,0.0,0.0,0.0,0.0,0.0,0.0,0.0,0.0,0.0,0.0,0.0,0.0,0.0,0.0,0.0,0.0,0.0,0.0,0.0,0.0,0.0,0.0,0.0,0.0,0.0,0.0,0.0,0.0,0.0,0.0,0.0,0.0,0.0,0.0,0.0,0.0,0.0,0.0,0.0,0.0,0.0,0.0,0.0,0.0,0.0,0.0,0.0,0.0,0.0,0.0,0.0,0.0,0.0,0.0,0.0,0.0,0.0,0.0,0.0,0.0,0.0,0.0,0.0,0.0,0.0,0.0,0.0,0.0,0.0,0.0,0.0,0.0,0.0,0.0,0.0,0.0,0.0,0.0,0.0,0.0,0.0,0.0,0.0,0.0,0.0,0.0,0.0,0.0,0.0,0.0,0.0,0.0,0.0,0.0,0.0,0.0,0.0,0.0,0.0,0.0,0.0,0.0,0.0,0.0,0.0,0.0,0.0,0.0,0.0,0.0,0.0,0.0,0.0,0.0,0.0,0.0,0.0,0.0,0.0,0.0,0.0,0.0,0.0,0.0,0.0,0.0,0.0,0.0,0.0,0.0,0.0,0.0,0.0,0.0,0.0,0.0,0.0,0.0,0.0,0.0,0.0,0.0,0.0,0.0,0.0,0.0,0.0,0.0,0.0,0.0,0.0,0.0,0.0,0.0,0.0,0.0,0.0,0.0,0.0,0.0,0.0,0.0,0.0,0.0,0.0,0.0,0.0,0.0,0.0,0.0,0.0,0.0,0.0,0.0,0.0,0.0,0.0,0.0,0.0,0.0,0.0,0.0,0.0,0.0,0.0,0.0,0.0,0.0,0.0,0.0,0.0,0.0,0.0,0.0,0.0,0.0,0.0,0.0,0.0,0.0,0.0,0.0,0.0,0.0,0.0,0.0,0.0,0.0,0.0,0.0,0.0,0.0,0.0,0.0,0.0,0.0,0.0,0.0,0.0,0.0,0.0,0.0,0.0,0.0,0.0,0.0,0.0,0.0,0.0,0.0,0.0,0.0,0.0,0.0,0.0,0.0,0.0,0.0,0.0,0.0,0.0,0.0,0.0,0.0,0.0,0.0,0.0,0.0,0.0,0.0,0.0,0.0,0.0,0.0,0.0,0.0,0.0,0.0,0.0,0.0,0.0,0.0,0.0,0.0,0.0,0.0,0.0,0.0,0.0,0.0,0.0,0.0,0.0,0.0,0.0,0.0,0.0,0.0,0.0,0.0,0.0,0.0,0.0,0.0,0.0,0.0,0.0,0.0,0.0,0.0,0.0,0.0,0.0,0.0,0.0,0.0,0.0,0.0,0.0,0.0,0.0,0.0,0.0,0.0,0.0,0.0,0.0,0.0,0.0,0.0,0.0,0.0,0.0,0.0,0.0,0.0,0.0,0.0,0.0,0.0,0.0,0.0,0.0,0.0,0.0,0.0,0.0,0.0,0.0,0.0,0.0,1.0584,0.0,0.0,0.0,0.0,0.0,0.0,0.0,0.0,0.0,0.0,0.0,0.0,0.0,0.0,0.0,0.0,0.0,0.0,0.0,0.0,0.0,0.0,0.0,0.0,0.0,0.0,0.0,0.4132,0.4158,0.4197,0.4197,0.4197,0.4197,0.4197,0.4197,0.4197,0.4197,0.4261,0.4389,0.4549,0.5088,0.5975,0.641,0.6704,0.6898,0.0,0.0,0.0,0.0,0.0,0.0,0.0,0.0,0.0,0.0,0.0,0.0,0.0,0.0,0.0,0.0,0.0,0.0,0.0,0.0,0.0,0.0,0.0,0.0,0.0,0.0,0.0,0.0,0.0,0.0,0.0,0.0,0.0,0.0,0.0,0.0,0.0,0.0,0.0,0.0,0.0,0.0,0.0,0.0,0.0,0.0,0.0,0.0,0.0,0.0,0.0,0.0,0.0,0.0,0.0,0.0,0.0,0.0,0.0,0.0,0.0,0.0,0.0,0.0,0.0,0.0,0.0,0.0,0.0,0.0,0.0,1.1139,0.0,0.0,0.0,0.0,0.0,0.0,0.0,0.0,0.0,0.0,0.0,0.0,0.0,0.0,0.0,0.0,0.0,0.0,0.0,0.0,0.0,0.0,0.0,0.4043,0.4114,0.4114,0.4163,0.4197,0.4197,0.4197,0.4197,0.4197,0.4192,0.4187,0.4187,0.4285,0.4457,0.4684,0.5279,0.6111,0.7163,0.7779,0.7955,0.0,0.0,0.0,0.0,0.0,0.0,0.0,0.0,0.0,0.0,0.0,0.0,0.0,0.0,0.0,0.0,0.0,0.0,0.0,0.0,0.0,0.0,0.0,0.0,0.0,0.0,0.0,0.0,0.0,0.0,0.0,0.0,0.0,0.0,0.0,0.0,0.0,0.0,0.0,0.0,0.0,0.0,0.0,0.0,0.0,0.0,0.0,0.0,0.0,0.0,0.0,0.0,0.0,0.0,0.0,0.0,0.0,0.0,0.0,0.0,0.0,0.0,0.0,0.0,0.0,1.3084,1.3334,1.3702,1.3702,1.3917,1.4205,1.2701,1.1918,1.1757,0.0,0.0,0.0,0.0,0.0,0.0,0.0,0.0,0.0,0.0,0.0,0.0,0.0,0.0,0.0,0.0,0.0,0.0,0.0,0.0,0.0,0.0,0.4138,0.4187,0.4187,0.4197,0.4197,0.4197,0.4197,0.4197,0.4197,0.4143,0.4109,0.4109,0.4625,0.4941,0.5029,0.6372,0.7543,0.8545,0.8917,0.9451,1.0014,0.0,0.0,0.0,0.0,0.0,0.0,0.0,0.0,0.0,0.0,0.0,0.0,0.0,0.0,0.0,0.0,0.0,0.0,0.0,0.0,0.0,0.0,0.0,0.0,0.0,0.0,0.0,0.0,0.0,0.0,0.0,0.0,0.0,0.0,0.0,0.0,0.0,0.0,0.0,0.0,0.0,0.0,0.0,0.0,1.3564,1.381,0.0,0.0,0.0,0.0,0.0,0.0,0.0,0.0,0.0,0.0,0.0,0.0,0.0,1.2836,1.3155,1.3676,1.3711,1.3255,1.3781,1.3794,1.3365,1.3365,1.3684,1.4201,1.3962,0.0,1.2199,1.3269,0.0,0.0,0.0,0.0,0.0,0.0,0.0,0.0,0.0,0.0,0.0,0.0,0.0,0.0,0.0,0.0,0.0,0.0,0.0,0.0,0.0,0.4605,0.4758,0.4758,0.5315,0.5309,0.4478,0.4812,0.4761,0.412,0.4058,0.4219,0.4604,0.4903,0.5564,0.6615,0.7829,0.8761,0.9439,0.9992,1.0445,1.0754,1.0133,0.9895,0.9963,1.0145,0.0,0.0,0.0,0.0,0.0,0.0,0.0,0.0,0.0,0.0,0.0,0.0,0.0,0.0,0.0,0.0,0.0,0.0,0.0,0.0,0.0,0.0,0.0,0.0,0.0,0.0,0.0,0.0,0.0,0.0,0.0,0.0,0.0,0.0,0.0,0.0,0.0,0.0,0.0,1.3953,1.3861,1.4203,1.4275,1.4343,0.0,0.0,0.0,0.0,0.0,0.0,0.0,0.0,0.0,1.4037,1.345,1.3348,1.3831,1.4108,1.4347,1.454,1.4797,1.4944,1.4984,1.4984,1.5253,1.5721,1.5721,1.4941,1.3693,1.3994,1.3632,1.2937,0.0,0.0,0.0,0.0,1.4124,1.4093,0.0,0.0,0.0,0.0,0.0,0.0,0.0,0.0,0.0,0.0,0.0,0.0,0.4843,0.5083,0.5348,0.5705,0.6141,0.5961,0.495,0.5149,0.4928,0.4039,0.4165,0.4496,0.5016,0.5527,0.6622,0.8311,0.9187,0.9893,1.0445,1.0997,1.1312,1.1414,1.1414,1.1037,1.0393,1.0612,1.0628,0.0,0.0,0.0,0.0,0.0,0.0,0.0,0.0,0.0,0.0,0.0,0.0,0.0,0.0,0.0,0.0,0.0,0.0,0.0,0.0,0.0,0.0,0.0,0.0,0.0,0.0,0.0,0.0,0.0,0.0,0.0,0.0,0.0,0.0,0.0,0.0,0.0,0.0,1.4376,1.4175,1.4184,1.4222,1.4191,0.0,0.0,0.0,0.0,0.0,0.0,1.4721,1.4088,1.3898,1.4314,1.3846,1.3847,1.4406,1.4397,1.4767,1.5501,1.5501,1.5676,1.5986,1.5986,1.6163,1.6436,1.6511,1.5952,1.4964,1.4727,1.4207,1.355,1.3725,1.3846,1.3949,1.4281,1.4397,1.4414,0.0,0.0,0.0,0.0,0.0,0.0,0.0,0.0,0.0,0.0,0.0,0.4521,0.562,0.5423,0.5737,0.7078,0.6022,0.5383,0.5634,0.4783,0.419,0.4009,0.4612,0.5,0.5092,0.6779,0.8336,0.9698,1.0199,1.0944,1.1901,1.1933,1.2146,1.2511,1.2511,1.2105,1.1393,1.0913,1.0876,1.1095,0.0,0.0,0.0,0.0,0.0,0.0,0.0,0.0,0.0,0.0,0.0,0.0,0.0,0.0,0.0,0.0,0.0,0.0,0.0,0.0,0.0,0.0,0.0,0.0,0.0,0.0,0.0,0.0,0.0,0.0,0.0,0.0,0.0,0.0,0.0,0.0,0.0,0.0,0.0,1.346,1.4409,0.0,0.0,0.0,0.0,1.4476,1.4417,1.4531,1.4869,1.484,1.4773,1.4675,1.463,1.473,1.496,1.496,1.5141,1.55,1.55,1.5378,1.5165,1.5165,1.5176,1.5198,1.5457,1.5534,1.5473,1.5522,1.4883,1.3927,1.4439,1.4799,1.4987,1.4759,1.4675,1.4658,0.0,0.0,0.0,0.0,0.0,0.0,0.0,0.0,0.4148,0.4387,0.4873,0.5411,0.5993,0.6776,0.7357,0.76,0.7601,0.7226,0.6403,0.5805,0.5211,0.4601,0.4597,0.5172,0.6361,0.7942,0.9246,1.0242,1.0852,1.1446,1.2005,1.2258,1.2456,1.259,1.259,1.2305,1.1795,1.1388,1.1267,1.1289,1.0776,1.0729,0.0,0.0,0.0,0.0,0.0,0.0,0.0,0.0,0.0,0.0,0.0,0.0,0.0,0.0,0.0,0.0,0.0,0.0,0.0,0.0,0.0,0.0,0.0,0.0,0.0,0.0,0.0,0.0,0.0,0.0,0.0,0.0,0.0,0.0,0.0,0.0,0.0,1.4701,1.5267,0.0,1.5348,1.5348,1.5318,1.5224,1.5031,1.5022,1.5269,1.5084,1.5035,1.5217,1.5206,1.5173,1.5077,1.5066,1.5126,1.5244,1.5244,1.5187,1.5108,1.5277,1.5356,1.5368,1.5603,1.568,1.5691,1.5719,1.5285,1.4597,1.4491,1.4506,1.4612,1.4817,1.489,1.4928,0.0,0.0,0.0,0.0,0.0,0.0,0.0,0.0,0.4346,0.4574,0.5379,0.6189,0.6868,0.7815,0.8526,0.8852,0.8561,0.7986,0.7134,0.6395,0.5742,0.5159,0.5397,0.6206,0.7609,0.8992,1.002,1.0671,1.135,1.1853,1.221,1.2479,1.259,1.2598,1.2718,1.2623,1.2361,1.2131,1.1815,1.1421,1.0883,1.1032,1.1465,0.0,0.0,0.0,0.0,0.0,0.0,0.0,0.0,0.0,0.0,0.0,0.0,0.0,0.0,0.0,0.0,0.0,0.0,0.0,0.0,0.0,0.0,0.0,0.0,0.0,0.0,0.0,0.0,0.0,0.0,0.0,0.0,0.0,0.0,0.0,1.597,1.6212,1.6621,1.6667,1.6142,1.6147,1.5959,1.5476,1.5268,1.5219,1.5368,1.5157,1.5138,1.5367,1.5368,1.5277,1.5097,1.5097,1.5051,1.4971,1.4971,1.4926,1.4869,1.5119,1.5232,1.5255,1.5558,1.5703,1.5691,1.577,1.5588,1.5241,1.4923,1.4811,1.4837,1.5155,1.5277,1.5325,0.0,0.0,0.0,0.0,0.0,0.0,0.0,0.4385,0.4599,0.4607,0.5568,0.6788,0.8224,0.8425,0.9142,1.0804,0.8731,0.7473,0.7789,0.6433,0.5627,0.5643,0.7037,0.8106,0.8726,0.9894,1.0666,1.1026,1.1679,1.221,1.263,1.263,1.2614,1.2646,1.2973,1.3124,1.3124,1.3124,1.2546,1.1599,1.0926,1.145,1.2431,0.0,0.0,0.0,0.0,0.0,0.0,0.0,0.0,0.0,0.0,0.0,0.0,0.0,0.0,0.0,0.0,0.0,0.0,0.0,0.0,0.0,0.0,0.0,0.0,0.0,0.0,0.0,0.0,0.0,0.0,0.0,0.0,0.0,1.5946,1.7286,1.8072,1.7733,1.8349,1.8195,1.6679,1.6534,1.6142,1.5229,1.5144,1.5125,1.5119,1.5108,1.5097,1.5085,1.5085,1.5085,1.5074,1.5074,1.4949,1.4696,1.4696,1.4581,1.4419,1.4616,1.4708,1.4731,1.5266,1.5491,1.5502,1.5703,1.5781,1.5781,1.5792,1.5815,1.5816,1.5815,1.5803,1.5803,0.0,0.0,0.0,0.0,0.0,0.0,0.0,0.4385,0.4673,0.4863,0.6292,0.7441,0.7845,0.9105,0.9907,0.9843,0.8773,0.8097,0.8089,0.6749,0.6152,0.6593,0.7561,0.8534,0.9475,1.0167,1.0897,1.1727,1.1909,1.2337,1.2965,1.2965,1.3092,1.3323,1.3418,1.3466,1.3466,1.3466,1.33,1.2977,1.2064,1.1692,1.166,0.0,0.0,0.0,0.0,0.0,0.0,0.0,0.0,0.0,0.0,0.0,0.0,0.0,0.0,0.0,0.0,0.0,0.0,0.0,0.0,0.0,0.0,0.0,0.0,0.0,0.0,0.0,0.0,0.0,0.0,0.0,0.0,1.6342,1.655,1.739,1.7916,1.7713,1.8263,1.8305,1.7396,1.7302,1.7097,1.6586,1.6194,1.5868,1.5624,1.528,1.5006,1.4811,1.4811,1.4743,1.4593,1.4593,1.4558,1.4488,1.4488,1.4454,1.4419,1.4616,1.4708,1.4719,1.5062,1.521,1.521,1.5266,1.5289,1.5323,1.567,1.6043,1.6331,1.5947,1.5803,1.5803,0.0,0.0,0.0,0.0,0.0,0.0,0.0,0.4419,0.4782,0.494,0.66,0.7867,0.8056,0.92,0.9841,0.9549,0.8658,0.8079,0.7998,0.7355,0.7141,0.0,0.0,0.9322,0.9958,1.069,1.1403,1.2137,1.2347,1.275,1.3315,1.3315,1.3418,1.3601,1.3752,1.3807,1.3807,1.3807,1.3807,1.3753,1.3015,1.2714,1.2628,1.2026,1.2087,1.2453,1.1992,1.2449,1.3189,1.2659,0.0,0.0,0.0,0.0,0.0,0.0,0.0,0.0,0.0,0.0,0.0,0.0,0.0,0.0,0.0,0.0,0.0,0.0,0.0,0.0,0.0,0.0,0.0,0.0,1.6434,1.7152,1.7461,1.8125,1.8611,1.8738,1.886,1.8621,1.7799,1.7725,1.7456,1.6773,1.6423,1.6115,1.5819,1.5349,1.5033,1.4868,1.4681,1.4512,1.4396,1.4396,1.4396,1.4396,1.4396,1.4303,1.4162,1.4569,1.4559,0.0,1.4884,1.4947,1.4651,1.4816,1.4894,0.0,0.0,0.0,0.0,0.0,1.6203,1.6289,0.0,0.0,0.0,0.0,0.0,0.0,0.0,0.447,0.4885,0.4854,0.658,0.7931,0.8277,0.8776,0.9163,0.9388,0.832,0.7646,0.7666,0.802,0.0,0.8265,0.9494,1.02,1.0237,1.1245,1.1948,1.2313,1.2822,1.3234,1.3523,1.3623,1.3647,1.3644,1.3995,1.4155,1.4155,1.4155,1.4155,1.4123,1.3831,1.4007,1.4249,1.245,1.2905,1.4283,1.2831,1.2771,1.3414,1.3493,0.0,0.0,0.0,0.0,0.0,0.0,0.0,0.0,0.0,0.0,0.0,0.0,0.0,0.0,0.0,0.0,0.0,0.0,0.0,0.0,0.0,0.0,0.0,0.0,1.7101,1.7721,1.8376,1.8995,1.9531,1.994,1.9567,1.8902,1.7931,1.7819,1.7411,1.6397,1.6268,1.6133,1.5887,0.0,0.0,0.0,0.0,1.4484,1.4484,1.4429,1.4396,1.4396,1.4404,1.4203,1.3893,1.448,1.4372,1.3745,1.4703,1.4702,1.4063,1.4428,1.4597,1.4756,1.5836,1.6255,1.6268,1.6409,1.6644,1.684,0.0,0.0,0.0,0.0,0.0,0.0,0.0,0.447,0.4823,0.461,0.6096,0.7024,0.6629,0.7617,0.8121,0.7644,0.7372,0.7285,0.0,0.0,0.8455,0.8674,0.9554,1.017,1.0449,1.1174,1.1859,1.2462,1.2724,1.2957,1.314,1.3713,1.3913,1.3787,1.4292,1.4502,1.4502,1.4502,1.4502,1.4494,1.4431,1.4002,1.3389,1.3427,1.3553,1.3753,1.4072,1.4615,1.5174,1.4984,1.4855,1.4651,1.4012,0.0,0.0,0.0,0.0,0.0,0.0,0.0,0.0,0.0,0.0,0.0,0.0,0.0,0.0,0.0,0.0,0.0,0.0,0.0,0.0,1.5908,1.6796,1.7628,1.8249,1.8453,1.8569,1.8651,1.8581,1.8222,1.7497,1.7418,1.7316,1.7101,1.6692,1.6422,1.6369,1.592,1.5656,1.5656,1.5202,1.4963,1.4963,1.4592,1.4396,1.4407,0.0,0.0,1.4291,1.442,1.4391,1.4265,1.4462,1.4471,1.4333,1.4401,1.4627,1.4995,1.5753,1.6017,1.5955,1.573,1.5846,1.6058,0.0,0.0,0.0,0.0,0.0,0.0,0.0,0.4439,0.4742,0.4434,0.5718,0.6466,0.6004,0.658,0.6869,0.6531,0.6497,0.6729,0.0,0.7834,0.8306,0.8639,0.9268,0.9742,1.0044,1.0542,1.1083,1.1703,1.189,1.2117,1.236,1.2928,1.315,1.3084,1.3869,1.4201,1.422,1.4489,1.4726,1.4893,1.4893,1.4704,1.4358,1.4102,1.4138,1.4378,1.497,1.535,1.5582,1.5815,1.5728,1.5386,1.4743,1.4092,1.3423,0.0,0.0,0.0,0.0,0.0,0.0,0.0,0.0,0.0,0.0,0.0,0.0,0.0,0.0,1.483,1.4933,0.0,1.6086,1.6527,1.7241,1.7752,1.7785,1.8038,1.8203,1.8203,1.7957,1.7675,1.7334,1.7306,1.7306,1.7306,1.7052,1.6896,1.6896,1.6424,1.6149,1.6149,1.5691,1.534,1.5103,1.4868,1.4629,1.4393,1.4407,1.4304,1.4156,1.4352,1.4227,1.3865,1.4281,1.4224,1.3869,1.4066,1.4266,1.4496,1.5034,1.5467,1.5769,1.551,1.57,1.6079,0.0,0.0,0.0,0.0,0.0,0.0,0.0,0.4356,0.4589,0.4267,0.5267,0.5855,0.5473,0.5546,0.565,0.5685,0.5761,0.0,0.0,0.7625,0.8042,0.8493,0.8964,0.9287,0.9435,0.9866,1.0349,1.085,1.1208,1.1491,1.17,1.2278,1.2535,1.2572,1.3426,1.3851,1.3977,1.4418,1.4829,1.5208,1.5208,1.5367,1.551,1.4641,1.4648,1.5154,1.5487,1.5405,1.5274,1.6162,1.6035,1.5479,1.5252,1.4917,1.4426,1.3368,1.2976,0.0,0.0,0.0,0.0,0.0,0.0,0.0,0.0,0.0,1.4325,1.4415,1.5124,1.5835,1.6167,1.6416,1.67,1.7146,1.7636,1.779,1.7352,1.7675,1.7941,1.7941,1.7562,1.7306,1.7306,1.7306,1.7306,1.7306,1.7306,1.7306,1.7306,1.6885,1.6667,1.6667,1.6103,1.562,1.5243,1.5067,1.4767,1.44,1.441,1.4285,1.4034,1.4349,1.4148,1.3571,1.4231,1.4125,1.3552,1.3873,1.397,1.3924,1.4258,1.4773,1.5338,1.5164,1.5529,1.6079,0.0,0.0,0.0,0.0,0.0,0.0,0.0,0.0,0.4252,0.3981,0.454,0.4747,0.4171,0.4437,0.4724,0.4909,0.0,0.0,0.7376,0.7577,0.7923,0.8567,0.9036,0.9171,0.8891,0.969,1.0289,1.0635,1.1548,1.1903,1.1719,1.2838,1.3375,1.3382,1.3677,1.4049,1.4507,1.4569,1.4829,1.5208,1.5208,1.5224,1.5247,1.5128,1.5117,1.5186,1.5248,1.482,1.447,1.586,1.5846,1.5352,1.5959,1.5823,1.5214,1.3979,0.0,1.2703,1.1802,1.1869,1.2268,1.268,1.3047,1.3651,0.0,0.0,1.512,1.5526,1.6128,1.63,1.5417,1.628,1.7,1.6651,1.7046,1.7368,1.7309,1.7351,1.7393,1.7393,1.7348,1.7306,1.7306,1.7306,1.7306,1.7306,1.7306,1.7306,1.7306,1.7237,1.7205,1.7205,1.6295,1.5773,1.5719,1.4897,1.4453,1.4397,1.4463,1.4466,1.4429,1.4482,1.4444,1.4363,1.4464,1.4445,1.4363,1.4409,1.4222,1.3897,1.3952,1.4019,1.41,1.4082,1.4601,1.5328,0.0,0.0,0.0,0.0,0.0,0.0,0.0,0.0,0.0,0.3932,0.4261,0.4353,0.3947,0.4015,0.4175,0.4377,0.0,0.0,0.7276,0.7369,0.7666,0.8336,0.8595,0.8554,0.8231,0.88,0.9233,0.95,0.9922,1.0356,1.0832,1.1589,1.2058,1.2316,1.3335,1.3724,1.3674,1.4571,1.5157,1.551,1.5697,1.5677,1.547,1.5271,1.4699,1.402,1.4461,1.4119,0.0,0.0,1.5084,1.5065,1.5613,1.5562,1.5095,1.4023,1.3325,0.0,1.2082,1.2031,0.0,0.0,1.3215,1.3809,1.4701,1.5217,1.5565,1.5753,1.6442,1.6852,1.641,1.6837,1.7194,0.0,1.715,1.7306,1.7306,1.7041,1.683,1.683,1.6588,1.6656,1.7237,1.7306,1.7306,1.7306,1.7306,1.7306,1.7306,1.7306,1.7169,1.6892,1.6479,1.6,1.5469,1.505,1.4732,1.4454,1.4485,1.4497,1.4492,1.4492,1.4634,1.4854,1.4854,1.4983,1.5184,1.4955,1.4753,1.4603,1.4603,1.4603,1.4533,1.4071,1.4432,1.5155,0.0,0.0,0.0,0.0,0.0,0.0,0.0,0.0,0.0,0.0,0.4068,0.4088,0.382,0.3702,0.3716,0.0,0.0,0.0,0.0,0.6989,0.7357,0.7999,0.8153,0.0,0.7807,0.8075,0.8359,0.8618,0.884,0.9498,1.0546,1.0931,1.1428,1.2021,1.3262,1.3561,1.3243,1.4624,1.5343,1.5581,1.5825,1.565,1.5208,1.4675,1.372,1.274,1.3364,1.3054,0.0,0.0,1.3811,1.403,1.4751,1.4898,1.4592,1.3728,1.3019,1.2474,1.2255,0.0,0.0,1.3161,1.3696,1.4288,1.5047,1.575,1.6278,1.6416,1.6973,1.7406,1.7258,1.7274,1.7306,1.7306,1.7306,1.7306,1.7306,1.6841,1.65,1.65,1.6094,1.6083,1.6822,1.6994,1.7084,1.7084,1.7093,1.7113,1.7113,1.6987,1.6765,1.6428,1.6275,1.5888,1.5206,1.5074,1.4843,1.45,1.45,1.45,1.45,1.461,1.4827,1.5111,1.5221,1.5423,1.5686,1.5393,1.5258,1.5258,1.5258,1.5258,1.5194,1.4613,1.4769,1.5301,0.0,0.0,0.0,0.0,0.0,0.0,0.0,0.0,0.0,0.0,0.0,0.0,0.0,0.0,0.0,0.0,0.0,0.0,0.0,0.6351,0.6984,0.7587,0.7866,0.7941,0.7807,0.7809,0.8017,0.8411,0.9189,1.0188,1.1378,1.1786,1.2489,1.3455,1.3695,1.3796,1.3837,1.4783,1.5208,1.5224,1.5232,1.4792,1.4036,1.3044,1.2216,1.1597,1.1939,0.0,0.0,0.0,1.1858,1.1869,1.3454,1.3938,0.0,1.3119,1.2268,0.0,0.0,0.0,1.3118,1.4111,1.4713,1.5448,1.6967,1.7337,1.7474,1.7945,1.8047,1.7904,1.7385,1.7295,1.7306,1.7306,1.7306,1.7306,1.7306,1.6841,1.65,1.65,1.6094,1.5809,0.0,1.6258,1.6522,1.6522,1.6583,1.6623,1.6623,1.6189,1.5946,1.5917,1.5483,1.5225,1.5196,1.4749,1.4506,1.45,1.45,1.45,1.4509,1.4909,1.5093,1.512,1.5505,1.5696,1.5705,1.5696,1.5686,1.5686,1.5686,1.5686,1.5686,1.5659,1.5668,1.5751,0.0,0.0,0.0,0.0,0.0,0.0,0.0,0.0,0.0,0.0,0.0,0.0,0.0,0.0,0.0,0.0,0.0,0.0,0.0,0.6205,0.6816,0.7062,0.7716,0.7915,0.7607,0.773,0.7932,0.8206,0.847,0.9268,1.0533,1.0687,1.1189,1.1993,1.2469,1.2768,1.2988,1.3701,1.4304,1.4782,1.4569,1.4053,1.3346,1.252,1.1471,1.0418,0.0,0.0,0.0,0.0,1.0551,1.0837,1.1943,0.0,0.0,1.2447,1.2212,1.2146,1.2975,0.0,1.4122,1.5093,1.5682,1.6258,1.7132,1.7329,1.7287,1.7084,1.6782,1.6419,1.593,1.5836,1.5946,1.6249,1.6579,1.6776,1.6776,1.6609,1.6271,1.5649,1.5431,0.0,0.0,0.0,0.0,1.6038,1.6058,1.6085,1.6136,1.5989,1.5758,1.5454,1.5284,1.5054,1.4749,1.458,1.45,1.45,1.45,1.4781,1.5285,1.5157,1.5395,1.5902,1.603,1.6257,1.6477,1.6211,1.6094,1.6094,1.6094,1.6094,1.6121,1.6404,1.6496,1.6477,0.0,0.0,0.0,0.0,0.0,0.0,0.0,0.0,0.0,0.0,0.0,0.0,0.0,0.0,0.0,0.0,0.0,0.0,0.0,0.0,0.6288,0.6329,0.7006,0.7274,0.7038,0.7093,0.7215,0.7418,0.7418,0.8134,0.949,0.949,0.9955,1.0798,1.139,1.1772,1.2005,1.2602,1.3099,1.347,1.3265,1.2704,1.1911,1.117,1.033,0.0,0.0,0.0,0.0,0.0,0.9532,0.9922,1.0808,1.147,1.2015,1.2358,1.2583,1.2909,1.3729,1.4428,1.5094,1.5854,1.6424,1.683,1.6972,1.7005,1.6819,1.614,1.5756,1.5409,1.4941,1.4985,1.5202,1.5495,1.5942,1.6302,1.6489,1.6358,1.6031,1.5422,1.5203,0.0,0.0,0.0,0.0,1.538,1.5638,1.5761,1.5661,1.563,1.5482,1.5169,1.5154,1.5014,1.4726,1.4702,1.4638,1.45,1.4799,1.512,1.5494,1.5524,1.5801,1.6305,1.6451,1.6653,1.689,1.6616,1.6506,1.6506,1.6506,1.6506,1.6543,1.6799,1.6908,1.6854,0.0,0.0,0.0,0.0,0.0,0.0,0.0,0.0,0.0,0.0,0.0,0.0,0.0,0.0,0.0,0.0,0.0,0.0,0.0,0.0,0.0,0.5476,0.5868,0.611,0.6184,0.6006,0.6002,0.6205,0.6205,0.6929,0.8319,0.8319,0.8878,0.9905,1.0482,1.0816,1.0975,1.1528,1.1654,1.147,1.1431,1.0856,0.9913,0.9181,0.0,0.0,0.0,0.0,0.0,0.0,0.0,0.0,0.0,0.0,1.2312,1.2824,1.3336,1.3849,1.4374,1.5158,1.5953,1.6411,1.6896,1.7128,1.662,1.6468,1.6173,1.5245,1.505,1.4886,0.0,0.0,1.5038,1.5082,1.5495,1.5964,1.6432,1.6112,1.5823,0.0,0.0,0.0,0.0,0.0,0.0,1.4616,0.0,1.5608,1.5239,1.5169,1.5129,1.5129,1.5129,1.512,1.5102,1.5084,1.4909,1.4601,1.5322,1.5496,1.5221,1.5957,1.6314,1.635,1.6726,1.6908,1.6908,1.6908,1.6908,1.6908,1.6908,1.6908,1.6908,1.6908,1.6874,1.6839,0.0,0.0,0.0,0.0,0.0,0.0,0.0,0.0,0.0,0.0,0.0,0.0,0.0,0.0,0.0,0.0,0.0,0.0,0.0,0.0,0.0,0.0,0.0,0.0,0.0,0.0,0.0,0.0,0.0,0.6524,0.7138,0.7138,0.7524,0.0,0.8375,0.9027,1.0023,0.9931,1.0379,1.1077,0.0,1.0153,0.9855,0.0,0.0,0.0,0.0,0.0,0.0,0.0,0.0,0.0,0.0,0.0,1.2637,1.3695,1.4111,1.4472,1.5651,1.614,1.6457,1.6975,1.6896,1.6664,1.6533,1.5966,1.529,1.4702,1.4297,1.3903,0.0,0.0,0.0,1.4996,1.5495,0.0,1.6432,1.6447,0.0,0.0,0.0,1.5323,1.4561,1.5023,0.0,0.0,1.5157,1.5355,1.5569,1.5557,1.5558,1.5558,1.5558,1.5395,1.5102,1.4793,1.505,1.5838,1.5441,1.567,1.6441,1.6341,1.646,1.6744,1.6862,1.6908,1.6908,1.6908,1.6908,1.6908,1.6908,1.6908,1.6908,1.6908,1.6551,1.6079,0.0,0.0,0.0,0.0,0.0,0.0,0.0,0.0,0.0,0.0,0.0,0.0,0.0,0.0,0.0,0.0,0.0,0.0,0.0,0.0,0.0,0.0,0.0,0.0,0.0,0.0,0.0,0.0,0.0,0.0,0.0,0.591,0.6356,0.7067,0.7067,0.774,0.8844,0.0,0.0,0.0,0.0,0.0,0.0,0.0,0.0,0.0,0.0,0.0,0.0,0.0,0.0,1.111,1.2339,1.301,1.356,1.4674,0.0,1.5487,1.6282,1.6664,1.6918,1.7216,1.6896,1.6391,1.5976,1.5474,1.4842,1.3936,1.3718,0.0,0.0,0.0,0.0,0.0,0.0,0.0,1.5854,1.6109,1.6046,0.0,1.5642,0.0,1.508,1.5438,1.5675,0.0,1.5628,1.5657,1.5696,1.5863,1.5964,1.5964,1.5964,1.5847,1.5634,1.5398,1.5535,1.6037,1.5936,1.6156,1.6642,1.6597,1.668,1.6908,0.0,1.6908,1.6908,1.6908,1.6908,1.6908,1.6908,1.6691,1.642,1.642,1.5939,1.5268,0.0,0.0,0.0,0.0,0.0,0.0,0.0,0.0,0.0,0.0,0.0,0.0,0.0,0.0,0.0,0.0,0.0,0.0,0.0,0.0,0.0,0.0,0.0,0.0,0.0,0.0,0.0,0.0,0.0,0.0,0.0,0.0,0.0,0.0,0.0,0.0,0.0,0.0,0.0,0.0,0.0,0.0,0.0,0.0,0.0,0.0,0.0,0.0,0.0,0.0,1.1337,1.1912,1.347,1.4249,1.4756,1.5636,1.6182,1.6522,1.6588,1.6953,1.7281,1.7205,1.6798,1.6162,1.5213,1.4963,1.4536,1.3172,0.0,0.0,1.3096,0.0,1.3816,1.3882,0.0,1.5117,1.518,1.5498,1.5743,1.5785,1.5787,1.5785,1.5783,1.5833,1.6001,1.635,1.6378,1.6239,1.5888,1.6186,1.6378,1.6378,1.6332,1.6332,1.6378,1.6222,1.6056,1.5879,1.6459,1.6607,1.6396,1.6735,1.6908,1.6908,0.0,0.0,1.6991,1.6991,1.6912,1.6825,1.6825,1.6342,1.5639,1.5639,1.5144,1.4466,0.0,0.0,0.0,0.0,0.0,0.0,0.0,0.0,0.0,0.0,0.4602,0.413,0.0,0.0,0.0,0.0,0.0,0.0,0.0,0.0,0.0,0.0,0.0,0.0,0.0,0.0,0.0,0.0,0.0,0.0,0.0,0.0,0.0,0.0,0.0,0.0,0.0,0.0,0.0,0.0,0.0,0.0,0.0,0.0,0.0,0.0,0.0,0.0,0.0,0.0,1.2152,1.3048,1.4016,1.4894,1.5669,1.6214,1.6446,1.6598,1.7041,1.7227,1.7183,1.6754,1.6269,1.568,1.4734,1.4221,0.0,0.0,0.0,1.3663,1.3576,1.3947,0.0,1.4787,0.0,0.0,0.0,0.0,1.5434,0.0,0.0,0.0,0.0,0.0,0.0,0.0,0.0,1.6771,1.6697,1.6762,1.6807,1.6807,1.647,1.646,1.6781,1.5808,1.5771,1.6688,1.6156,1.6221,1.6807,1.6872,1.6908,1.6908,1.6908,0.0,1.7394,1.7394,1.7045,1.6488,1.6488,1.5804,1.4816,1.4816,1.434,1.371,0.0,0.0,0.0,0.0,0.0,0.0,0.0,0.6258,0.6002,0.5848,0.5238,0.4705,0.44,0.4158,0.413,0.0,0.0,0.0,0.0,0.0,0.0,0.0,0.0,0.0,0.0,0.0,0.0,0.0,0.0,0.0,0.0,0.0,0.0,0.0,0.0,0.0,0.0,0.0,0.0,0.0,0.0,0.0,0.0,0.0,0.0,0.0,0.0,0.0,0.0,0.0,1.2043,1.3248,1.4392,1.5234,1.5885,1.6356,1.671,1.6961,1.7227,1.7306,1.7172,1.6631,1.5953,1.5256,1.4559,0.0,0.0,0.0,0.0,1.4057,1.4057,0.0,0.0,0.0,0.0,0.0,0.0,0.0,0.0,0.0,0.0,0.0,0.0,0.0,0.0,0.0,0.0,1.6908,1.6908,1.6908,1.6908,1.6908,1.6708,1.6598,1.6589,1.623,1.6213,1.6597,1.6413,1.6523,1.6908,1.6908,1.6908,1.6908,1.6908,0.0,1.7459,1.7018,1.6751,1.6556,1.5965,1.5114,1.4208,1.4077,1.3656,1.3145,0.0,0.0,0.0,0.0,0.0,0.0,0.0,0.6739,0.6573,0.65,0.5971,0.5502,0.5239,0.482,0.4719,0.0,0.0,0.0,0.0,0.0,0.0,0.0,0.0,0.0,0.0,0.0,0.0,0.0,0.0,0.0,0.0,0.0,0.0,0.0,0.0,0.0,0.0,0.0,0.0,0.0,0.0,0.0,0.0,0.0,0.0,0.0,0.0,0.0,0.0,0.0,1.1685,1.2892,1.4218,1.5091,1.5724,1.6083,1.6645,1.7128,1.7128,1.7205,1.715,1.6511,1.5725,1.4952,1.4374,1.3958,0.0,0.0,0.0,1.4396,1.4396,0.0,0.0,0.0,0.0,0.0,0.0,0.0,0.0,0.0,0.0,0.0,0.0,0.0,0.0,0.0,0.0,0.0,1.6908,1.6908,1.6908,1.6908,1.6908,1.6762,1.6433,1.667,1.667,1.6433,1.6653,1.6826,1.6908,1.6908,1.6841,1.6747,1.6747,0.0,0.0,1.6466,1.6269,1.6311,1.541,1.4517,1.3715,1.3509,1.3205,1.2884,0.0,0.0,0.0,0.0,0.0,0.0,0.0,0.7592,0.7467,0.7158,0.6799,0.6564,0.6535,0.5472,0.4984,0.0,0.0,0.0,0.0,0.0,0.0,0.0,0.0,0.0,0.0,0.0,0.0,0.0,0.0,0.0,0.0,0.0,0.0,0.0,0.0,0.0,0.0,0.0,0.0,0.0,0.0,0.0,0.0,0.0,0.0,0.0,0.0,0.0,0.0,0.0,0.0,1.2043,1.2848,1.4055,1.5169,1.5225,0.0,0.0,1.6577,1.6929,1.7074,1.6105,1.5485,1.4875,1.3969,0.0,0.0,0.0,1.4068,1.4396,1.4396,1.4396,0.0,0.0,0.0,0.0,0.0,0.0,0.0,0.0,0.0,0.0,0.0,0.0,0.0,0.0,0.0,0.0,1.6908,1.6908,1.6908,1.6908,1.6908,1.6873,1.6853,1.6515,1.6515,1.6844,1.6506,1.6543,1.6908,1.6908,1.6669,1.6259,1.6259,0.0,0.0,1.6134,1.5695,1.506,1.4971,1.4239,1.3265,1.3231,1.3205,1.3166,0.0,0.0,0.0,0.0,0.0,0.0,0.7701,0.753,0.7428,0.7494,0.689,0.6598,0.6966,0.6226,0.5935,0.6511,0.0,0.0,0.0,0.0,0.0,0.0,0.0,0.0,0.0,0.0,0.0,0.0,0.0,0.0,0.0,0.0,0.0,0.0,0.0,0.0,0.0,0.0,0.0,0.0,0.0,0.0,0.0,0.0,0.0,0.0,0.0,0.0,0.0,0.0,0.0,0.0,1.1729,1.2483,0.0,0.0,1.5333,1.6138,1.6411,1.6885,1.7063,1.6051,1.5234,1.4581,1.421,0.0,0.0,1.4002,1.4276,1.4396,1.4396,1.4396,1.4396,0.0,0.0,0.0,0.0,0.0,0.0,0.0,0.0,0.0,0.0,0.0,0.0,0.0,0.0,0.0,1.6908,1.6908,1.6908,1.6908,1.6908,1.6772,1.6534,1.6616,1.6616,1.6534,1.6616,1.6502,1.6246,1.6246,1.5977,1.5524,1.5322,0.0,0.0,1.5324,1.5078,1.512,1.441,1.3845,1.3427,1.3253,1.33,1.3447,0.0,0.0,0.0,0.0,0.0,0.7701,0.7701,0.7501,0.7445,0.7724,0.7098,0.6826,0.7371,0.6989,0.6886,0.7395,0.7329,0.0,0.0,0.0,0.0,0.0,0.0,0.0,0.0,0.0,0.0,0.0,0.0,0.0,0.0,0.0,0.0,0.0,0.0,0.0,0.0,0.0,0.0,0.0,0.0,0.0,0.0,0.0,0.0,0.0,0.0,0.0,0.0,0.0,0.0,0.0,0.0,0.0,0.0,0.0,1.4526,1.5464,1.5791,1.6361,1.6656,1.58,1.4897,1.4221,0.0,0.0,1.3194,1.4188,1.4396,1.4396,1.4396,1.4396,1.4396,0.0,0.0,0.0,0.0,0.0,0.0,0.0,0.0,0.0,0.0,0.0,0.0,0.0,0.0,0.0,0.0,1.6908,1.6908,1.6908,1.6908,1.6754,1.6479,1.6538,1.6434,1.6147,1.62,1.5956,1.5444,1.5545,1.5342,1.4864,0.0,0.0,0.0,1.4581,1.4558,1.4921,1.4076,1.3754,1.3727,1.3547,1.358,1.372,0.0,0.0,0.0,0.0,0.0,0.0,0.7701,0.7701,0.7743,0.7878,0.7599,0.7538,0.7952,0.7745,0.7696,0.7962,0.7626,0.0,0.0,0.0,0.0,0.0,0.0,0.0,0.0,0.0,0.0,0.0,0.0,0.0,0.0,0.0,0.0,0.0,0.0,0.0,0.0,0.0,0.0,0.0,0.0,0.0,0.0,0.0,0.0,0.0,0.0,0.0,0.0,0.0,0.0,0.0,0.0,0.0,0.0,0.0,1.3259,1.4418,1.4418,1.5093,1.5702,1.5223,1.4406,1.3827,0.0,0.0,1.3194,1.4188,1.4396,1.4396,1.4396,1.4396,1.4396,1.4396,0.0,0.0,0.0,0.0,0.0,0.0,0.0,0.0,0.0,0.0,0.0,0.0,0.0,0.0,0.0,1.6908,1.6908,1.6908,1.6908,1.6908,1.6882,1.6175,1.5815,1.5798,1.5002,1.4619,1.4617,1.4967,1.4819,0.0,0.0,0.0,0.0,1.4103,1.4103,1.4109,1.4103,1.4082,1.4082,1.4082,1.4082,1.4041,0.0,0.0,0.0,0.0,0.0,0.0,0.0,0.7836,0.786,0.7956,0.7718,0.759,0.7709,0.7644,0.7638,0.7727,0.7772,0.0,0.0,0.0,0.0,0.0,0.0,0.0,0.0,0.0,0.0,0.8394,0.0,0.0,0.0,0.0,0.0,0.0,0.0,0.0,0.0,0.0,0.0,0.0,0.0,0.0,0.0,0.0,0.0,0.0,0.0,0.0,0.0,0.0,0.0,0.0,0.0,0.0,0.0,1.1765,0.0,0.0,1.3816,1.4374,1.4722,1.4264,1.3641,1.3281,1.3794,0.0,1.3194,1.4188,1.4396,1.4396,1.4396,1.4396,1.4303,1.4022,1.3775,0.0,0.0,0.0,0.0,0.0,0.0,0.0,0.0,0.0,0.0,0.0,0.0,0.0,0.0,1.6908,1.6908,1.6908,1.6908,1.6908,1.6908,1.6175,1.5798,1.5798,1.4984,1.4332,1.3854,1.3967,0.0,0.0,0.0,0.0,0.0,1.3554,1.3728,1.4109,1.4109,1.4109,1.4109,1.4109,1.4109,1.4075,0.0,0.0,0.0,0.0,0.0,0.0,0.0,0.7922,0.7974,0.8067,0.7933,0.7842,0.7891,0.7901,0.7901,0.7901,0.8048,0.0,0.0,0.0,0.0,0.0,0.0,0.0,0.0,0.0,0.8465,0.8582,0.8582,0.8582,0.0,0.0,0.0,0.0,0.0,0.0,0.0,0.0,0.0,0.0,0.0,0.0,0.8763,0.0,0.0,0.0,0.0,0.0,0.0,0.0,0.0,0.0,0.0,0.0,0.0,0.0,1.2301,1.2933,0.0,1.3477,1.3761,1.3466,1.315,0.0,0.0,0.0,0.0,1.4232,1.4396,1.4396,1.4396,1.4396,1.4322,1.4065,1.377,0.0,0.0,0.0,0.0,0.0,0.0,0.0,0.0,0.0,0.0,0.0,0.0,0.0,0.0,1.6908,1.676,1.649,1.6473,1.6473,1.6473,1.5454,1.4939,1.4913,1.4124,1.3491,1.305,1.3182,0.0,0.0,0.0,0.0,0.0,1.338,1.3567,1.3907,1.4041,1.4109,1.4109,1.4109,1.387,1.3568,0.0,0.0,0.0,0.0,0.0,0.0,0.0,0.7977,0.8059,0.8198,0.8216,0.8268,0.8383,0.8394,0.8394,0.8394,0.0,0.0,0.0,0.0,0.0,0.0,0.0,0.0,0.0,0.8394,0.855,0.8866,0.8866,0.8866,0.8858,0.8553,0.0,0.0,0.0,0.0,0.0,0.0,0.0,0.0,0.9026,0.9237,0.0,0.0,0.0,0.0,0.0,0.0,0.0,0.0,0.0,0.0,0.0,0.0,0.0,0.0,0.0,0.0,0.0,1.2572,1.29,1.29,1.29,1.3031,0.0,0.0,0.0,0.0,1.4396,1.4396,1.4396,1.4406,1.4392,1.4357,0.0,0.0,0.0,0.0,0.0,0.0,0.0,0.0,0.0,0.0,0.0,0.0,0.0,0.0,0.0,1.6908,1.6569,1.5815,1.5745,1.571,1.571,1.4232,1.3499,1.3499,1.2684,1.2305,1.2311,1.2623,1.275,0.0,0.0,0.0,0.0,1.3487,1.3613,1.366,1.3981,1.4067,1.4004,1.4004,1.3419,1.2598,0.0,0.0,0.0,0.0,0.0,0.0,0.0,0.0,0.0,0.0,0.8353,0.8363,0.8394,0.8394,0.8394,0.0,0.0,0.0,0.0,0.0,0.0,0.0,0.0,0.0,0.0,0.8394,0.8433,0.8521,0.8521,0.8521,0.8521,0.8433,0.8394,0.8394,0.8306,0.8314,0.8414,0.0,0.0,0.0,0.938,0.9568,0.0,0.0,0.0,0.0,1.122,1.1428,0.0,0.0,0.0,0.0,0.0,0.0,0.0,0.0,1.2812,1.339,1.2878,0.0,1.29,1.29,1.29,1.3031,0.0,0.0,0.0,0.0,0.0,1.4396,1.4396,1.4394,1.4305,0.0,0.0,0.0,0.0,0.0,0.0,0.0,0.0,0.0,0.0,0.0,0.0,0.0,0.0,0.0,0.0,1.6908,1.6569,1.5815,1.5197,1.4869,1.4869,1.3962,1.3499,1.3499,1.2684,1.2305,1.2305,1.2378,1.2423,0.0,0.0,0.0,1.3213,1.3487,1.3754,1.3988,1.4062,1.3659,1.303,1.303,1.2427,1.1628,0.0,0.0,0.0,0.0,0.0,0.0,0.0,0.0,0.0,0.0,0.0,0.0,0.0,0.0,0.0,0.0,0.0,0.0,0.0,0.0,0.0,0.0,0.0,0.0,0.0,0.8394,0.8473,0.863,0.863,0.863,0.8622,0.8473,0.8394,0.8394,0.8394,0.8537,0.8773,0.8834,0.9019,0.9292,0.9815,0.0,0.0,0.0,0.0,0.0,1.14,1.1494,0.0,1.1494,1.1494,1.1494,0.0,0.0,0.0,0.0,1.3226,1.3958,1.3674,1.3248,1.29,1.29,1.3085,1.3346,0.0,0.0,0.0,0.0,0.0,0.0,1.4396,0.0,0.0,0.0,0.0,0.0,0.0,0.0,0.0,0.0,0.0,0.0,0.0,0.0,0.0,0.0,0.0,0.0,0.0,1.6665,1.614,1.5277,1.4591,1.4196,1.4106,1.3328,1.2952,1.2934,1.2519,1.2305,1.2305,1.2305,1.2305,0.0,0.0,0.0,1.3039,1.33,1.36,1.3832,1.3558,1.3158,1.2662,1.2229,1.1451,1.0657,0.0,0.0,0.0,0.0,0.0,0.0,0.0,0.0,0.0,0.0,0.0,0.0,0.0,0.0,0.0,0.0,0.0,0.0,0.0,0.0,0.0,0.0,0.0,0.0,0.8394,0.8394,0.8545,0.8826,0.8874,0.8905,0.8897,0.8606,0.847,0.8445,0.8496,0.8761,0.9157,0.8987,0.9282,0.9914,1.0244,0.0,0.0,0.0,0.0,0.0,0.0,0.0,0.0,1.1494,1.1494,1.1494,1.1494,0.0,0.0,0.0,0.0,0.0,1.4396,1.3783,1.3128,1.3128,1.3466,1.3805,0.0,0.0,0.0,0.0,0.0,0.0,0.0,0.0,0.0,0.0,0.0,0.0,0.0,0.0,0.0,0.0,0.0,0.0,0.0,0.0,0.0,0.0,0.0,0.0,0.0,1.6377,1.5621,1.452,1.4042,1.3651,1.3317,1.2647,1.2305,1.2305,1.2305,1.2305,1.2305,1.2305,1.2305,1.2305,0.0,0.0,1.2878,1.3153,1.3346,1.3419,1.2895,1.2507,1.2186,1.1392,1.0506,0.9707,0.0,0.0,0.0,0.0,0.0,0.0,0.0,0.0,0.0,0.0,0.0,0.0,0.0,0.0,0.0,0.0,0.0,0.0,0.0,0.0,0.0,0.0,0.0,0.8394,0.8394,0.8394,0.8425,0.8473,0.8754,0.8905,0.8905,0.885,0.8757,0.8663,0.8955,0.9056,0.9066,0.9646,0.9864,0.9874,1.0534,0.0,0.0,0.0,0.0,0.0,0.0,0.0,0.0,1.1494,1.1494,1.1494,1.1494,0.0,0.0,0.0,0.0,0.0,1.4396,1.4287,1.4166,1.4166,1.4221,1.4286,0.0,0.0,0.0,0.0,0.0,0.0,0.0,0.0,0.0,0.0,0.0,0.0,0.0,0.0,0.0,0.0,0.0,0.0,0.0,0.0,0.0,0.0,0.0,0.0,0.0,1.6306,1.5551,1.397,1.3851,1.3379,1.2482,1.2353,1.2305,1.2305,1.2305,1.2305,1.2305,1.2305,1.2305,1.2318,0.0,1.2872,1.316,1.3433,1.3266,1.2841,1.2735,1.1736,1.0311,1.0159,0.9559,0.8806,0.0,0.0,0.0,0.0,0.0,0.0,0.0,0.0,0.0,0.0,0.0,0.0,0.0,0.0,0.0,0.0,0.0,0.0,0.0,0.0,0.0,0.0,0.8497,0.8394,0.8394,0.8574,0.867,0.867,0.9152,0.9277,0.9063,0.8986,0.8919,0.8866,0.9026,0.9317,0.9715,0.9873,1.0244,1.0725,0.0,0.0,0.0,0.0,0.0,0.0,0.0,0.0,0.0,0.0,1.1494,1.1538,1.1798,0.0,0.0,0.0,0.0,0.0,1.4396,1.4396,1.4396,1.4396,1.4396,0.0,0.0,0.0,0.0,0.0,0.0,0.0,0.0,0.0,0.0,0.0,0.0,0.0,0.0,0.0,0.0,0.0,0.0,0.0,0.0,0.0,0.0,0.0,0.0,0.0,0.0,0.0,1.476,1.3995,1.3542,1.3039,1.247,1.236,1.2305,1.2305,1.2305,1.2305,1.2305,1.2305,1.2392,1.2589,0.0,1.2939,1.318,1.2859,1.2569,1.2229,1.1287,1.0392,0.9573,0.9183,0.8776,0.8452,0.0,0.0,0.0,0.0,0.0,0.0,0.0,0.0,0.0,0.0,0.0,0.0,0.0,0.0,0.0,0.0,0.0,0.0,0.0,0.0,0.8513,0.877,0.8579,0.8517,0.8632,0.8867,0.9033,0.9113,0.9717,0.9803,0.9407,0.9209,0.9101,0.9076,0.9237,0.9665,1.0254,1.0128,1.0581,1.1362,0.0,0.0,0.0,0.0,0.0,0.0,0.0,0.0,0.0,0.0,0.0,0.0,0.0,0.0,0.0,1.339,1.3925,1.4396,1.4396,1.4396,1.4396,1.4396,0.0,0.0,0.0,0.0,0.0,0.0,0.0,0.0,0.0,0.0,0.0,0.0,0.0,0.0,0.0,0.0,0.0,0.0,0.0,0.0,0.0,0.0,0.0,0.0,0.0,0.0,0.0,0.0,1.4129,1.3894,1.3295,1.2845,1.2599,1.2452,1.236,1.2305,1.2305,1.2305,1.2305,1.2305,1.2444,1.2683,1.2683,1.2832,1.3041,1.2213,1.1808,1.1516,0.9994,0.9268,0.901,0.8493,0.8292,0.8338,0.0,0.0,0.0,0.0,0.0,0.0,0.0,0.0,0.0,0.0,0.0,0.0,0.0,0.0,0.0,0.0,0.0,0.0,0.0,0.0,0.8409,0.8433,0.8588,0.8881,0.9322,0.9283,0.9421,0.9734,1.0342,1.0428,1.003,0.9642,0.9391,0.9309,0.9932,1.0176,1.0147,1.0687,1.0962,1.1028,1.1009,0.0,0.0,0.0,0.0,0.0,0.0,0.0,0.0,0.0,0.0,0.0,0.0,0.0,1.2911,1.2944,1.3641,1.4396,1.4396,1.4396,1.4396,1.4396,0.0,0.0,0.0,0.0,0.0,0.0,0.0,0.0,0.0,0.0,0.0,0.0,0.0,0.0,0.0,0.0,0.0,0.0,0.0,0.0,0.0,0.0,0.0,0.0,0.0,0.0,0.0,0.0,0.0,1.3284,1.3211,1.2991,1.2599,1.2599,1.2489,1.2305,1.2305,1.2305,1.2305,1.2305,1.2311,1.2338,1.2338,1.2524,1.276,1.1882,1.1201,1.0606,0.973,0.886,0.8115,0.824,0.8292,0.8338,0.0,0.0,0.0,0.0,0.0,0.0,0.0,0.0,0.0,0.0,0.0,0.0,0.0,0.0,0.0,0.0,0.0,0.0,0.0,0.0,0.8678,0.8895,0.889,0.918,0.9817,0.981,0.9976,1.0359,1.0499,1.046,1.0222,0.9816,0.9598,0.9565,0.9822,1.0108,1.0428,1.0649,1.0974,1.1305,1.1305,1.139,0.0,0.0,0.0,0.0,0.0,0.0,0.0,0.0,1.1494,1.1592,1.2192,1.2617,1.302,1.3641,1.41,1.4396,1.4396,1.4396,1.4396,1.4396,0.0,0.0,0.0,0.0,0.0,0.0,0.0,0.0,0.0,0.0,0.0,0.0,0.0,0.0,0.0,0.0,0.0,0.0,0.0,0.0,0.0,0.0,0.0,0.0,0.0,0.0,0.0,1.4204,1.3622,1.3382,1.3273,1.3065,1.279,1.2654,1.2507,1.2305,1.2305,1.2305,1.2305,1.2305,1.2405,1.2579,1.2043,1.1872,1.1889,1.0567,0.9775,0.934,0.8539,0.7994,0.7707,0.791,0.8049,0.8146,0.0,0.0,0.0,0.0,0.0,0.0,0.0,0.0,0.0,0.0,0.0,0.0,0.0,0.0,0.0,0.0,0.0,0.0,0.0,0.8683,0.8893,0.9121,0.9112,0.939,1.0027,1.0246,1.051,1.0834,1.0685,1.0512,1.0292,0.9886,0.9703,0.9703,0.9793,1.0108,1.0611,1.0687,1.1031,1.1494,1.1494,1.1494,0.0,0.0,0.0,0.0,0.0,0.0,0.0,0.0,1.1614,1.1636,1.2431,1.278,1.3031,1.3729,1.4144,1.4396,1.4396,1.4396,1.4396,0.0,0.0,0.0,0.0,0.0,0.0,0.0,0.0,0.0,0.0,0.0,0.0,0.0,0.0,0.0,0.0,0.0,0.0,0.0,0.0,0.0,0.0,0.0,0.0,0.0,0.0,0.0,0.0,1.376,1.3364,1.3492,1.3364,1.3174,1.29,1.2771,1.2562,1.2305,1.2305,1.2305,1.2305,1.2305,1.243,1.2586,1.1739,1.1377,1.1243,0.9645,0.871,0.8265,0.7714,0.7503,0.7532,0.7772,0.7902,0.7975,0.0,0.0,0.0,0.0,0.0,0.0,0.0,0.0,0.0,0.0,0.0,0.0,0.0,0.0,0.0,0.0,0.0,0.0,0.0,0.8895,0.8996,0.8996,0.9198,0.9485,0.9892,1.0547,1.0956,1.1101,1.0976,1.0688,1.0283,0.9886,0.0,0.0,0.9981,1.0283,1.0621,1.0886,1.1189,1.1494,1.1494,1.1494,1.1494,0.0,0.0,0.0,0.0,0.0,0.0,0.0,1.1885,1.1591,1.207,1.2529,1.2911,1.29,1.3619,1.4396,1.4396,1.4396,0.0,0.0,0.0,0.0,0.0,0.0,0.0,0.0,0.0,0.0,0.0,0.0,0.0,0.0,0.0,0.0,0.0,0.0,0.0,0.0,0.0,0.0,0.0,0.0,0.0,0.0,0.0,0.0,0.0,1.3887,1.3484,1.3492,1.3492,1.3309,1.2918,1.29,1.2691,1.2305,1.2305,1.2305,1.2305,1.2305,1.2305,1.2243,1.1446,1.1074,1.0943,0.9339,0.8227,0.7503,0.7503,0.7503,0.7544,0.7878,0.7902,0.7877,0.0,0.0,0.0,0.0,0.0,0.0,0.0,0.0,0.0,0.0,0.0,0.0,0.0,0.0,0.0,0.0,0.0,0.0,0.0,0.9098,0.9218,0.9218,0.9456,0.9639,0.9757,1.0232,1.0646,1.0958,1.0921,1.055,0.9877,0.0,0.0,0.999,0.0,0.0,1.0897,1.0972,1.1189,1.1494,1.1494,1.1494,1.1494,0.0,0.0,0.0,0.0,0.0,0.0,0.0,0.0,0.0,1.2986,1.3357,1.3532,1.386,1.4177,1.4396,1.4396,0.0,0.0,0.0,0.0,0.0,0.0,0.0,0.0,0.0,0.0,0.0,0.0,0.0,0.0,0.0,0.0,0.0,0.0,0.0,0.0,0.0,0.0,0.0,0.0,0.0,0.0,0.0,0.0,0.0,0.0,1.2925,1.2896,1.3148,1.3155,1.3132,1.3119,1.2973,1.2764,1.2507,1.2378,1.2305,1.2305,1.2305,1.1984,1.1409,1.0614,0.9938,0.9339,0.8284,0.7714,0.7503,0.7503,0.7503,0.7515,0.7621,0.7711,0.7824,0.0,0.0,0.0,0.0,0.0,0.0,0.0,0.0,0.0,0.0,0.8519,0.86,0.0,0.0,0.0,0.0,0.0,0.0,0.9118,0.9337,0.9457,0.9457,0.9614,0.9776,0.9932,1.0182,1.0465,1.0815,1.0705,1.0392,0.0,0.0,1.0166,1.0303,0.0,1.0745,1.1,1.1,1.1189,1.1526,1.17,1.1776,1.1798,0.0,0.0,0.0,0.0,0.0,0.0,0.0,0.0,0.0,1.3445,0.0,0.0,1.4035,1.4242,1.4396,1.4396,0.0,0.0,0.0,0.0,0.0,0.0,0.0,0.0,0.0,0.0,0.0,0.0,0.0,0.0,0.0,0.0,0.0,0.0,0.0,0.0,0.0,0.0,0.0,0.0,0.0,0.0,0.0,0.0,0.0,0.0,1.2502,1.2655,1.2994,1.2921,1.2949,1.3083,1.2881,1.2673,1.2489,1.236,1.2305,1.2305,1.2305,1.1855,1.1037,0.99,0.896,0.8189,0.7691,0.7503,0.7503,0.7503,0.7503,0.7511,0.7585,0.7638,0.771,0.0,0.0,0.8394,0.8394,0.0,0.0,0.0,0.0,0.0,0.0,0.8716,0.8805,0.0,0.0,0.0,0.9056,0.9228,0.9329,0.9329,0.9565,0.9703,0.9703,0.9703,0.9868,1.0246,1.0267,1.0404,1.0654,1.0441,0.0,0.0,0.0,1.0341,1.064,0.0,1.0821,1.1047,1.1047,1.125,1.1602,1.2026,1.2232,1.231,1.2747,0.0,0.0,0.0,0.0,0.0,0.0,0.0,0.0,1.3598,1.375,1.375,1.375,1.4079,1.4396,0.0,0.0,0.0,0.0,0.0,0.0,0.0,0.0,0.0,0.0,0.0,0.0,0.0,0.0,0.0,0.0,0.0,0.0,0.0,0.0,0.0,0.0,0.0,0.0,0.0,0.0,0.0,0.0,0.0,0.0,0.0,1.2414,1.2567,1.2896,1.2722,1.271,1.2887,1.2686,1.2498,1.2342,1.2305,1.2261,1.2194,1.2194,1.1706,1.0794,0.9263,0.8169,0.7503,0.7503,0.7503,0.7503,0.7503,0.7503,0.7524,0.771,0.7646,0.7548,0.0,0.0,0.8394,0.8394,0.0,0.0,0.0,0.0,0.0,0.0,0.0,0.0,0.0,0.0,0.0,0.9534,0.9584,0.9614,0.9614,0.9673,0.9703,0.9703,0.9703,0.9739,0.9822,1.0043,1.0173,1.0223,1.0487,0.0,0.0,0.0,0.0,1.0924,0.0,1.1343,1.139,1.139,1.1643,1.2059,1.2157,1.242,1.2758,1.2867,1.29,0.0,0.0,0.0,0.0,0.0,0.0,0.0,1.41,1.4254,1.4254,1.4254,1.432,1.4396,0.0,0.0,0.0,0.0,0.0,0.0,0.0,0.0,0.0,0.0,0.0,0.0,0.0,0.0,0.0,0.0,0.0,0.0,0.0,0.0,0.0,0.0,0.0,0.0,0.0,0.0,0.0,0.0,0.0,0.0,1.1795,1.1788,1.1911,1.2217,1.2174,1.2332,1.2742,1.2536,1.2475,0.0,1.2378,1.1966,1.1353,1.1353,1.0563,0.9169,0.8184,0.7653,0.7503,0.7503,0.7503,0.7503,0.7503,0.7503,0.7507,0.7548,0.7536,0.7511,0.0,0.0,0.0,0.0,0.0,0.0,0.0,0.0,0.0,0.0,0.0,0.0,0.0,0.9299,0.0,0.0,0.9515,0.9565,0.9693,0.9703,0.9703,0.9703,0.9822,0.9892,0.9892,1.0196,1.0409,0.0,0.0,0.0,0.0,0.0,0.0,1.1577,0.0,1.1962,1.2169,1.1929,1.2113,1.254,1.254,1.2834,1.3314,1.3532,1.3619,1.3619,1.3619,0.0,0.0,0.0,0.0,0.0,0.0,0.0,1.4396,1.4396,1.4396,1.4396,0.0,0.0,0.0,0.0,0.0,0.0,0.0,0.0,0.0,0.0,0.0,0.0,0.0,0.0,0.0,0.0,0.0,0.0,0.0,0.0,0.0,0.0,0.0,0.0,0.0,0.0,0.0,0.0,0.0,1.1752,1.1614,1.1591,1.1722,1.1989,1.1938,1.2109,1.2554,1.236,1.2316,1.2452,1.236,1.1682,1.0501,1.0132,0.949,0.8665,0.7844,0.7503,0.7503,0.7503,0.7503,0.7503,0.7503,0.7503,0.7503,0.7503,0.7503,0.7503,0.0,0.0,0.0,0.0,0.0,0.0,0.0,0.0,0.0,0.0,0.0,0.0,0.0,0.9299,0.9319,0.0,0.0,0.0,0.9753,0.9822,0.9832,0.9773,1.0039,1.0186,1.0186,1.0495,1.0783,0.0,0.0,0.0,0.0,0.0,0.0,1.2201,0.0,1.254,1.2868,1.2485,1.2594,1.3031,1.3031,1.3357,1.386,1.4242,1.4396,1.4396,1.4396,1.4396,1.4396,1.4396,0.0,0.0,0.0,0.0,1.4396,1.4396,1.4396,1.4396,0.0,0.0,0.0,0.0,0.0,0.0,0.0,0.0,0.0,0.0,0.0,0.0,0.0,0.0,0.0,0.0,0.0,0.0,0.0,0.0,0.0,0.0,0.0,0.0,0.0,0.0,0.0,0.0,0.0,1.1591,1.1591,1.1591,1.17,1.1924,1.1826,1.1943,1.2287,1.2095,1.2052,1.2187,1.1942,1.1144,0.9876,0.8922,0.8494,0.8456,0.7787,0.7503,0.7503,0.7503,0.7503,0.7503,0.7503,0.7503,0.7503,0.7503,0.7503,0.7503,0.0,0.0,0.0,0.0,0.0,0.0,0.0,0.0,0.0,0.0,0.8926,0.9106,0.9279,0.9299,0.9388,0.9624,0.9644,0.9763,1.003,0.0,0.0,1.0059,1.0361,1.0534,1.0534,1.0801,1.0962,0.0,0.0,0.0,0.0,0.0,0.0,1.2212,0.0,0.0,1.29,1.2835,1.3107,1.3587,1.3587,1.3882,1.4308,1.4385,1.4396,1.4396,0.0,0.0,0.0,1.4396,1.4396,0.0,0.0,0.0,1.4396,1.4396,1.4396,0.0,0.0,0.0,0.0,0.0,0.0,0.0,0.0,0.0,0.0,0.0,0.0,0.0,0.0,0.0,0.0,0.0,0.0,0.0,0.0,0.0,0.0,0.0,0.0,0.0,0.0,0.0,0.0,0.0,1.1752,1.1591,1.1591,1.1591,1.1613,1.1657,1.1642,1.1706,1.1888,1.169,1.166,1.1757,1.048,0.988,0.9857,0.8351,0.7653,0.7653,0.7542,0.7503,0.7503,0.7503,0.7503,0.7503,0.7503,0.7503,0.7503,0.7503,0.7503,0.7503,0.0,0.0,0.0,0.0,0.0,0.0,0.0,0.0,0.0,0.0,0.0,0.9376,0.9309,0.946,0.9548,0.9487,0.9813,1.0137,1.037,1.0515,1.0534,1.039,1.0668,1.082,1.082,1.1125,0.0,0.0,0.0,0.0,0.0,1.2778,1.3041,0.0,0.0,0.0,0.0,0.0,1.3641,1.4068,1.3805,1.398,1.4396,1.4396,1.4396,0.0,0.0,0.0,0.0,0.0,0.0,1.4396,1.4396,0.0,0.0,0.0,0.0,0.0,0.0,0.0,0.0,0.0,0.0,0.0,0.0,0.0,0.0,0.0,0.0,0.0,0.0,0.0,0.0,0.0,0.0,0.0,0.0,0.0,0.0,0.0,0.0,0.0,0.0,0.0,0.0,0.0,1.1672,1.1591,1.1591,1.1591,1.1591,1.1591,1.1498,1.1508,1.1628,1.1432,1.1212,1.0953,0.9868,0.9195,0.8909,0.7749,0.7312,0.7503,0.7503,0.7503,0.7503,0.7503,0.7503,0.7503,0.7503,0.7503,0.7503,0.7503,0.7503,0.7503,0.0,0.0,0.0,0.0,0.0,0.0,0.0,0.0,0.0,0.0,0.0,0.9754,0.9576,0.0,0.0,0.0,1.0098,1.0448,1.0592,1.0736,1.0783,1.0706,1.0973,1.1133,1.1133,0.0,0.0,0.0,0.0,0.0,1.2604,1.3346,1.375,0.0,1.3882,0.0,0.0,0.0,0.0,0.0,0.0,1.409,0.0,0.0,0.0,0.0,0.0,0.0,0.0,0.0,0.0,0.0,0.0,0.0,0.0,0.0,0.0,0.0,0.0,0.0,0.0,0.0,0.0,0.0,0.0,0.0,0.0,0.0,0.0,0.0,0.0,0.0,0.0,0.0,0.0,0.0,0.0,0.0,0.0,0.0,0.0,0.0,0.0,0.0,0.0,0.0,1.1591,1.1591,1.1591,1.1591,1.1591,1.1591,1.1404,1.1354,1.1444,1.1217,1.0834,1.0298,0.9478,0.8781,0.8173,0.7362,0.7135,0.7369,0.7418,0.7419,0.7419,0.7483,0.7503,0.7503,0.7503,0.7503,0.7503,0.7503,0.7503,0.7503,0.0,0.0,0.0,0.0,0.0,0.0,0.0,0.0,0.0,0.0,0.0,1.0181,1.0234,1.0665,1.0834,1.0555,1.0563,1.0592,1.0602,1.1146,1.1305,1.099,1.1305,0.0,0.0,0.0,0.0,0.0,0.0,0.0,1.3619,1.3685,1.3936,1.4363,1.4363,1.4385,1.4396,0.0,0.0,0.0,0.0,1.4385,0.0,0.0,0.0,0.0,0.0,0.0,0.0,0.0,0.0,0.0,0.0,0.0,0.0,0.0,0.0,0.0,0.0,0.0,0.0,0.0,0.0,0.0,0.0,0.0,0.0,0.0,0.0,0.0,0.0,0.0,0.0,0.0,0.0,0.0,0.0,0.0,0.0,0.0,0.0,0.0,0.0,0.0,0.0,0.0,1.1591,1.1591,1.1591,1.1591,1.1591,1.1591,1.1404,1.1294,1.1316,1.0985,1.0554,1.0007,0.9203,0.8596,0.8173,0.7362,0.7018,0.7029,0.7163,0.7222,0.7234,0.7415,0.7503,0.7503,0.7503,0.7503,0.7503,0.7503,0.7503,0.7503,0.0,0.0,0.0,0.0,0.0,0.0,0.0,0.0,0.0,0.0,0.0,0.0,0.0,1.0954,1.1003,1.0693,1.0782,1.0944,1.1154,1.1382,1.1457,1.1323,1.1448,0.0,0.0,0.0,0.0,0.0,0.0,1.3357,1.3718,1.4002,1.4243,1.4396,1.4396,1.4396,1.4396,1.4396,0.0,0.0,1.4396,1.4396,0.0,0.0,0.0,0.0,0.0,0.0,0.0,0.0,0.0,0.0,0.0,0.0,0.0,0.0,0.0,0.0,0.0,0.0,0.0,0.0,0.0,0.0,0.0,0.0,0.0,0.0,0.0,0.0,0.0,0.0,0.0,0.0,0.0,0.0,0.0,0.0,0.0,0.0,0.0,0.0,0.0,0.0,0.0,0.0,0.0,1.1591,1.1591,1.1591,1.1544,1.1412,1.1247,1.1075,1.0854,1.0728,1.0123,0.9039,0.875,0.8056,0.703,0.6742,0.6611,0.6619,0.6798,0.7009,0.721,0.7274,0.7382,0.7503,0.7503,0.7503,0.7503,0.7503,0.7503,0.7503,0.0,0.0,0.0,0.0,0.0,1.1139,0.0,0.0,0.0,0.0,0.0,0.0,0.0,0.0,1.1628,1.1111,1.1307,1.1511,1.1592,1.1827,1.1925,1.1807,1.1905,0.0,0.0,0.0,0.0,0.0,0.0,0.0,0.0,0.0,1.4396,1.4396,1.4396,1.4396,0.0,0.0,0.0,1.4396,0.0,0.0,1.4396,0.0,0.0,0.0,0.0,0.0,0.0,0.0,0.0,0.0,0.0,0.0,0.0,0.0,0.0,0.0,0.0,0.0,0.0,0.0,0.0,0.0,0.0,0.0,0.0,0.0,0.0,0.0,0.0,0.0,0.0,0.0,0.0,0.0,0.0,0.0,0.0,0.0,0.0,0.0,0.0,0.0,0.0,0.0,0.0,0.0,1.1591,1.1544,1.1388,1.1146,1.1043,1.087,1.0609,1.0349,0.9652,0.8506,0.828,0.7538,0.6404,0.6404,0.6404,0.6408,0.6542,0.6798,0.7139,0.7181,0.7326,0.7503,0.7503,0.7503,0.7503,0.7503,0.7503,0.7503,0.0,1.135,1.1651,1.2027,1.2061,1.2024,1.2003,0.0,0.0,0.0,0.0,0.0,0.0,0.0,0.0,1.1874,1.2169,1.2212,1.1824,1.2468,1.2721,1.2393,1.269,0.0,0.0,0.0,0.0,0.0,0.0,0.0,0.0,0.0,1.4396,0.0,1.4396,1.4396,1.4396,0.0,1.4396,1.4396,0.0,1.4396,1.4396,0.0,0.0,0.0,1.4396,1.4396,0.0,0.0,0.0,0.0,0.0,0.0,0.0,0.0,0.0,0.0,0.0,0.0,0.0,0.0,0.0,0.0,0.0,0.0,0.0,0.0,0.0,0.0,0.0,0.0,0.0,0.0,0.0,0.0,0.0,0.0,0.0,0.0,0.0,0.0,0.0,0.0,0.0,0.0,1.1591,1.1591,1.1591,1.1404,1.1146,1.0807,1.0807,1.0713,1.0577,0.9859,0.915,0.8458,0.7814,0.7118,0.6404,0.6404,0.6404,0.6404,0.6404,0.6619,0.6996,0.7143,0.7322,0.7503,0.7503,0.7503,0.7503,0.7503,0.7503,0.7503,1.1734,1.2118,1.2311,1.2132,1.2327,1.2388,1.1991,0.0,0.0,0.0,0.0,0.0,0.0,0.0,1.2437,1.1842,1.1899,1.1921,1.1812,1.1986,1.2061,1.1964,1.205,1.2244,0.0,0.0,0.0,0.0,0.0,0.0,0.0,0.0,0.0,0.0,1.4396,1.4396,1.4396,1.4396,0.0,0.0,1.4396,1.4396,0.0,0.0,0.0,0.0,0.0,1.4396,0.0,0.0,1.4396,1.4396,0.0,0.0,0.0,0.0,0.0,0.0,1.3552,0.0,0.0,0.0,0.0,0.0,1.3058,1.3331,0.0,0.0,0.0,0.0,0.0,0.0,0.0,0.0,0.0,0.0,0.0,0.0,0.0,0.0,0.0,0.0,0.0,0.0,0.0,0.0,1.1591,1.1591,1.1591,1.1326,1.1043,1.0807,1.0713,1.0374,0.9811,0.9598,0.8919,0.7782,0.7587,0.7118,0.6404,0.6404,0.6404,0.6404,0.6404,0.6546,0.68,0.6988,0.7226,0.7503,0.7503,0.7503,0.7503,0.7503,0.7503,0.7503,1.2043,1.2295,1.2382,1.2138,1.2421,1.2589,0.0,0.0,0.0,0.0,0.0,0.0,0.0,0.0,0.0,1.2184,1.2305,1.2374,1.2374,1.27,1.2812,1.2643,1.2801,1.2991,0.0,0.0,0.0,0.0,0.0,0.0,0.0,0.0,0.0,0.0,0.0,0.0,0.0,0.0,0.0,0.0,1.4396,0.0,0.0,1.4396,1.4396,0.0,0.0,0.0,1.4396,1.4396,1.4396,0.0,0.0,0.0,0.0,0.0,0.0,0.0,0.0,0.0,0.0,0.0,0.0,0.0,1.2736,1.3014,1.3358,0.0,0.0,0.0,0.0,0.0,0.0,0.0,0.0,0.0,0.0,0.0,0.0,0.0,0.0,0.0,0.0,1.1591,1.1591,1.1591,1.1591,1.1544,1.1404,1.1138,1.0902,1.0713,1.064,1.0253,0.9502,0.923,0.8549,0.7489,0.7183,0.6811,0.6404,0.6404,0.6404,0.6404,0.6404,0.6518,0.6709,0.6829,0.7068,0.7382,0.7475,0.7503,0.7503,0.7503,0.7503,0.7446,0.0,1.2101,1.2101,1.2101,1.2406,1.2627,0.0,0.0,0.0,0.0,0.0,0.0,0.0,0.0,0.0,0.0,1.2912,1.3086,1.3086,1.3752,1.3987,1.3621,1.3952,1.4186,1.4257,0.0,0.0,0.0,0.0,0.0,0.0,0.0,0.0,0.0,1.4396,1.4396,0.0,0.0,0.0,1.4396,1.4396,1.4396,0.0,0.0,1.4396,0.0,1.4462,1.4451,1.4396,1.4396,1.4396,0.0,0.0,0.0,0.0,0.0,1.4396,0.0,0.0,0.0,0.0,0.0,0.0,0.0,1.2237,1.2654,1.308,0.0,0.0,0.0,0.0,0.0,0.0,0.0,0.0,0.0,0.0,0.0,0.0,0.0,0.0,0.0,1.1591,1.1591,1.1591,1.1591,1.1576,1.1435,1.1122,1.0917,1.0744,1.0609,1.0523,1.0136,0.939,0.8732,0.8053,0.7379,0.6708,0.6404,0.6404,0.6404,0.6404,0.6404,0.6404,0.6497,0.6668,0.6693,0.6895,0.7222,0.7395,0.7483,0.7503,0.7503,0.7446,0.7249,1.2101,1.2101,1.2101,1.2101,1.2163,1.2212,0.0,0.0,0.0,0.0,0.0,0.0,0.0,0.0,0.0,0.0,1.2277,1.2314,1.2314,1.2461,1.251,1.2437,1.251,1.283,1.3421,1.3433,0.0,0.0,0.0,0.0,0.0,0.0,0.0,0.0,0.0,0.0,0.0,0.0,0.0,1.4396,1.4396,0.0,1.4396,1.4396,1.4396,1.4451,1.4833,1.4723,1.4396,0.0,1.4396,1.4396,0.0,0.0,0.0,0.0,0.0,0.0,0.0,0.0,0.0,0.0,0.0,0.0,1.2725,1.2842,1.3034,0.0,0.0,0.0,0.0,0.0,0.0,0.0,0.0,0.0,0.0,0.0,0.0,0.0,0.0,0.0,1.1591,1.1591,1.1591,1.1591,1.1451,1.1279,1.1106,1.0917,1.0744,1.0609,1.0025,0.939,0.87,0.8037,0.7326,0.6613,0.6465,0.6404,0.6404,0.6404,0.6404,0.6404,0.6404,0.6424,0.6468,0.6631,0.6903,0.721,0.7242,0.7362,0.7503,0.7503,0.7057,0.6433,1.2101,1.2101,1.2101,1.2101,0.0,0.0,0.0,0.0,0.0,0.0,0.0,0.0,0.0,0.0,0.0,0.0,0.0,0.0,0.0,0.0,1.2647,1.2647,1.2647,1.282,1.3194,1.3206,1.3503,0.0,0.0,0.0,0.0,0.0,0.0,0.0,0.0,0.0,0.0,0.0,1.4396,1.4396,1.4396,0.0,1.4429,1.4658,1.4756,1.481,1.5278,1.53,1.5093,1.5093,1.4941,0.0,0.0,1.4592,1.4396,0.0,1.4396,1.4373,0.0,0.0,0.0,1.3399,0.0,0.0,0.0,1.2749,1.2866,0.0,0.0,0.0,0.0,0.0,0.0,0.0,0.0,0.0,0.0,0.0,0.0,0.0,0.0,0.0,1.1591,1.1591,1.1591,1.1591,1.1357,1.1169,1.109,1.0846,1.0507,1.0072,0.97,0.9016,0.8004,0.7668,0.7134,0.6404,0.6404,0.6404,0.6404,0.6404,0.6404,0.6404,0.6404,0.6404,0.6408,0.6501,0.6717,0.6963,0.7137,0.7262,0.7366,0.7471,0.6957,0.6144,1.2101,1.2101,1.2101,1.2101,0.0,0.0,0.0,0.0,0.0,0.0,0.0,0.0,0.0,0.0,0.0,0.0,0.0,0.0,0.0,0.0,0.0,1.3206,1.3206,1.3242,1.3314,1.3314,1.3515,0.0,0.0,0.0,0.0,0.0,0.0,0.0,0.0,0.0,0.0,0.0,0.0,1.4527,0.0,1.4527,1.457,1.4952,1.5158,1.5289,1.5656,1.5865,1.5931,1.582,0.0,1.5234,1.5234,1.4974,0.0,0.0,0.0,0.0,0.0,0.0,0.0,0.0,0.0,1.2676,0.0,0.0,0.0,0.0,0.0,0.0,0.0,0.0,0.0,0.0,0.0,0.0,0.0,0.0,0.0,0.0,0.0,0.0,0.0,1.156,1.1544,1.1544,1.1232,1.1043,1.1043,1.076,1.0263,0.9518,0.9374,0.8732,0.7505,0.7363,0.6987,0.6404,0.6404,0.6404,0.6404,0.6404,0.6404,0.6404,0.6404,0.6404,0.6404,0.6404,0.6489,0.6676,0.6979,0.7125,0.7159,0.7192,0.6659,0.5797,1.2101,1.2101,1.2101,1.2101,0.0,0.0,0.0,0.0,0.0,0.0,0.0,0.0,0.0,0.0,0.0,0.0,0.0,0.0,1.2737,0.0,0.0,0.0,1.3206,1.3372,1.3716,1.3727,1.3928,1.4337,0.0,0.0,0.0,0.0,0.0,0.0,1.4396,0.0,0.0,0.0,1.4636,0.0,1.5028,1.5028,0.0,1.5083,1.5365,1.5722,1.5776,1.6073,1.6356,0.0,1.5754,1.5711,0.0,1.5678,0.0,0.0,0.0,0.0,0.0,0.0,0.0,0.0,1.289,0.0,0.0,0.0,0.0,0.0,0.0,0.0,0.0,0.0,0.0,0.0,0.0,0.0,0.0,0.0,0.0,0.0,0.0,0.0,0.0,1.1444,1.1334,1.1334,1.1021,1.0839,1.0839,1.0688,1.0263,0.9518,0.8925,0.8264,0.7505,0.686,0.6482,0.6404,0.6404,0.6404,0.6404,0.6404,0.6404,0.6404,0.6404,0.6404,0.6404,0.6404,0.6416,0.6452,0.6681,0.6873,0.6951,0.6375,0.5626,0.4779,1.2101,1.2101,1.2101,1.2101,0.0,0.0,0.0,0.0,0.0,0.0,0.0,0.0,0.0,0.0,0.0,0.0,0.0,1.2425,0.0,0.0,0.0,0.0,0.0,0.0,1.2815,1.2815,1.3009,1.3416,1.3416,0.0,0.0,0.0,0.0,0.0,1.4302,0.0,1.4418,0.0,0.0,0.0,0.0,0.0,0.0,1.5911,1.6227,1.6677,1.6677,1.6798,1.6929,0.0,1.6587,0.0,0.0,0.0,0.0,0.0,0.0,0.0,0.0,0.0,0.0,0.0,0.0,0.0,1.2893,0.0,1.2905,0.0,0.0,0.0,0.0,0.0,0.0,0.0,0.0,0.0,0.0,0.0,0.0,0.0,0.0,0.0,0.0,0.0,0.0,0.0,1.1059,1.0854,1.0965,1.0326,0.9636,0.8941,0.8264,0.7587,0.6872,0.6548,0.6404,0.6404,0.6404,0.6404,0.6404,0.6404,0.6404,0.6404,0.6404,0.6404,0.6404,0.6404,0.6404,0.6408,0.6497,0.6404,0.623,0.607,0.5218,0.4143,1.2101,0.0,0.0,0.0,0.0,0.0,0.0,0.0,0.0,0.0,0.0,0.0,1.2422,1.2689,0.0,0.0,0.0,1.2796,0.0,0.0,1.2625,0.0,0.0,0.0,0.0,1.2623,1.2703,1.2998,1.2883,0.0,0.0,0.0,0.0,0.0,0.0,1.4369,1.427,0.0,0.0,1.5318,1.5545,1.5922,1.6357,1.6613,1.695,1.7306,1.7306,1.7306,1.7306,1.7306,1.7203,0.0,1.6237,0.0,0.0,0.0,0.0,0.0,1.5782,0.0,0.0,0.0,0.0,0.0,0.0,0.0,0.0,0.0,0.0,0.0,0.0,0.0,0.0,0.0,0.0,0.0,0.0,0.0,0.0,0.0,0.0,0.0,0.0,0.0,0.0,0.0,0.0,1.0807,1.0956,1.0034,0.9198,0.8522,0.7847,0.715,0.6404,0.6404,0.6404,0.6404,0.6404,0.6404,0.6404,0.6404,0.6404,0.6404,0.6404,0.6404,0.6404,0.6404,0.6404,0.6404,0.6404,0.5971,0.5357,0.5509,0.4758,0.3664,1.2101,1.2101,0.0,0.0,0.0,0.0,0.0,0.0,0.0,0.0,0.0,0.0,0.0,0.0,0.0,0.0,0.0,1.3435,1.3825,0.0,1.3989,0.0,0.0,1.4334,0.0,1.3939,1.3756,1.3768,1.3368,0.0,0.0,0.0,0.0,0.0,0.0,1.4237,1.3887,1.4744,1.5363,1.5736,1.5365,1.5499,1.6026,0.0,1.7295,1.7306,1.7306,0.0,0.0,1.7306,1.7295,0.0,0.0,0.0,0.0,0.0,0.0,0.0,0.0,0.0,0.0,1.4611,0.0,0.0,0.0,0.0,1.3369,0.0,0.0,0.0,0.0,0.0,0.0,0.0,0.0,0.0,0.0,0.0,0.0,0.0,0.0,0.0,0.0,0.0,0.0,0.0,0.0,0.0,1.0624,0.9907,0.9198,0.8522,0.7847,0.715,0.6404,0.6404,0.6404,0.6404,0.6404,0.6404,0.6404,0.6404,0.6404,0.6404,0.6404,0.6404,0.6404,0.6404,0.6404,0.6404,0.6404,0.5598,0.4439,0.4442,0.4005,0.3327,0.0,0.0,0.0,0.0,0.0,0.0,0.0,1.2896,0.0,0.0,0.0,0.0,0.0,0.0,1.4378,0.0,0.0,1.4041,1.3914,1.3653,0.0,0.0,0.0,1.367,0.0,0.0,1.3472,1.3472,1.3334,0.0,0.0,0.0,0.0,0.0,0.0,1.4646,0.0,0.0,0.0,0.0,0.0,1.653,1.7232,0.0,0.0,1.7376,1.8009,1.8035,0.0,1.7391,1.7206,1.6951,1.6075,1.6289,1.6729,1.6038,1.5973,0.0,0.0,0.0,1.4743,1.4784,0.0,0.0,0.0,0.0,0.0,0.0,0.0,0.0,0.0,0.0,0.0,0.0,0.0,0.0,0.0,0.0,0.0,0.0,0.0,0.0,0.0,0.0,0.0,0.0,1.0713,0.0,0.0,0.9294,0.8538,0.7858,0.7146,0.6646,0.6404,0.6404,0.6404,0.6404,0.6404,0.6404,0.6404,0.6404,0.6404,0.6404,0.6404,0.6404,0.6404,0.6404,0.6404,0.635,0.5914,0.5163,0.4351,0.4441,0.3737,0.2714,1.2919,0.0,0.0,0.0,0.0,0.0,0.0,0.0,0.0,0.0,1.4245,0.0,1.4882,0.0,1.5212,0.0,1.4799,1.4607,1.4346,1.3947,0.0,1.3727,1.3727,0.0,0.0,0.0,1.352,1.352,0.0,1.3296,0.0,0.0,0.0,0.0,0.0,0.0,0.0,0.0,1.5528,0.0,0.0,1.6719,0.0,0.0,1.7358,1.7572,0.0,1.7934,1.7609,1.7173,1.6961,1.6726,1.5721,1.5917,1.64,1.573,1.5855,1.6204,1.6079,1.5652,0.0,1.5315,1.4948,0.0,1.4381,0.0,0.0,0.0,0.0,0.0,0.0,0.0,0.0,0.0,0.0,0.0,0.0,1.1145,0.0,0.0,0.0,0.0,0.0,0.0,0.0,1.0711,1.0534,0.0,0.0,0.0,0.8199,0.7521,0.6778,0.6404,0.6404,0.6404,0.6404,0.6404,0.6404,0.6404,0.6404,0.6404,0.6404,0.6404,0.6404,0.6404,0.6404,0.6404,0.6404,0.6334,0.5663,0.4948,0.4272,0.4097,0.3307,0.233,1.3337,0.0,0.0,0.0,1.3332,0.0,0.0,0.0,1.4108,0.0,1.4909,1.5313,1.5723,1.576,1.576,1.576,1.5386,0.0,1.5157,1.4775,0.0,0.0,1.4528,1.4519,1.45,0.0,0.0,0.0,0.0,0.0,0.0,0.0,0.0,0.0,1.424,0.0,1.3995,1.4858,1.546,1.5865,1.6242,1.6159,1.5887,1.6769,1.7425,1.7823,1.732,1.7112,1.7048,1.6617,1.6542,1.6476,1.564,1.5517,1.5609,1.5303,1.5215,1.5366,1.6079,1.5849,1.5541,1.6112,0.0,0.0,0.0,0.0,1.4697,0.0,0.0,0.0,0.0,0.0,0.0,0.0,0.0,0.0,0.0,0.0,0.0,0.0,0.0,0.0,0.0,0.0,0.9953,1.0527,1.0288,0.9911,0.0,0.0,0.8183,0.7472,0.6761,0.6404,0.6404,0.6404,0.6404,0.6404,0.6404,0.6404,0.6404,0.6404,0.6404,0.6404,0.6404,0.6404,0.6404,0.6404,0.6404,0.6334,0.563,0.4882,0.4104,0.3412,0.2759,0.2222,1.375,1.3983,1.4189,0.0,1.3937,1.3851,0.0,0.0,0.0,0.0,1.5744,1.6156,1.6551,1.6597,1.6597,1.6597,1.6213,0.0,0.0,0.0,0.0,1.4964,1.4955,1.4808,1.45,1.4405,0.0,1.435,0.0,0.0,1.4189,0.0,0.0,0.0,0.0,0.0,1.4407,1.5275,1.5851,1.6174,1.6276,1.6672,0.0,0.0,1.7282,1.7757,1.7708,1.7473,1.7059,1.6308,1.584,1.5527,1.5195,1.5147,1.5205,1.5328,1.5347,1.5391,1.5575,1.5526,1.5439,1.5589,1.5502,1.5366,0.0,0.0,0.0,0.0,0.0,0.0,0.0,0.0,0.0,0.0,0.0,0.0,0.0,0.0,0.0,0.9731,0.0,0.0,0.0,0.0,0.996,1.0205,1.0241,0.9812,0.0,0.0,0.0,0.6728,0.6498,0.6404,0.6404,0.6404,0.6404,0.6404,0.6404,0.6404,0.6404,0.6404,0.6404,0.6404,0.6404,0.6404,0.6404,0.6404,0.6404,0.6284,0.505,0.382,0.2718,0.2587,0.2422,0.2284,1.4157,0.0,0.0,1.4735,0.0,0.0,1.4735,0.0,0.0,1.5909,1.6305,0.0,1.6881,1.7064,1.7092,1.6927,1.6689,0.0,0.0,0.0,0.0,1.5368,1.5194,1.5001,1.4772,1.4583,0.0,1.45,0.0,0.0,1.45,0.0,0.0,0.0,0.0,1.4749,0.0,1.5405,1.5967,1.6314,1.6488,0.0,0.0,1.7003,1.7089,1.7343,1.7235,1.7151,1.694,1.6097,1.586,1.5817,1.5394,1.5355,1.5505,1.5649,1.5557,1.5396,1.5396,1.5396,1.5396,1.5396,1.5396,1.5396,1.5396,1.5396,1.5342,0.0,0.0,0.0,0.0,0.0,0.0,0.0,0.0,0.0,0.0,0.0,0.0,0.0,0.0,0.0,0.0,0.965,0.9746,0.9911,0.9775,0.9272,0.0,0.0,0.0,0.6432,0.6481,0.6485,0.6404,0.6493,0.6493,0.6404,0.6404,0.6404,0.6404,0.6404,0.6404,0.6404,0.6404,0.6404,0.6404,0.6404,0.6404,0.6268,0.4851,0.3439,0.2203,0.2272,0.2283,0.2264,0.0,0.0,0.0,0.0,0.0,0.0,0.0,1.5588,0.0,1.6396,0.0,1.7,1.7047,1.7367,1.744,1.7101,0.0,1.6835,1.6479,1.6083,1.5826,1.5771,1.5441,1.523,1.5184,1.4775,0.0,0.0,0.0,0.0,0.0,0.0,0.0,0.0,0.0,0.0,0.0,1.546,1.601,0.0,1.6771,1.6908,1.6908,1.6908,1.6908,1.6845,1.6497,1.6595,1.675,1.5995,1.6172,1.6595,1.593,1.5923,1.6168,1.6168,1.5855,1.5498,1.5498,1.5459,1.5396,1.5396,1.5396,1.5396,1.5396,1.5396,1.5396,1.5396,1.5396,1.5278,0.0,0.0,0.0,0.0,0.0,0.0,0.0,0.0,0.0,0.0,0.0,0.0,0.0,0.0,0.9509,0.9693,0.9228,0.8658,0.0,0.0,0.0,0.6416,0.6574,0.6583,0.6404,0.0,0.6566,0.6404,0.6404,0.6404,0.6404,0.6404,0.6404,0.6404,0.6404,0.6404,0.6404,0.6404,0.6284,0.6004,0.4785,0.3445,0.2213,0.2267,0.2264,0.2232,0.0,0.0,0.0,0.0,0.0,1.6195,1.6525,1.636,1.6451,1.7193,1.7348,1.7523,1.7853,1.7953,1.7972,1.7899,1.7596,0.0,0.0,0.0,0.0,1.6204,1.6131,1.5929,1.5604,1.5194,1.5001,0.0,0.0,0.0,0.0,0.0,0.0,0.0,0.0,0.0,1.5515,1.5984,0.0,1.679,1.6863,1.6908,1.6908,1.6908,1.6908,1.6899,1.6826,1.6735,1.6581,1.6107,1.6114,1.6309,1.6319,1.6375,1.6454,1.6548,1.6299,1.5977,1.5977,1.5684,1.5396,1.5396,1.5396,1.5396,1.5396,1.5396,1.5396,1.5396,1.5396,1.5376,1.5312,0.0,0.0,0.0,0.0,0.0,0.0,0.0,0.0,0.0,0.0,0.0,0.0,0.0,0.0,0.9693,0.9307,0.8756,0.0,0.0,0.0,0.0,0.6432,0.0,0.0,0.0,0.6432,0.6404,0.6404,0.6404,0.6404,0.6404,0.6404,0.6404,0.6404,0.6404,0.6404,0.6404,0.5719,0.4636,0.4403,0.3436,0.2197,0.2218,0.2279,0.237,0.0,0.0,0.0,0.0,0.0,0.0,0.0,1.7495,0.0,1.7752,1.7798,1.788,1.8082,1.8292,1.8329,1.8118,1.8109,1.8036,1.7816,1.7624,1.734,1.6945,1.6717,0.0,1.6028,1.5615,1.5404,1.5404,0.0,0.0,0.0,0.0,0.0,0.0,0.0,1.5267,0.0,0.0,0.0,1.6908,1.6908,1.6908,1.6908,1.6908,1.6908,1.6908,1.6908,1.69,1.6855,1.6454,1.6609,1.6963,1.686,1.6883,1.699,1.7038,1.6758,1.6373,1.6153,1.5938,1.5693,1.5454,1.5396,1.5396,1.5396,1.5396,1.5396,1.5396,1.5396,1.5396,1.5396,1.5244,0.0,0.0,0.0,0.0,0.0,0.0,0.0,0.0,0.0,0.0,0.0,0.0,0.0,0.0,0.0,0.0,0.0,0.0,0.0,0.0,0.0,0.0,0.0,0.0,0.0,0.6404,0.6404,0.6404,0.6404,0.6404,0.6404,0.6404,0.6404,0.6404,0.6367,0.6033,0.5031,0.3735,0.3735,0.3107,0.2195,0.2245,0.231,0.2401,0.0,1.5907,0.0,0.0,1.7174,0.0,1.8549,1.8503,1.8357,1.8357,1.8283,1.8265,1.8347,1.8631,1.8695,1.8384,1.8567,1.8558,1.8247,1.8155,1.7917,1.7513,1.7193,1.6844,1.6433,1.6037,1.5826,0.0,0.0,0.0,0.0,0.0,0.0,0.0,0.0,0.0,0.0,0.0,1.6607,1.6908,1.6908,1.6908,1.6908,1.6908,1.6908,1.6908,1.6908,1.7038,1.7154,1.6871,1.7194,1.7648,1.7381,1.741,1.7536,1.7536,1.7207,1.6781,1.6451,1.6232,1.6007,1.5635,1.5464,1.5396,1.5396,1.5488,1.5527,1.5415,1.5396,1.5425,1.5527,1.5478,0.0,0.0,0.0,0.0,0.0,0.0,0.0,0.0,0.0,0.0,0.0,0.0,0.0,0.0,0.0,0.8354,0.7636,0.7239,0.6857,0.0,0.0,0.642,0.646,0.0,0.6562,0.6404,0.6404,0.6404,0.6404,0.6404,0.6404,0.6404,0.6404,0.6404,0.6354,0.5679,0.463,0.3418,0.3272,0.2807,0.2236,0.2295,0.2371,0.242,0.0,0.0,0.0,0.0,0.0,0.0,1.8677,1.899,1.9191,1.9191,1.888,1.8769,1.9155,1.9228,1.9228,1.9191,1.8898,1.8677,1.864,1.8302,1.7917,1.7513,1.7458,1.7257,1.6862,1.6442,1.6241,0.0,0.0,0.0,0.0,0.0,0.0,0.0,0.0,0.0,0.0,1.668,1.6872,1.6908,1.6908,1.6908,1.6908,1.6908,1.6908,1.6908,1.6908,1.7038,1.7218,1.7371,1.7543,1.7723,1.7874,1.7932,1.7932,1.7932,1.7646,1.7331,1.7292,1.6701,1.61,1.6061,1.5718,1.5396,1.5396,1.5737,1.5904,1.5498,1.5396,1.5527,1.5958,1.5698,1.5386,0.0,0.0,0.0,0.0,0.0,0.0,0.0,0.0,0.0,0.0,0.9361,0.0,0.0,0.8187,0.7824,0.7607,0.6883,0.6527,0.6664,0.0,0.6485,0.6668,0.6505,0.642,0.6404,0.6404,0.6404,0.6404,0.6404,0.6404,0.6404,0.6404,0.6404,0.6354,0.5679,0.4931,0.4128,0.353,0.2887,0.2297,0.2372,0.2431,0.2482,0.0,0.0,0.0,0.0,0.0,0.0,0.0,1.9201,1.9301,1.9301,1.9164,1.9127,1.9283,1.9301,1.9301,1.9301,1.9155,1.9063,1.9063,1.8916,1.8631,1.8238,1.7981,1.766,1.7266,1.6872,1.6653,0.0,0.0,0.0,0.0,0.0,0.0,0.0,0.0,1.6433,1.6662,1.6835,1.6908,1.6908,1.6908,1.6908,1.6908,1.6908,1.6968,1.7089,1.7089,1.721,1.74,1.7571,1.7664,1.775,1.794,1.7991,1.7991,1.7991,1.7891,1.7646,1.7113,1.6738,1.6338,1.5801,1.5537,1.5464,1.5757,1.5968,1.6124,1.6166,1.6171,1.6157,1.6105,1.5948,1.5609,0.0,0.0,0.0,0.0,0.0,0.0,0.0,0.0,0.0,0.0,0.0,0.0,0.0,0.0,0.7978,0.7272,0.702,0.6825,0.6701,0.0,0.6408,0.6697,0.6509,0.6404,0.6404,0.6404,0.6404,0.6404,0.6404,0.6404,0.6383,0.598,0.555,0.5087,0.4381,0.3672,0.3015,0.2736,0.2533,0.237,0.2393,0.2439,0.2491,1.8124,0.0,1.8402,0.0,1.8889,1.8981,1.9256,1.9301,1.9301,1.9301,1.9301,1.9301,1.9301,1.9301,1.9301,1.9301,1.9301,1.9301,1.9301,1.9301,1.9072,1.8549,1.8256,0.0,1.7504,1.711,1.6963,1.7082,1.6662,0.0,0.0,0.0,0.0,0.0,1.647,1.6625,1.6908,1.6908,1.6908,1.6908,1.6908,1.6908,1.6908,1.6908,1.702,1.7201,1.7201,1.7331,1.7522,1.7647,1.7706,1.775,1.794,1.7991,1.7991,1.7991,1.7991,1.7881,1.7259,1.6892,1.658,1.6113,1.5801,1.5713,1.6177,1.6373,1.6598,1.7005,1.6872,1.6654,1.6515,1.6271,1.5791,1.4825,0.0,0.0,0.0,0.0,0.0,0.0,1.0748,1.0616,1.0272,0.0,0.0,0.0,0.0,0.0,0.6968,0.6948,0.0,0.0,0.0,0.0,0.0,0.6505,0.6404,0.6404,0.6404,0.6404,0.6404,0.6404,0.6404,0.6367,0.5897,0.5282,0.4569,0.3852,0.3143,0.2508,0.2335,0.231,0.2402,0.2421,0.2454,0.2494,1.8604,1.8686,1.8815,1.9228,1.9292,1.9292,1.9301,1.9301,1.9301,1.9301,1.9301,1.9301,1.9301,1.9301,1.9301,1.9301,1.9301,1.9301,1.9301,1.9301,1.8934,0.0,0.0,1.7908,1.7504,1.711,1.7101,1.7486,0.0,0.0,1.6305,0.0,1.6506,1.6882,1.6882,1.6899,1.6908,1.6908,1.6908,1.6908,1.6908,1.6908,1.6908,1.6908,1.702,1.7201,1.7201,1.7331,1.7522,1.7647,1.7706,1.775,1.794,1.7991,1.7991,1.7991,1.7991,1.7991,1.7981,1.7366,1.682,1.7256,1.6731,1.6202,1.6605,1.7061,1.7507,1.791,1.7308,1.6849,1.7301,1.6682,1.5872,1.521,0.0,0.0,0.0,0.0,0.0,0.0,1.1085,1.0953,1.0623,0.0,0.0,0.0,0.0,0.0,0.0,0.0,0.0,0.6404,0.6404,0.0,0.6689,0.6505,0.6404,0.6404,0.6404,0.6404,0.6404,0.6404,0.6404,0.6404,0.6383,0.6017,0.5339,0.4654,0.3943,0.3231,0.2628,0.2399,0.2408,0.2468,0.249,0.2519,1.8087,1.7746,1.776,1.9076,1.8816,1.8607,1.9222,1.9301,1.9301,1.9301,1.9301,1.9301,1.9301,1.9301,1.9301,0.0,1.9301,1.9301,0.0,1.9301,1.9191,1.8935,1.865,1.8448,1.833,1.7917,1.7779,1.7908,0.0,0.0,0.0,1.7257,1.7193,1.7293,1.7027,1.6908,1.6908,1.6908,1.6908,1.6908,1.6908,1.6908,1.6908,1.6908,1.7116,1.7409,1.7409,1.7581,1.7854,1.7889,1.7896,1.7923,1.7974,1.7991,1.7991,1.7991,1.7991,1.7949,1.7666,1.7383,1.7139,1.6966,1.6713,1.6641,1.708,1.75,1.7852,1.7961,1.7776,1.7542,1.7429,1.6739,1.5778,1.4617,1.3706,0.0,0.0,0.0,0.0,0.0,1.1437,1.1305,0.0,1.1106,0.0,0.0,0.0,0.0,0.0,0.0,0.0,0.0,0.6464,0.0,0.6705,0.6509,0.6404,0.6404,0.6404,0.6404,0.6404,0.6404,0.6404,0.6354,0.5385,0.487,0.4617,0.3396,0.2824,0.266,0.2478,0.2425,0.2464,0.2483,0.2491,0.2494,1.7403,1.7066,1.7037,1.8118,1.7876,1.7695,1.8238,1.8318,1.8447,1.8776,1.8816,1.8935,1.9262,1.9301,0.0,1.9301,1.9301,1.9301,1.9301,1.9301,1.9237,1.9091,1.8824,1.8695,1.8695,1.8311,0.0,1.8329,1.8018,1.7944,1.8091,1.7697,1.7578,1.7697,1.7459,1.7275,1.7128,1.7128,1.7037,1.6908,1.6908,1.6908,1.6874,1.6586,1.6664,1.6951,1.702,1.7226,1.7535,1.7879,1.7991,1.7991,1.7991,1.7991,1.7991,1.7991,1.7991,1.7959,1.7686,1.7516,1.738,1.722,1.7074,1.7074,1.7519,1.7822,1.7991,1.7991,1.7991,1.7913,1.7666,1.708,1.6193,1.4775,1.3903,1.3012,1.1908,0.0,0.0,0.0,0.0,0.0,0.0,1.1474,1.103,0.0,0.0,0.0,0.0,0.0,0.0,0.651,0.644,0.0,0.6591,0.646,0.6404,0.6404,0.6404,0.6404,0.6404,0.6404,0.6404,0.6338,0.5209,0.46,0.4318,0.3165,0.2573,0.2402,0.2425,0.2458,0.2491,0.2491,0.2491,0.2516,1.6617,1.6555,1.6555,0.0,1.6657,0.0,1.6698,1.6698,1.6984,1.7796,1.7917,1.8238,1.9114,1.9222,1.9242,1.9301,0.0,0.0,0.0,1.9301,1.9136,1.875,1.8732,1.8732,1.8732,1.8375,1.8366,1.8732,1.7963,1.7798,1.8182,1.777,1.7789,1.8146,1.8082,1.7844,1.7495,1.7468,1.7203,1.6812,1.6812,1.6778,1.6673,1.5974,1.5798,1.5956,1.6149,1.635,1.6654,1.7545,1.7837,1.7854,1.7906,1.7923,1.794,1.7974,1.7991,1.7991,1.7991,1.7725,1.7536,1.791,1.7715,1.7546,1.792,1.7991,1.7991,1.7991,1.7957,1.794,1.7991,1.7568,1.6781,1.5503,1.4556,1.3515,1.2198,0.0,0.0,0.0,0.0,0.0,0.0,1.1544,1.142,0.0,0.0,0.0,0.0,0.0,0.658,0.6224,0.6331,0.6404,0.6404,0.6404,0.6404,0.6404,0.6428,0.6432,0.642,0.6432,0.644,0.6398,0.5662,0.5001,0.4369,0.3702,0.3025,0.2413,0.2468,0.2491,0.2491,0.2491,0.2491,0.2526,0.0,0.0,1.5151,1.6473,1.6144,1.5925,1.6596,1.6698,1.678,1.6984,1.7005,1.7342,1.8198,1.8307,1.8587,1.9242,1.9301,1.9301,1.9301,1.9301,1.9256,1.9164,1.9164,1.9164,1.9164,1.9072,1.9063,1.9164,1.8669,1.8632,1.9017,1.8595,1.8457,1.8531,1.7926,1.7587,1.7477,1.7174,1.6667,1.6061,1.6061,1.5683,1.5126,1.4948,1.5002,1.5188,1.5391,1.5595,1.5807,1.6132,1.6237,1.6341,1.6975,1.7165,1.7278,1.7828,1.7991,1.7991,1.7991,1.7939,1.7881,1.7988,1.7939,1.7874,1.7988,1.7991,1.7991,1.7991,1.7545,1.7329,1.7906,1.6496,1.5271,1.5291,1.3937,1.2671,1.2081,1.1765,0.0,0.0,1.1591,1.1591,1.1591,1.109,1.0494,0.0,0.0,0.0,0.0,0.7117,0.6854,0.6363,0.6379,0.6404,0.6404,0.6404,0.6404,0.6408,0.6713,0.6788,0.6636,0.6796,0.6861,0.6774,0.5385,0.472,0.4517,0.3212,0.2581,0.2471,0.2485,0.2491,0.2491,0.2491,0.2491,0.2515,1.4803,1.4412,1.4391,1.5352,1.5131,1.4964,1.5436,1.5519,1.5656,1.6049,1.6103,1.6432,1.731,1.7755,1.8178,1.8667,1.9074,1.9301,1.9301,1.9301,1.9301,1.9301,1.9301,1.9301,1.9301,1.9301,1.9301,1.9301,1.8907,1.8916,1.9292,1.8898,1.8594,1.8358,1.7913,1.7412,1.6845,1.6494,1.601,1.5473,1.5307,1.4984,1.4565,1.4232,1.4214,1.442,1.4581,1.4778,1.5028,1.5534,1.571,1.5781,1.621,1.6466,1.6732,1.7534,1.7879,1.7991,1.7991,1.7991,1.7954,1.7765,1.7868,1.8,1.8,1.7885,1.777,1.777,1.7009,1.6463,1.6872,1.5939,1.5078,1.4985,1.4003,1.3057,1.2538,1.2072,0.0,1.2001,1.1883,1.1838,1.2001,1.1325,1.0653,1.0115,0.9259,0.0,0.7569,0.7403,0.7089,0.6554,0.6623,0.6627,0.6546,0.6546,0.6587,0.6681,0.6898,0.6935,0.6841,0.6943,0.7006,0.6938,0.5755,0.5255,0.5215,0.4064,0.3384,0.3093,0.3093,0.286,0.2491,0.2491,0.2527,0.2556,1.4109,1.4109,1.4109,1.4109,1.4109,1.4109,1.4109,1.4109,1.4377,1.511,1.5193,1.5539,1.6412,1.7168,1.7654,1.7796,1.8607,1.9154,1.9301,1.9301,1.9301,1.9301,1.9301,1.9301,1.9301,1.9119,1.904,1.9094,1.8568,1.8518,1.8906,1.8554,1.8199,1.7796,1.7736,1.7103,1.6087,1.5797,1.5396,1.4958,1.4624,1.4428,1.4266,1.362,1.3488,1.3633,1.3831,1.4005,1.4266,1.5091,1.5399,1.5458,1.5565,1.5836,1.6286,1.7125,1.757,1.7866,1.8117,1.81,1.789,1.7405,1.756,1.7804,1.7804,1.7569,1.7379,1.7379,1.6438,1.5628,1.576,1.555,1.5197,1.4673,1.4227,1.3729,1.3089,0.0,1.2178,1.2472,1.2244,1.2186,1.2472,1.1672,1.1082,1.0916,0.9691,0.8797,0.8412,0.7856,0.7318,0.683,0.6944,0.6918,0.6754,0.6761,0.6852,0.7006,0.7045,0.7069,0.7069,0.7069,0.7086,0.7082,0.6341,0.5954,0.5814,0.523,0.4448,0.3636,0.3753,0.3267,0.2525,0.2534,0.2565,0.2609,1.4109,1.4109,1.4109,1.4109,1.4109,1.4109,1.4109,1.4109,1.4152,1.4271,1.4292,1.4636,1.5519,1.5718,1.6111,1.6841,1.7695,1.8507,1.9262,1.9301,1.9301,1.9301,1.9301,1.9301,1.9301,1.825,1.7867,1.8198,1.7055,1.6705,1.7098,1.705,1.6968,1.6887,1.6557,1.6297,1.6087,1.5685,1.5092,1.44,1.4114,1.364,1.307,1.2956,1.2855,1.2829,1.3262,1.3396,1.3411,1.3739,1.4035,1.4373,1.4999,1.5423,1.5845,1.6602,1.6868,1.7225,1.8702,1.8556,1.7807,1.7016,1.686,1.6894,1.6894,1.6852,1.6809,1.6809,1.5953,1.5377,1.6007,1.4878,1.4003,1.452,1.3803,1.3124,1.3026,0.0,1.2451,1.2485,1.2441,1.2451,1.2485,1.1256,1.044,1.0414,0.9063,0.8154,0.7914,0.7816,0.764,0.7377,0.7125,0.6993,0.6947,0.7066,0.7082,0.701,0.7294,0.7418,0.7418,0.7418,0.7522,0.7626,0.6602,0.5781,0.5151,0.5035,0.4117,0.2848,0.3527,0.3308,0.2594,0.2644,0.2638,0.2609,1.4109,1.4109,1.4109,1.4109,1.4109,1.4109,1.4109,1.4109,1.4109,1.4109,1.4109,1.425,1.4657,1.5131,1.556,1.5966,1.6801,1.7464,1.7876,1.8767,1.9301,1.9301,1.9301,1.9301,1.9301,1.7806,1.7346,1.7997,1.6944,1.6527,1.6698,1.6698,1.6453,1.6,1.5807,1.5461,1.4989,1.4489,1.4137,1.3893,1.3479,1.3185,1.3032,1.3142,1.3208,1.3296,1.3654,1.3722,1.3665,1.3941,1.4023,1.4087,1.4611,1.4987,1.5391,1.6189,1.6552,1.6884,1.7691,1.7458,1.6878,1.6489,1.6531,1.6697,1.6697,1.6561,1.6442,1.6442,1.5401,1.4617,1.4945,1.4176,1.3619,1.3941,1.3594,0.0,0.0,1.314,1.3111,1.3287,1.3309,1.3375,1.355,1.2016,1.101,1.101,0.9303,0.8217,0.8125,0.8014,0.7865,0.7673,0.7302,0.7161,0.7273,0.7232,0.7281,0.7429,0.7592,0.7699,0.7768,0.7768,0.7784,0.778,0.7361,0.6863,0.637,0.6536,0.585,0.4703,0.4678,0.4146,0.3352,0.2869,0.2695,0.2703,1.4109,1.4109,1.4109,1.4109,1.4109,1.4109,1.4109,1.4109,1.4109,1.4109,1.4109,1.4109,1.4109,1.4699,1.511,1.511,1.5884,1.6391,1.6391,1.7836,1.8687,1.8687,1.8687,1.8687,1.8687,1.7188,1.6739,1.7411,1.6514,1.6111,1.6111,1.6111,1.5739,1.511,1.511,1.472,1.4076,1.3607,1.352,1.368,1.3186,1.3119,1.3327,1.3532,1.3702,1.385,1.4171,1.4214,1.4155,1.4404,1.4367,1.4253,1.4521,1.4801,1.5152,1.5808,1.6197,1.6412,1.6541,1.6457,1.6292,1.602,1.6171,1.6399,1.6399,1.6196,1.6001,1.6001,1.5053,1.4209,1.4209,1.3957,1.3718,1.3718,0.0,0.0,0.0,1.3718,1.3832,1.4089,1.4118,1.4213,1.4482,1.2785,1.1678,1.1678,0.9768,0.8598,0.854,0.8354,0.811,0.7857,0.752,0.7415,0.7564,0.7456,0.7549,0.7841,0.7841,0.7931,0.8077,0.8012,0.7963,0.7926,0.7975,0.7757,0.7352,0.7574,0.7133,0.6237,0.5633,0.5,0.4335,0.3406,0.3097,0.3087,1.4109,1.4109,1.4109,1.4109,1.4109,1.4109,1.4109,1.4109,1.4109,1.4109,1.4109,1.4109,1.4109,1.4166,1.4194,1.4194,1.4985,1.5498,1.5498,1.637,1.6903,1.6903,1.6903,1.6903,1.6903,1.5959,1.5539,1.5594,1.472,1.4292,1.4292,1.4292,1.425,1.4194,1.4194,1.4166,1.4103,1.4041,1.4056,1.4028,1.3687,1.3547,1.3594,1.3858,1.3909,1.3878,1.4394,1.452,1.4474,1.4477,1.4648,1.4834,1.4856,1.511,1.5373,1.5428,1.5476,1.5593,1.6026,1.6622,1.6849,1.5723,1.5471,1.5506,1.5506,1.5492,1.5449,1.5449,1.5136,1.4827,1.4827,1.4611,1.4438,1.4438,0.0,0.0,1.4438,1.4438,1.4445,1.4467,1.4455,1.4482,1.4504,1.2916,1.1886,1.1886,1.0246,0.9158,0.8959,0.8774,0.8446,0.7996,0.7829,0.7767,0.778,0.7882,0.7947,0.7996,0.7996,0.8093,0.8264,0.8093,0.8101,0.8265,0.8081,0.7564,0.6839,0.6733,0.6299,0.5641,0.5478,0.5438,0.5389,0.4511,0.4142,0.398,1.4109,1.4109,1.4109,1.4109,1.4109,1.4109,1.4109,1.4109,1.4109,1.4109,1.4109,1.4109,1.4109,1.4109,1.4109,1.4109,1.4391,1.4601,1.4601,1.4908,1.5581,1.6657,1.6185,1.6152,1.6698,1.5311,1.4866,1.5394,1.4538,1.4109,1.4109,1.4109,1.4109,1.4109,1.4109,1.4109,1.4096,1.3874,1.3915,1.4062,1.372,1.3809,1.413,1.4358,1.4516,1.4657,1.497,1.4954,1.4774,1.4999,1.4993,1.4936,1.5141,1.5307,1.541,1.541,1.5549,1.57,1.5672,1.5865,1.5961,1.5515,1.541,1.541,1.541,1.541,1.541,1.541,1.5126,1.49,1.49,1.4684,1.4511,1.4511,0.0,1.4511,1.4511,1.464,1.4745,1.4745,1.494,1.5065,1.5065,1.333,1.2265,1.2387,1.0367,0.9142,0.9192,0.8752,0.8408,0.8203,0.8142,0.8053,0.7918,0.7979,0.8069,0.8187,0.8187,0.828,0.848,0.8411,0.8354,0.8313,0.8358,0.7737,0.674,0.7513,0.6903,0.5545,0.6207,0.613,0.5613,0.5282,0.4785,0.4208,1.4109,1.4109,1.4109,1.4109,1.4109,1.4109,1.4109,1.4109,1.4109,1.4109,1.4109,1.4109,1.4109,1.4109,1.4109,1.4109,1.4109,1.4109,1.4109,1.4109,1.4636,1.5822,1.5311,1.5269,1.5863,1.4699,1.4391,1.4985,1.4391,1.4109,1.4109,1.4109,1.4109,1.4109,1.4109,1.4109,1.4075,1.3847,1.388,1.4089,1.3917,1.4075,1.444,1.472,1.4936,1.5131,1.5319,1.5243,1.509,1.5309,1.5256,1.509,1.5337,1.541,1.541,1.541,1.5563,1.5695,1.5468,1.541,1.541,1.541,1.541,1.541,1.541,1.541,1.541,1.541,1.5206,1.5053,1.5053,1.4918,1.4792,1.4792,1.4792,1.4792,1.4792,1.4935,1.5053,1.5053,1.525,1.541,1.541,1.3639,1.255,1.2684,1.06,0.9319,0.929,0.8835,0.8505,0.8395,0.8399,0.8338,0.8187,0.8187,0.8251,0.8399,0.8399,0.8464,0.859,0.859,0.8517,0.8407,0.8533,0.8072,0.7246,0.7559,0.6991,0.5993,0.648,0.6451,0.6141,0.6141,0.5741,0.5099,1.4109,1.4109,1.4109,1.4109,1.4109,1.4109,1.4109,1.4109,1.4109,1.4109,1.4109,1.4109,1.4109,1.4109,1.4109,1.4109,1.4109,1.4109,1.4109,1.4109,1.4109,1.4109,1.4109,1.4109,1.4109,1.4109,1.4109,1.4109,1.4109,1.4109,1.4109,1.4109,1.4109,1.4109,1.4109,1.4109,1.4109,1.4109,1.4109,1.413,1.4321,1.4398,1.4461,1.4915,1.511,1.5131,1.5319,1.541,1.541,1.541,1.541,1.541,1.541,1.541,1.541,1.541,1.541,1.541,1.541,1.541,1.541,1.541,1.541,1.541,1.541,1.541,1.541,1.541,1.541,1.541,1.541,1.541,1.541,1.541,1.541,1.541,1.541,1.541,1.541,1.541,1.541,1.541,1.541,1.3747,1.2696,1.2696,1.102,0.9803,0.9323,0.9043,0.8806,0.8612,0.8612,0.8612,0.859,0.859,0.859,0.859,0.859,0.859,0.859,0.859,0.859,0.859,0.859,0.859,0.8432,0.652,0.6251,0.7007,0.6074,0.6273,0.7095,0.7095,0.7095,0.683,1.4109,1.4109,1.4109,1.4109,1.4109,1.4109,1.4109,1.4109,1.4109,1.4109,1.4109,1.4109,1.4109,1.4109,1.4109,1.4109,1.4109,1.4109,1.4109,1.4109,1.4109,1.4109,1.4109,1.4109,1.4109,1.4109,1.4109,1.4109,1.4109,1.4109,1.4109,1.4109,1.4109,1.4109,1.4109,1.4109,1.4109,1.4109,1.4187,1.4321,1.4377,1.4608,1.4915,1.5048,1.5194,1.5326,1.5389,1.541,1.541,1.541,1.541,1.541,1.541,1.541,1.541,1.541,1.541,1.541,1.541,1.541,1.541,1.541,1.541,1.541,1.541,1.541,1.541,1.541,1.541,1.541,1.541,1.541,1.541,1.541,1.541,1.541,1.541,1.541,1.541,1.541,1.541,1.541,1.541,1.3747,1.2696,1.2696,1.102,0.9864,0.9519,0.9432,0.9213,0.8828,0.8806,0.874,0.8612,0.859,0.859,0.859,0.859,0.859,0.859,0.859,0.859,0.859,0.859,0.8208,0.7562,0.7676,0.7098,0.6163,0.6539,0.6852,0.7095,0.7095,0.7095,0.7029,1.4109,1.4109,1.4109,1.4109,1.4109,1.4109,1.4109,1.4109,1.4109,1.4109,1.4109,1.4109,1.4109,1.4109,1.4109,1.4109,1.4109,1.4109,1.4109,1.4109,1.4109,1.4109,1.4109,1.4109,1.4109,1.4109,1.4109,1.4109,1.4109,1.4109,1.4109,1.4109,1.4109,1.4109,1.4109,1.4145,1.4222,1.4222,1.4321,1.4524,1.4629,1.4852,1.511,1.5194,1.5285,1.541,1.541,1.541,1.541,1.541,1.541,1.541,1.541,1.541,1.541,1.541,1.541,1.541,1.541,1.541,1.541,1.541,1.541,1.541,1.541,1.541,1.541,1.541,1.541,1.541,1.541,1.541,1.541,1.541,1.541,1.541,1.541,1.541,1.541,1.541,1.541,1.5257,1.4915,1.3556,1.2398,1.1697,1.0614,0.9886,0.9602,0.9602,0.9432,0.9065,0.8955,0.8845,0.8718,0.8634,0.859,0.859,0.859,0.859,0.859,0.859,0.859,0.859,0.859,0.8256,0.772,0.7918,0.7319,0.6273,0.6473,0.6764,0.7095,0.7095,0.7341,0.7632,1.4109,1.4109,1.4109,1.4109,1.4109,1.4109,1.4109,1.4109,1.4109,1.4109,1.4109,1.4109,1.4109,1.4109,1.4109,1.4109,1.4109,1.4109,1.4109,1.4109,1.4109,1.4109,1.4109,1.4109,1.4109,1.4109,1.4109,1.4109,1.4109,1.4109,1.4109,1.4109,1.4109,1.4109,1.413,1.4222,1.4398,1.4412,1.4545,1.4762,1.4999,1.511,1.5152,1.5319,1.541,1.541,1.541,1.541,1.541,1.541,1.541,1.541,1.541,1.541,1.541,1.541,1.541,1.541,1.541,1.5432,1.5446,1.5417,1.5432,1.5446,1.5417,1.541,1.541,1.541,1.541,1.541,1.541,1.5411,1.5433,1.5433,1.5475,1.5483,1.5454,1.5433,1.5397,1.5305,1.5277,1.4936,1.4055,1.3127,1.1869,1.0125,0.9994,0.9886,0.9646,0.9646,0.9537,0.9323,0.9065,0.8933,0.8933,0.874,0.8612,0.859,0.859,0.859,0.859,0.859,0.859,0.859,0.859,0.859,0.8524,0.7606,0.7228,0.7143,0.6185,0.6406,0.7228,0.7143,0.7742,0.8476,1.4109,1.4109,1.4109,1.4109,1.4109,1.4109,1.4109,1.4109,1.4109,1.4109,1.4109,1.4109,1.4109,1.4109,1.4109,1.4109,1.4109,1.4109,1.4109,1.4109,1.4109,1.4109,1.4109,1.4109,1.4109,1.4109,1.4109,1.4109,1.4109,1.4109,1.4109,1.4109,1.4109,1.4109,1.4258,1.4356,1.4419,1.4566,1.4783,1.502,1.509,1.5194,1.5347,1.5389,1.541,1.541,1.541,1.541,1.541,1.541,1.541,1.541,1.541,1.541,1.541,1.541,1.541,1.541,1.541,1.5592,1.5731,1.5475,1.56,1.5717,1.5468,1.541,1.541,1.541,1.541,1.541,1.541,1.5614,1.579,1.579,1.6009,1.6082,1.5819,1.579,1.5432,1.4489,1.4377,1.4013,1.3084,1.2147,1.1149,1.0081,0.9994,0.9973,0.9907,0.9907,0.9798,0.9537,0.9323,0.9218,0.9218,0.8955,0.8762,0.859,0.859,0.859,0.859,0.859,0.859,0.859,0.859,0.859,0.859,0.8366,0.8274,0.8164,0.7183,0.7408,0.8186,0.7386,0.7742,0.8564,1.4109,1.4109,1.4109,1.4109,1.4109,1.4109,1.4109,1.4109,1.4109,1.4109,1.4109,1.4109,1.4109,1.4109,1.4109,1.4109,1.4109,1.4109,1.4109,1.4109,1.4109,1.4109,1.4109,1.4109,1.4109,1.4109,1.4109,1.4109,1.4109,1.4109,1.4109,1.4109,1.4109,1.4109,1.4321,1.4461,1.4566,1.4783,1.502,1.5236,1.5236,1.5305,1.541,1.541,1.541,1.541,1.541,1.541,1.541,1.541,1.541,1.541,1.541,1.541,1.541,1.541,1.541,1.541,1.541,1.5644,1.5819,1.549,1.5651,1.5812,1.5483,1.541,1.541,1.541,1.541,1.5454,1.5614,1.5782,1.5943,1.6111,1.6287,1.6338,1.6155,1.6133,1.5712,1.4569,1.4441,1.3869,1.2467,1.1505,1.0781,1.0316,1.0293,1.0228,1.0156,1.0151,1.0038,0.9803,0.9476,0.9345,0.9432,0.8977,0.8762,0.874,0.874,0.8696,0.859,0.859,0.859,0.859,0.859,0.859,0.859,0.859,0.859,0.8498,0.7496,0.772,0.848,0.7474,0.7742,0.8524,1.4109,1.4109,1.4109,1.4109,1.4109,1.4109,1.4109,1.4109,1.4109,1.4109,1.4109,1.4109,1.4109,1.4109,1.4109,1.4109,1.4109,1.4109,1.4109,1.4109,1.4109,1.4109,1.4109,1.4109,1.4109,1.4109,1.4109,1.4109,1.4109,1.4109,1.4109,1.4109,1.413,1.4166,1.4363,1.4566,1.4783,1.5041,1.5257,1.541,1.541,1.541,1.541,1.541,1.541,1.541,1.541,1.541,1.541,1.541,1.541,1.541,1.541,1.541,1.541,1.541,1.541,1.541,1.541,1.5644,1.5826,1.5556,1.5695,1.5841,1.5622,1.5534,1.549,1.549,1.5534,1.5651,1.5921,1.6038,1.6155,1.6433,1.6521,1.6536,1.6477,1.6499,1.6019,1.4738,1.4283,1.3449,1.1826,1.1032,1.0598,1.0598,1.0598,1.0499,1.0288,1.0279,1.0185,0.999,0.9525,0.938,0.9602,0.9021,0.8784,0.8911,0.8955,0.8845,0.859,0.859,0.859,0.859,0.859,0.859,0.859,0.859,0.859,0.852,0.7676,0.7874,0.8498,0.7672,0.7874,0.848,1.4109,1.4109,1.4109,1.4109,1.4109,1.4109,1.4109,1.4109,1.4109,1.4109,1.4109,1.4109,1.4109,1.4109,1.4109,1.4109,1.4109,1.4109,1.4109,1.4109,1.4109,1.4109,1.4109,1.4109,1.4109,1.4109,1.4109,1.4109,1.4109,1.4109,1.4109,1.4109,1.4187,1.4377,1.4566,1.4803,1.5069,1.5277,1.5389,1.541,1.541,1.541,1.541,1.541,1.541,1.541,1.541,1.541,1.541,1.541,1.541,1.541,1.541,1.541,1.541,1.541,1.541,1.541,1.541,1.5644,1.5885,1.5841,1.5863,1.595,1.6213,1.6038,1.5826,1.5826,1.606,1.6279,1.6323,1.6558,1.6785,1.6829,1.7018,1.7099,1.6851,1.6837,1.6042,1.3937,1.2187,1.105,1.0801,1.0667,1.0598,1.0598,1.0598,1.0491,1.0237,1.0209,1.0118,0.9925,0.9458,0.9331,0.9607,0.9345,0.9108,0.8911,0.913,0.9021,0.859,0.859,0.859,0.859,0.859,0.859,0.859,0.859,0.859,0.859,0.8454,0.848,0.859,0.8454,0.848,0.859,1.4109,1.4109,1.4109,1.4109,1.4109,1.4109,1.4109,1.4109,1.4109,1.4109,1.4109,1.4109,1.4109,1.4109,1.4109,1.4109,1.4109,1.4109,1.4109,1.4109,1.4109,1.4109,1.4109,1.4109,1.4109,1.4109,1.4109,1.4109,1.4109,1.4109,1.4109,1.4109,1.4201,1.4419,1.4608,1.4845,1.511,1.5305,1.541,1.541,1.541,1.541,1.541,1.541,1.541,1.541,1.541,1.541,1.541,1.541,1.541,1.541,1.541,1.541,1.541,1.541,1.541,1.541,1.541,1.5644,1.5892,1.5892,1.6045,1.6228,1.636,1.6426,1.6411,1.6228,1.6294,1.647,1.6631,1.68,1.6961,1.7091,1.7214,1.7258,1.7135,1.6643,1.5488,1.3303,1.1791,1.0943,1.0943,1.0943,1.0943,1.0943,1.0943,1.0825,1.0594,1.0448,1.0328,1.0287,0.966,0.9593,1.0143,0.9673,0.9417,0.9446,0.9421,0.9137,0.859,0.859,0.859,0.859,0.859,0.859,0.859,0.859,0.859,0.859,0.859,0.859,0.859,0.859,0.859,0.859]},{"header":{"parameterUnit":"m.s-1","parameterCategory":1,"la1":30.6,"la2":28.766,"lo1":-90.7593,"lo2":-88.6598,"dy":0.0162,"dx":0.0183,"nx":116,"ny":114,"refTime":"2024-02-12T06:00:00:Z","depth":0,"parameterNumber":3,"parameterNumberName":"V-component_of_WINDS"},"data":[0.0,0.0,0.0,0.0,0.0,0.0,0.0,0.0,0.0,0.0,0.0,0.0,0.0,0.0,0.0,0.0,0.0,0.0,0.0,0.0,0.0,0.0,0.0,0.0,0.0,0.0,0.0,0.0,0.0,0.0,0.0,0.0,0.0,0.0,0.0,0.0,0.0,0.0,0.0,0.0,0.0,0.0,0.0,0.0,0.0,0.0,0.0,0.0,0.0,0.0,0.0,0.0,0.0,0.0,0.0,0.0,0.0,0.0,0.0,0.0,0.0,0.0,0.0,0.0,0.0,0.0,0.0,0.0,0.0,0.0,0.0,0.0,0.0,0.0,0.0,0.0,0.0,0.0,0.0,0.0,0.0,0.0,0.0,0.0,0.0,0.0,0.0,0.0,0.0,0.0,0.0,0.0,0.0,0.0,0.0,0.0,0.0,0.0,0.0,0.0,0.0,0.0,0.0,0.0,0.0,0.0,0.0,0.0,0.0,0.0,0.0,0.0,0.0,0.0,0.0,0.0,0.0,0.0,0.0,0.0,0.0,0.0,0.0,0.0,0.0,0.0,0.0,0.0,0.0,0.0,0.0,0.0,0.0,0.0,0.0,0.0,0.0,0.0,0.0,0.0,0.0,0.0,0.0,0.0,0.0,0.0,0.0,0.0,0.0,0.0,0.0,0.0,0.0,0.0,0.0,0.0,0.0,0.0,0.0,0.0,0.0,0.0,0.0,0.0,0.0,0.0,0.0,0.0,0.0,0.0,0.0,0.0,0.0,0.0,0.0,0.0,0.0,0.0,0.0,0.0,0.0,0.0,0.0,0.0,0.0,0.0,0.0,0.0,0.0,0.0,0.0,0.0,0.0,0.0,0.0,0.0,0.0,0.0,0.0,0.0,0.0,0.0,0.0,0.0,0.0,0.0,0.0,0.0,0.0,0.0,0.0,0.0,0.0,0.0,0.0,0.0,0.0,0.0,0.0,0.0,0.0,0.0,0.0,0.0,0.0,0.0,0.0,0.0,0.0,0.0,0.0,0.0,0.0,0.0,0.0,0.0,0.0,0.0,0.0,0.0,0.0,0.0,0.0,0.0,0.0,0.0,0.0,0.0,0.0,0.0,0.0,0.0,0.0,0.0,0.0,0.0,0.0,0.0,0.0,0.0,0.0,0.0,0.0,0.0,0.0,0.0,0.0,0.0,0.0,0.0,0.0,0.0,0.0,0.0,0.0,0.0,0.0,0.0,0.0,0.0,0.0,0.0,0.0,0.0,0.0,0.0,0.0,0.0,0.0,0.0,0.0,0.0,0.0,0.0,0.0,0.0,0.0,0.0,0.0,0.0,0.0,0.0,0.0,0.0,0.0,0.0,0.0,0.0,0.0,0.0,0.0,0.0,0.0,0.0,0.0,0.0,0.0,0.0,0.0,0.0,0.0,0.0,0.0,0.0,0.0,0.0,0.0,0.0,0.0,0.0,0.0,0.0,0.0,0.0,0.0,0.0,0.0,0.0,0.0,0.0,0.0,0.0,0.0,0.0,0.0,0.0,0.0,0.0,0.0,0.0,0.0,0.0,0.0,0.0,0.0,0.0,0.0,0.0,0.0,0.0,0.0,0.0,0.0,0.0,0.0,0.0,0.0,0.0,0.0,0.0,0.0,0.0,0.0,0.0,0.0,0.0,0.0,0.0,0.0,0.0,0.0,0.0,0.0,0.0,0.0,0.0,0.0,0.0,0.0,0.0,0.0,0.0,0.0,0.0,0.0,0.0,0.0,0.0,0.0,0.0,0.0,0.0,0.0,0.0,0.0,0.0,0.0,0.0,0.0,0.0,0.0,0.0,0.0,0.0,0.0,0.0,0.0,0.0,0.0,0.0,0.0,0.0,0.0,0.0,0.0,0.0,0.0,0.0,0.0,0.0,0.0,0.0,0.0,0.0,0.0,0.0,0.0,0.0,0.0,0.0,0.0,0.0,0.0,0.0,0.0,0.0,0.0,0.0,0.0,0.0,0.0,0.0,0.0,0.0,0.0,0.0,0.0,0.0,0.0,0.0,0.0,0.0,0.0,0.0,0.0,0.0,0.0,0.0,0.0,0.0,0.0,0.0,0.0,0.0,0.0,0.0,0.0,0.0,0.0,0.0,0.0,0.0,0.0,0.0,0.0,0.0,0.0,0.0,0.0,0.0,0.0,0.0,0.0,0.0,0.0,0.0,0.0,0.0,0.0,0.0,0.0,0.0,0.0,0.0,0.0,0.0,0.0,0.0,0.0,0.0,0.0,0.0,0.0,0.0,0.0,0.0,0.0,0.0,0.0,0.0,0.0,0.0,0.0,0.0,0.0,0.0,0.0,0.0,0.0,0.0,0.0,0.0,0.0,0.0,0.0,0.0,0.0,0.0,0.0,0.0,0.0,0.0,0.0,0.0,0.0,0.0,0.0,0.0,0.0,0.0,0.0,0.0,0.0,0.0,0.0,0.0,0.0,0.0,0.0,0.0,0.0,0.0,0.0,0.0,0.0,0.0,0.0,0.0,0.0,0.0,0.0,0.0,0.0,0.0,0.0,0.0,0.0,0.0,0.0,0.0,0.0,0.0,0.0,0.0,0.0,0.0,0.0,0.0,0.0,0.0,0.0,0.0,0.0,0.0,0.0,0.0,0.0,0.0,0.0,0.0,0.0,0.0,0.0,0.0,0.0,0.0,0.0,0.0,0.0,0.0,0.0,0.0,0.0,0.0,0.0,0.0,0.0,0.0,0.0,0.0,0.0,0.0,0.0,0.0,0.0,0.0,0.0,0.0,0.0,0.0,0.0,0.0,0.0,0.0,0.0,0.0,0.0,0.0,0.0,0.0,0.0,0.0,0.0,0.0,0.0,0.0,0.0,0.0,0.0,0.0,0.0,0.0,0.0,0.0,0.0,0.0,0.0,0.0,0.0,0.0,0.0,0.0,0.0,0.0,0.0,0.0,0.0,0.0,0.0,0.0,0.0,0.0,0.0,0.0,0.0,0.0,0.0,0.0,0.0,0.0,0.0,0.0,0.0,0.0,0.0,0.0,0.0,0.0,0.0,0.0,0.0,0.0,0.0,0.0,0.0,0.0,0.0,0.0,0.0,0.0,0.0,0.0,0.0,0.0,0.0,0.0,0.0,0.0,0.0,0.0,0.0,0.0,0.0,0.0,0.0,0.0,0.0,0.0,0.0,0.0,0.0,0.0,0.0,0.0,0.0,0.0,0.0,0.0,0.0,0.0,0.0,0.0,0.0,0.0,0.0,0.0,0.0,0.0,0.0,0.0,0.0,0.0,0.0,0.0,0.0,0.0,0.0,0.0,0.0,0.0,0.0,0.0,0.0,0.0,0.0,0.0,0.0,0.0,0.0,0.0,0.0,0.0,0.0,0.0,0.0,0.0,0.0,0.0,0.0,0.0,0.0,0.0,0.0,0.0,0.0,0.0,0.0,0.0,0.0,0.0,0.0,0.0,0.0,0.0,0.0,0.0,0.0,0.0,0.0,0.0,0.0,0.0,0.0,0.0,0.0,0.0,0.0,0.0,0.0,0.0,0.0,0.0,0.0,0.0,0.0,0.0,0.0,0.0,0.0,0.0,0.0,0.0,0.0,0.0,0.0,0.0,0.0,0.0,0.0,0.0,0.0,0.0,0.0,0.0,0.0,0.0,0.0,0.0,0.0,0.0,0.0,0.0,0.0,0.0,0.0,0.0,0.0,0.0,0.0,0.0,0.0,0.0,0.0,0.0,0.0,0.0,0.0,0.0,0.0,0.0,0.0,0.0,0.0,0.0,0.0,0.0,0.0,0.0,0.0,0.0,0.0,0.0,0.0,0.0,0.0,0.0,0.0,0.0,0.0,0.0,0.0,0.0,0.0,0.0,0.0,0.0,0.0,0.0,0.0,0.0,0.0,0.0,0.0,0.0,0.0,0.0,0.0,0.0,0.0,0.0,0.0,0.0,0.0,0.0,0.0,0.0,0.0,0.0,0.0,0.0,0.0,0.0,0.0,0.0,0.0,0.0,0.0,0.0,0.0,0.0,0.0,0.0,0.0,0.0,0.0,0.0,0.0,0.0,0.0,0.0,0.0,0.0,0.0,0.0,0.0,0.0,0.0,0.0,0.0,0.0,0.0,0.0,0.0,0.0,0.0,0.0,0.0,0.0,0.0,0.0,0.0,0.0,0.0,0.0,0.0,0.0,0.0,0.0,0.0,0.0,0.0,0.0,0.0,0.0,0.0,0.0,0.0,0.0,0.0,0.0,0.0,0.0,0.0,0.0,0.0,0.0,0.0,0.0,0.0,0.0,0.0,0.0,0.0,0.0,0.0,0.0,0.0,0.0,0.0,0.0,0.0,0.0,0.0,0.0,0.0,0.0,0.0,0.0,0.0,0.0,0.0,0.0,0.0,0.0,0.0,0.0,0.0,0.0,0.0,0.0,0.0,0.0,0.0,0.0,0.0,0.0,0.0,0.0,0.0,0.0,0.0,0.0,0.0,0.0,0.0,0.0,0.0,0.0,0.0,0.0,0.0,0.0,0.0,0.0,0.0,0.0,0.0,0.0,0.0,0.0,0.0,0.0,0.0,0.0,0.0,0.0,0.0,0.0,0.0,0.0,0.0,0.0,0.0,0.0,0.0,0.0,0.0,0.0,0.0,0.0,0.0,0.0,0.0,0.0,0.0,0.0,0.0,0.0,0.0,0.0,0.0,0.0,0.0,0.0,0.0,0.0,0.0,0.0,0.0,0.0,0.0,0.0,0.0,0.0,0.0,0.0,0.0,0.0,0.0,0.0,0.0,0.0,0.0,0.0,0.0,0.0,0.0,0.0,0.0,0.0,0.0,0.0,0.0,0.0,0.0,0.0,0.0,0.0,0.0,0.0,0.0,0.0,0.0,0.0,0.0,0.0,0.0,0.0,0.0,0.0,0.0,0.0,0.0,0.0,0.0,0.0,0.0,0.0,0.0,0.0,0.0,0.0,0.0,0.0,0.0,0.0,0.0,0.0,0.0,0.0,0.0,0.0,0.0,0.0,0.0,0.0,0.0,0.0,0.0,0.0,0.0,0.0,0.0,0.0,0.0,0.0,0.0,0.0,0.0,0.0,0.0,0.0,0.0,0.0,0.0,0.0,0.0,0.0,0.0,0.0,0.0,0.0,0.0,0.0,0.0,0.0,0.0,0.0,0.0,0.0,0.0,0.0,0.0,0.0,0.0,0.0,0.0,0.0,0.0,0.0,0.0,0.0,0.0,0.0,0.0,0.0,0.0,0.0,0.0,0.0,0.0,0.0,0.0,0.0,0.0,0.0,0.0,0.0,0.0,0.0,0.0,0.0,0.0,0.0,0.0,0.0,0.0,0.0,0.0,0.0,0.0,0.0,0.0,0.0,0.0,0.0,0.0,0.0,0.0,0.0,0.0,0.0,0.0,0.0,0.0,0.0,0.0,0.0,0.0,0.0,0.0,0.0,0.0,0.0,0.0,0.0,0.0,0.0,0.0,0.0,0.0,0.0,0.0,0.0,0.0,0.0,0.0,0.0,0.0,0.0,0.0,0.0,0.0,0.0,0.0,0.0,0.0,0.0,0.0,0.0,0.0,0.0,0.0,0.0,0.0,0.0,0.0,0.0,0.0,0.0,0.0,0.0,0.0,0.0,0.0,0.0,0.0,0.0,0.0,0.0,0.0,0.0,0.0,0.0,0.0,0.0,0.0,0.0,0.0,0.0,0.0,0.0,0.0,0.0,0.0,0.0,0.0,0.0,0.0,0.0,0.0,0.0,0.0,0.0,0.0,0.0,0.0,0.0,0.0,0.0,0.0,0.0,0.0,0.0,0.0,0.0,0.0,0.0,0.0,0.0,0.0,0.0,0.0,0.0,0.0,0.0,0.0,0.0,0.0,0.0,0.0,0.0,0.0,0.0,0.0,0.0,0.0,0.0,0.0,0.0,0.0,0.0,0.0,0.0,0.0,0.0,0.0,0.0,0.0,0.0,0.0,0.0,0.0,0.0,0.0,0.0,0.0,0.0,0.0,0.0,0.0,0.0,0.0,0.0,0.0,0.0,0.0,0.0,0.0,0.0,0.0,0.0,0.0,0.0,0.0,0.0,0.0,0.0,0.0,0.0,1.0984,0.0,0.0,0.0,0.0,0.0,0.0,0.0,0.0,0.0,0.0,0.0,0.0,0.0,0.0,0.0,0.0,0.0,0.0,0.0,0.0,0.0,0.0,0.0,0.0,0.0,0.0,0.0,0.9406,0.9394,0.9399,0.9399,0.9399,0.9399,0.9399,0.9399,0.9399,0.9399,0.9584,0.9975,1.0353,1.1546,1.346,1.4655,1.5465,1.5913,0.0,0.0,0.0,0.0,0.0,0.0,0.0,0.0,0.0,0.0,0.0,0.0,0.0,0.0,0.0,0.0,0.0,0.0,0.0,0.0,0.0,0.0,0.0,0.0,0.0,0.0,0.0,0.0,0.0,0.0,0.0,0.0,0.0,0.0,0.0,0.0,0.0,0.0,0.0,0.0,0.0,0.0,0.0,0.0,0.0,0.0,0.0,0.0,0.0,0.0,0.0,0.0,0.0,0.0,0.0,0.0,0.0,0.0,0.0,0.0,0.0,0.0,0.0,0.0,0.0,0.0,0.0,0.0,0.0,0.0,0.0,1.1535,0.0,0.0,0.0,0.0,0.0,0.0,0.0,0.0,0.0,0.0,0.0,0.0,0.0,0.0,0.0,0.0,0.0,0.0,0.0,0.0,0.0,0.0,0.0,0.9423,0.9392,0.9392,0.9392,0.9399,0.9399,0.9399,0.9399,0.9399,0.9401,0.9403,0.9403,0.968,1.0159,1.0806,1.2016,1.3806,1.6159,1.7574,1.8052,0.0,0.0,0.0,0.0,0.0,0.0,0.0,0.0,0.0,0.0,0.0,0.0,0.0,0.0,0.0,0.0,0.0,0.0,0.0,0.0,0.0,0.0,0.0,0.0,0.0,0.0,0.0,0.0,0.0,0.0,0.0,0.0,0.0,0.0,0.0,0.0,0.0,0.0,0.0,0.0,0.0,0.0,0.0,0.0,0.0,0.0,0.0,0.0,0.0,0.0,0.0,0.0,0.0,0.0,0.0,0.0,0.0,0.0,0.0,0.0,0.0,0.0,0.0,0.0,0.0,1.4659,1.4907,1.5285,1.5285,1.5222,1.5034,1.3472,1.2573,1.2268,0.0,0.0,0.0,0.0,0.0,0.0,0.0,0.0,0.0,0.0,0.0,0.0,0.0,0.0,0.0,0.0,0.0,0.0,0.0,0.0,0.0,0.0,0.9403,0.9403,0.9403,0.9399,0.9399,0.9399,0.9399,0.9399,0.9399,0.9401,0.9394,0.9394,1.0831,1.1588,1.1635,1.4438,1.7016,1.9392,2.0295,2.1383,2.2458,0.0,0.0,0.0,0.0,0.0,0.0,0.0,0.0,0.0,0.0,0.0,0.0,0.0,0.0,0.0,0.0,0.0,0.0,0.0,0.0,0.0,0.0,0.0,0.0,0.0,0.0,0.0,0.0,0.0,0.0,0.0,0.0,0.0,0.0,0.0,0.0,0.0,0.0,0.0,0.0,0.0,0.0,0.0,0.0,1.3698,1.3394,0.0,0.0,0.0,0.0,0.0,0.0,0.0,0.0,0.0,0.0,0.0,0.0,0.0,1.4225,1.5116,1.5647,1.5772,1.552,1.6047,1.6062,1.5631,1.5631,1.5899,1.6355,1.6097,0.0,1.314,1.4385,0.0,0.0,0.0,0.0,0.0,0.0,0.0,0.0,0.0,0.0,0.0,0.0,0.0,0.0,0.0,0.0,0.0,0.0,0.0,0.0,0.0,1.0435,1.0688,1.0688,1.1937,1.196,1.0192,1.092,1.0836,0.9518,0.9459,0.9879,1.0798,1.1498,1.2893,1.5056,1.7766,1.9852,2.1325,2.2575,2.3528,2.4117,2.2726,2.187,2.1365,2.0018,0.0,0.0,0.0,0.0,0.0,0.0,0.0,0.0,0.0,0.0,0.0,0.0,0.0,0.0,0.0,0.0,0.0,0.0,0.0,0.0,0.0,0.0,0.0,0.0,0.0,0.0,0.0,0.0,0.0,0.0,0.0,0.0,0.0,0.0,0.0,0.0,0.0,0.0,0.0,1.3386,1.3621,1.3942,1.4478,1.474,0.0,0.0,0.0,0.0,0.0,0.0,0.0,0.0,0.0,1.5954,1.5404,1.544,1.6158,1.641,1.6873,1.7502,1.7771,1.7928,1.7997,1.7997,1.8077,1.8165,1.8165,1.7264,1.5787,1.5887,1.5374,1.4606,0.0,0.0,0.0,0.0,1.5929,1.5982,0.0,0.0,0.0,0.0,0.0,0.0,0.0,0.0,0.0,0.0,0.0,0.0,1.1056,1.1484,1.2029,1.2832,1.3814,1.3488,1.135,1.1754,1.1317,0.9573,0.9902,1.0674,1.1853,1.2825,1.5117,1.8833,2.0817,2.2384,2.3528,2.4736,2.5408,2.5598,2.5598,2.4289,2.2005,2.0941,1.9832,0.0,0.0,0.0,0.0,0.0,0.0,0.0,0.0,0.0,0.0,0.0,0.0,0.0,0.0,0.0,0.0,0.0,0.0,0.0,0.0,0.0,0.0,0.0,0.0,0.0,0.0,0.0,0.0,0.0,0.0,0.0,0.0,0.0,0.0,0.0,0.0,0.0,0.0,1.3479,1.3719,1.4293,1.4938,1.5235,0.0,0.0,0.0,0.0,0.0,0.0,1.6548,1.635,1.6435,1.6927,1.6555,1.6631,1.7283,1.7291,1.7973,1.9314,1.9314,1.9575,2.0052,2.0052,1.996,1.9762,1.9699,1.9223,1.8418,1.7473,1.6634,1.5936,1.6069,1.6069,1.6082,1.6647,1.6857,1.697,0.0,0.0,0.0,0.0,0.0,0.0,0.0,0.0,0.0,0.0,0.0,1.0259,1.2549,1.2145,1.2903,1.5898,1.3546,1.2163,1.2842,1.0805,0.9551,0.9501,1.0964,1.1797,1.18,1.5475,1.8972,2.2171,2.2975,2.4546,2.677,2.6842,2.7281,2.8017,2.8017,2.7108,2.5329,2.1948,2.0893,2.1286,0.0,0.0,0.0,0.0,0.0,0.0,0.0,0.0,0.0,0.0,0.0,0.0,0.0,0.0,0.0,0.0,0.0,0.0,0.0,0.0,0.0,0.0,0.0,0.0,0.0,0.0,0.0,0.0,0.0,0.0,0.0,0.0,0.0,0.0,0.0,0.0,0.0,0.0,0.0,1.4045,1.5002,0.0,0.0,0.0,0.0,1.6165,1.6296,1.6716,1.7583,1.7608,1.7664,1.7822,1.7807,1.823,1.917,1.917,1.9598,2.043,2.043,2.0547,2.0753,2.0753,2.0745,2.0728,2.0536,2.0405,2.0279,1.9147,1.7954,1.6894,1.7535,1.7617,1.7431,1.7726,1.7822,1.7861,0.0,0.0,0.0,0.0,0.0,0.0,0.0,0.0,0.9612,1.0104,1.1043,1.2172,1.358,1.5241,1.65,1.7119,1.7097,1.6302,1.4595,1.3193,1.2003,1.1074,1.1097,1.2296,1.4762,1.8185,2.0983,2.3105,2.4373,2.5669,2.7002,2.7531,2.7935,2.8196,2.8196,2.7596,2.6454,2.4666,2.3037,2.1515,2.0107,1.9085,0.0,0.0,0.0,0.0,0.0,0.0,0.0,0.0,0.0,0.0,0.0,0.0,0.0,0.0,0.0,0.0,0.0,0.0,0.0,0.0,0.0,0.0,0.0,0.0,0.0,0.0,0.0,0.0,0.0,0.0,0.0,0.0,0.0,0.0,0.0,0.0,0.0,1.4798,1.5775,0.0,1.6103,1.6103,1.632,1.6779,1.6952,1.7453,1.842,1.8648,1.8987,1.9564,1.9572,1.9796,2.0259,2.0268,2.0418,2.0695,2.0695,2.0736,2.0794,2.067,2.0611,2.0603,2.045,2.0366,2.0333,1.994,1.9237,1.8412,1.8197,1.8034,1.8024,1.8586,1.8803,1.8872,0.0,0.0,0.0,0.0,0.0,0.0,0.0,0.0,0.9994,1.0534,1.2207,1.3942,1.5585,1.7579,1.9123,1.994,1.9257,1.8016,1.6236,1.462,1.3285,1.2302,1.2774,1.451,1.7606,2.0497,2.2605,2.3898,2.5455,2.6621,2.7424,2.7946,2.8196,2.8213,2.8481,2.8309,2.7763,2.7246,2.5265,2.2414,2.1417,2.0612,1.9858,0.0,0.0,0.0,0.0,0.0,0.0,0.0,0.0,0.0,0.0,0.0,0.0,0.0,0.0,0.0,0.0,0.0,0.0,0.0,0.0,0.0,0.0,0.0,0.0,0.0,0.0,0.0,0.0,0.0,0.0,0.0,0.0,0.0,0.0,0.0,1.5849,1.6354,1.7155,1.7544,1.7234,1.7203,1.7378,1.7783,1.7936,1.8462,1.9495,1.9709,2.0043,2.0579,2.0603,2.067,2.0802,2.0802,2.0835,2.0893,2.0893,2.0925,2.0966,2.0786,2.0703,2.0687,2.046,2.0373,2.0357,2.0321,2.0042,1.9595,1.91,1.8915,1.8969,1.9463,1.9641,1.9703,0.0,0.0,0.0,0.0,0.0,0.0,0.0,1.0084,1.0609,1.0626,1.2786,1.545,1.8445,1.8868,2.0473,2.4266,1.9609,1.6834,1.7676,1.4795,1.3058,1.3115,1.6087,1.8476,2.0038,2.232,2.3921,2.4766,2.6271,2.7424,2.8242,2.8242,2.8249,2.832,2.9094,2.9433,2.9433,2.9433,2.753,2.4351,2.2746,2.2202,2.214,0.0,0.0,0.0,0.0,0.0,0.0,0.0,0.0,0.0,0.0,0.0,0.0,0.0,0.0,0.0,0.0,0.0,0.0,0.0,0.0,0.0,0.0,0.0,0.0,0.0,0.0,0.0,0.0,0.0,0.0,0.0,0.0,0.0,1.6748,1.7571,1.825,1.8606,1.9125,1.911,1.8201,1.8122,1.8446,1.9232,1.9274,1.9734,2.0786,2.0818,2.0802,2.0811,2.0811,2.0811,2.0819,2.0819,2.0909,2.1111,2.1111,2.1167,2.1301,2.1167,2.1103,2.1087,2.0678,2.051,2.0502,2.0373,2.0313,2.0313,2.0304,2.0311,2.0335,2.0311,2.0296,2.0296,0.0,0.0,0.0,0.0,0.0,0.0,0.0,1.0084,1.0811,1.1388,1.4558,1.7061,1.7908,2.0511,2.2185,2.2107,1.9676,1.8266,1.8547,1.5615,1.4384,1.5555,1.752,1.9568,2.1693,2.2903,2.4438,2.6378,2.6788,2.771,2.9076,2.9076,2.9362,2.9879,3.0093,3.02,3.02,3.02,2.9654,2.8557,2.5687,2.3873,2.2731,0.0,0.0,0.0,0.0,0.0,0.0,0.0,0.0,0.0,0.0,0.0,0.0,0.0,0.0,0.0,0.0,0.0,0.0,0.0,0.0,0.0,0.0,0.0,0.0,0.0,0.0,0.0,0.0,0.0,0.0,0.0,0.0,1.7315,1.744,1.7988,1.8756,1.9716,2.035,2.0758,2.0893,2.0896,2.1089,2.1567,2.1104,2.1033,2.1578,2.108,2.0868,2.1006,2.103,2.1055,2.1159,2.1159,2.1183,2.1254,2.1254,2.1254,2.1301,2.1167,2.1103,2.1095,2.0827,2.072,2.072,2.0678,2.0662,2.0637,2.0399,2.0604,2.0974,2.048,2.0296,2.0296,0.0,0.0,0.0,0.0,0.0,0.0,0.0,1.041,1.1316,1.178,1.5573,1.8366,1.8668,2.1003,2.23,2.1703,1.962,1.836,1.8395,1.6992,1.6595,0.0,0.0,2.1504,2.2867,2.4295,2.5838,2.7542,2.7855,2.8637,2.9861,2.9861,3.0093,3.0504,3.0842,3.1011,3.1011,3.1011,3.1011,3.0799,2.8518,2.6957,2.5785,2.3859,2.2883,2.2351,2.0771,2.034,2.0406,1.9516,0.0,0.0,0.0,0.0,0.0,0.0,0.0,0.0,0.0,0.0,0.0,0.0,0.0,0.0,0.0,0.0,0.0,0.0,0.0,0.0,0.0,0.0,0.0,0.0,1.7896,1.8616,1.9757,1.9975,2.0378,2.1391,2.2009,2.2389,2.2578,2.2586,2.2647,2.2771,2.2398,2.2283,2.2566,2.187,2.1519,2.1633,2.1336,2.1214,2.1293,2.1293,2.1293,2.1293,2.1293,2.1356,2.1473,2.1624,2.1584,0.0,2.1859,2.1697,2.1119,2.1432,2.1544,0.0,0.0,0.0,0.0,0.0,2.095,2.1204,0.0,0.0,0.0,0.0,0.0,0.0,0.0,1.0875,1.1866,1.1773,1.5836,1.8912,1.9381,2.0335,2.1168,2.1688,1.9192,1.7611,1.7709,1.8556,0.0,1.9471,2.2131,2.3741,2.4044,2.6056,2.7561,2.8445,2.9097,2.9855,3.0688,3.0643,3.0697,3.0826,3.1525,3.1839,3.1839,3.1839,3.1839,3.1768,3.1064,3.0427,2.9665,2.7123,2.6062,2.5669,2.3725,2.2261,2.1235,2.0953,0.0,0.0,0.0,0.0,0.0,0.0,0.0,0.0,0.0,0.0,0.0,0.0,0.0,0.0,0.0,0.0,0.0,0.0,0.0,0.0,0.0,0.0,0.0,0.0,1.9372,2.0074,2.2667,2.2662,2.2642,2.3295,2.3736,2.3897,2.3661,2.3647,2.361,2.3472,2.3396,2.3418,2.3609,0.0,0.0,0.0,0.0,2.1423,2.1423,2.1342,2.1293,2.1293,2.1405,2.1586,2.1834,2.2431,2.2478,2.2157,2.3332,2.3078,2.1864,2.2512,2.2775,2.2695,2.2099,2.1793,2.1686,2.1579,2.2038,2.2551,0.0,0.0,0.0,0.0,0.0,0.0,0.0,1.0875,1.168,1.1028,1.4514,1.6624,1.5476,1.773,1.8874,1.7739,1.7134,1.7086,0.0,0.0,2.0893,2.3009,2.3461,2.4665,2.6784,2.7061,2.7896,2.9359,2.9438,3.0295,3.187,3.1585,3.1903,3.2679,3.2675,3.2668,3.2668,3.2668,3.2668,3.265,3.2507,3.1266,2.9421,2.8672,2.7941,2.7101,2.5584,2.5188,2.5129,2.3662,2.2957,2.2507,2.1245,0.0,0.0,0.0,0.0,0.0,0.0,0.0,0.0,0.0,0.0,0.0,0.0,0.0,0.0,0.0,0.0,0.0,0.0,0.0,0.0,1.9865,2.0904,2.1915,2.3019,2.3752,2.4255,2.4389,2.4491,2.4711,2.5134,2.5166,2.5165,2.5146,2.4574,2.4261,2.4297,2.3658,2.3294,2.3294,2.2564,2.2183,2.2183,2.1609,2.1293,2.1309,0.0,0.0,2.2622,2.3531,2.3891,2.383,2.4099,2.4025,2.3766,2.3908,2.3839,2.3679,2.4027,2.3663,2.2972,2.3102,2.3165,2.3066,0.0,0.0,0.0,0.0,0.0,0.0,0.0,1.0867,1.1608,1.0805,1.3825,1.5587,1.4383,1.5667,1.6456,1.6088,1.6081,1.6787,0.0,2.0047,2.1707,2.3377,2.4997,2.6675,2.8414,2.867,2.9594,3.1197,3.1127,3.1772,3.3058,3.2819,3.2962,3.3429,3.3175,3.3055,3.3047,3.293,3.3124,3.3499,3.3499,3.3027,3.2155,3.0856,2.9978,2.9277,2.8008,2.7131,2.6387,2.5309,2.4393,2.3496,2.2353,2.1215,2.0088,0.0,0.0,0.0,0.0,0.0,0.0,0.0,0.0,0.0,0.0,0.0,0.0,0.0,0.0,1.7871,1.8317,0.0,2.052,2.1784,2.2418,2.3134,2.4256,2.4628,2.4798,2.4798,2.5001,2.5272,2.5578,2.5597,2.5597,2.5597,2.525,2.5049,2.5049,2.4378,2.3998,2.3998,2.3318,2.3012,2.3145,2.2785,2.2661,2.2811,2.3309,2.3601,2.3736,2.4641,2.4893,2.4694,2.5468,2.5366,2.467,2.5052,2.5118,2.5076,2.578,2.5271,2.4109,2.3742,2.4061,2.4583,0.0,0.0,0.0,0.0,0.0,0.0,0.0,1.0732,1.1375,1.0578,1.2997,1.4423,1.3461,1.3663,1.4274,1.5307,1.5382,0.0,0.0,2.0878,2.2285,2.3534,2.6596,2.869,2.9587,3.0309,3.1385,3.2844,3.2724,3.308,3.3918,3.3733,3.3639,3.3625,3.3335,3.3182,3.3129,3.2961,3.3356,3.4107,3.4107,3.4464,3.4785,3.2884,3.2002,3.1593,3.0272,2.8484,2.6724,2.6472,2.517,2.3553,2.307,2.2378,2.1438,1.9866,1.9306,0.0,0.0,0.0,0.0,0.0,0.0,0.0,0.0,0.0,1.7224,1.7352,1.8388,1.9446,2.0032,2.1106,2.2338,2.3707,2.3833,2.418,2.5424,2.5272,2.5036,2.5036,2.5375,2.5597,2.5597,2.5597,2.5597,2.5597,2.5597,2.5597,2.5597,2.5033,2.4709,2.4709,2.41,2.3881,2.41,2.4025,2.4097,2.4295,2.4494,2.468,2.4868,2.5721,2.5855,2.5523,2.6764,2.66,2.5488,2.6092,2.6239,2.6153,2.6816,2.6312,2.5121,2.4356,2.5003,2.611,0.0,0.0,0.0,0.0,0.0,0.0,0.0,0.0,1.0542,0.9746,1.1184,1.1711,1.0195,1.1372,1.2913,1.4566,0.0,0.0,2.0095,2.1248,2.3175,2.6317,2.8176,2.9649,3.0691,3.1328,3.2082,3.2976,3.2667,3.3038,3.3973,3.3608,3.3419,3.3437,3.3275,3.3099,3.2922,3.2916,3.3356,3.4107,3.4107,3.4143,3.4196,3.3928,3.3805,3.3517,3.1612,2.9362,2.7323,2.7401,2.5795,2.3868,2.4312,2.3934,2.2932,2.0797,0.0,1.8878,1.7436,1.6892,1.6846,1.7392,1.7314,1.7317,0.0,0.0,1.9094,1.9694,2.0413,2.1171,2.1941,2.2982,2.386,2.4342,2.4947,2.5389,2.5571,2.5543,2.5515,2.5515,2.5569,2.5597,2.5597,2.5597,2.5597,2.5597,2.5597,2.5597,2.5597,2.5526,2.5477,2.5477,2.5002,2.4758,2.4792,2.4429,2.4264,2.432,2.5208,2.5633,2.5699,2.6673,2.7093,2.7048,2.7238,2.7203,2.7048,2.7134,2.6747,2.6101,2.6205,2.6125,2.597,2.5869,2.6207,2.6716,0.0,0.0,0.0,0.0,0.0,0.0,0.0,0.0,0.0,0.9597,1.0496,1.0775,0.9633,1.0614,1.2278,1.4572,0.0,0.0,2.0981,2.1176,2.2623,2.6042,2.8334,3.0016,3.1057,3.2279,3.3294,3.4112,3.3971,3.4005,3.4225,3.4018,3.3875,3.3782,3.3372,3.3235,3.3319,3.3512,3.4044,3.4785,3.5257,3.5159,3.4696,3.425,3.2965,3.1215,3.0149,2.8512,0.0,0.0,2.4887,2.3935,2.4071,2.3568,2.2565,2.0815,1.9778,0.0,1.7954,1.7587,0.0,0.0,1.8786,1.9227,2.0027,2.0471,2.0797,2.1071,2.2043,2.2931,2.3273,2.4214,2.4988,0.0,2.5396,2.5597,2.5597,2.5234,2.4952,2.4952,2.4621,2.4693,2.5526,2.5597,2.5597,2.5597,2.5597,2.5597,2.5597,2.5597,2.5665,2.5826,2.5651,2.5699,2.6,2.5839,2.5842,2.6043,2.6472,2.6666,2.6691,2.7112,2.7523,2.7937,2.7937,2.8178,2.8558,2.8127,2.7747,2.7429,2.7429,2.7429,2.7333,2.6429,2.6789,2.7731,0.0,0.0,0.0,0.0,0.0,0.0,0.0,0.0,0.0,0.0,1.0005,1.0166,0.9621,1.0188,1.1566,0.0,0.0,0.0,0.0,2.0625,2.2068,2.5227,2.7916,0.0,3.1166,3.2387,3.3524,3.4567,3.4491,3.4396,3.4294,3.4214,3.4093,3.3888,3.3401,3.3302,3.3513,3.3936,3.441,3.4945,3.5543,3.515,3.4107,3.2912,3.0771,2.8407,2.8335,2.6989,0.0,0.0,2.3418,2.2922,2.307,2.2696,2.1891,2.0425,1.9348,1.8537,1.819,0.0,0.0,1.9558,2.0329,2.1083,2.1842,2.2209,2.2431,2.262,2.3495,2.429,2.4419,2.5075,2.5597,2.5597,2.5597,2.5597,2.5597,2.4968,2.4491,2.4491,2.3917,2.3901,2.491,2.5195,2.5299,2.5299,2.5552,2.5703,2.5703,2.5787,2.5908,2.61,2.6173,2.6409,2.6808,2.6882,2.7055,2.7307,2.7307,2.7307,2.7307,2.7514,2.7885,2.842,2.8627,2.9006,2.9463,2.8912,2.8696,2.8696,2.8696,2.8696,2.8575,2.7446,2.7739,2.8739,0.0,0.0,0.0,0.0,0.0,0.0,0.0,0.0,0.0,0.0,0.0,0.0,0.0,0.0,0.0,0.0,0.0,0.0,0.0,1.9438,2.1902,2.4435,2.7043,2.9315,3.1166,3.1246,3.208,3.3733,3.3489,3.3586,3.4006,3.3929,3.3739,3.3408,3.3268,3.3205,3.3251,3.3846,3.4107,3.4143,3.416,3.3223,3.1571,2.9255,2.7357,2.6008,2.6775,0.0,0.0,0.0,2.1586,2.0301,2.1349,2.1643,0.0,1.9704,1.8252,0.0,0.0,0.0,1.9493,2.0896,2.1787,2.2609,2.3596,2.3834,2.4024,2.4671,2.4839,2.5014,2.5473,2.5581,2.5597,2.5597,2.5597,2.5597,2.5597,2.4968,2.4491,2.4491,2.3917,2.3521,0.0,2.416,2.4524,2.4524,2.5444,2.5999,2.5999,2.6226,2.6375,2.6392,2.6649,2.6774,2.6791,2.7129,2.7282,2.7307,2.7307,2.7307,2.7324,2.804,2.8385,2.8437,2.9161,2.948,2.9498,2.948,2.9463,2.9463,2.9463,2.9463,2.9463,2.9411,2.9429,2.9584,0.0,0.0,0.0,0.0,0.0,0.0,0.0,0.0,0.0,0.0,0.0,0.0,0.0,0.0,0.0,0.0,0.0,0.0,0.0,1.8313,1.99,2.1897,2.4947,2.7212,2.8514,3.0299,3.1739,3.2838,3.2751,3.2656,3.2537,3.2528,3.2379,3.2131,3.1908,3.2105,3.2606,3.2673,3.2947,3.3249,3.2723,3.1564,2.9976,2.812,2.5765,2.3433,0.0,0.0,0.0,0.0,2.016,1.9651,2.0325,0.0,0.0,1.8673,1.8126,1.8028,1.9236,0.0,2.0936,2.2402,2.3277,2.4019,2.4841,2.5037,2.4948,2.4684,2.4276,2.3862,2.3533,2.3479,2.364,2.4119,2.458,2.4871,2.4871,2.4653,2.4151,2.3228,2.2904,0.0,0.0,0.0,0.0,2.4727,2.5086,2.5555,2.6236,2.6349,2.6487,2.6666,2.6741,2.6916,2.7129,2.7242,2.7307,2.7307,2.7307,2.7799,2.8747,2.8506,2.8954,2.9946,3.0188,3.0575,3.0989,3.0489,3.0308,3.0308,3.0308,3.0308,3.036,3.0851,3.1024,3.0989,0.0,0.0,0.0,0.0,0.0,0.0,0.0,0.0,0.0,0.0,0.0,0.0,0.0,0.0,0.0,0.0,0.0,0.0,0.0,0.0,1.8862,2.0306,2.2693,2.4754,2.6382,2.7801,2.8938,2.9753,2.9753,2.9707,2.959,2.959,2.9807,3.0177,2.9917,3.0272,3.102,3.0803,3.0765,3.0796,2.9926,2.8701,2.7151,2.5236,2.3237,0.0,0.0,0.0,0.0,0.0,1.9145,1.9034,1.9176,1.8787,1.8326,1.8451,1.8676,1.9139,2.033,2.1366,2.2377,2.3561,2.4378,2.4952,2.5163,2.5211,2.4936,2.3957,2.3415,2.2872,2.2151,2.2216,2.2564,2.3026,2.369,2.4225,2.4475,2.4281,2.3936,2.3356,2.3079,0.0,0.0,0.0,0.0,2.4613,2.5487,2.6167,2.6522,2.6902,2.719,2.7366,2.7374,2.7474,2.7696,2.7686,2.7566,2.7307,2.7833,2.8437,2.9101,2.9196,2.9756,3.0705,3.0981,3.1361,3.1765,3.1292,3.1085,3.1085,3.1085,3.1085,3.1154,3.1637,3.18,3.174,0.0,0.0,0.0,0.0,0.0,0.0,0.0,0.0,0.0,0.0,0.0,0.0,0.0,0.0,0.0,0.0,0.0,0.0,0.0,0.0,0.0,1.9621,2.0424,2.208,2.4747,2.4087,2.4128,2.5003,2.5003,2.5197,2.5555,2.5555,2.6296,2.7634,2.7441,2.7815,2.8591,2.8309,2.775,2.698,2.6017,2.4819,2.3354,2.0926,0.0,0.0,0.0,0.0,0.0,0.0,0.0,0.0,0.0,0.0,1.8317,1.9079,1.9794,2.0508,2.1261,2.2499,2.3706,2.4387,2.5049,2.5364,2.467,2.4443,2.4006,2.2629,2.2313,2.207,0.0,0.0,2.2321,2.2386,2.3026,2.3723,2.4419,2.4,2.3934,0.0,0.0,0.0,0.0,0.0,0.0,2.4416,0.0,2.7658,2.6969,2.7901,2.8454,2.8454,2.8454,2.8437,2.8403,2.8368,2.804,2.7497,2.8816,2.9144,2.8627,3.005,3.0722,3.0791,3.1499,3.18,3.18,3.18,3.18,3.18,3.18,3.18,3.18,3.18,3.1818,3.1837,0.0,0.0,0.0,0.0,0.0,0.0,0.0,0.0,0.0,0.0,0.0,0.0,0.0,0.0,0.0,0.0,0.0,0.0,0.0,0.0,0.0,0.0,0.0,0.0,0.0,0.0,0.0,0.0,0.0,2.5003,2.4997,2.4997,2.5149,0.0,2.5352,2.5624,2.6069,2.5414,2.5213,2.5213,0.0,2.2973,2.2464,0.0,0.0,0.0,0.0,0.0,0.0,0.0,0.0,0.0,0.0,0.0,1.9367,2.0447,2.0896,2.143,2.3203,2.3957,2.4427,2.5137,2.5049,2.4734,2.454,2.3698,2.2669,2.177,2.1171,2.0613,0.0,0.0,0.0,2.2232,2.3026,0.0,2.4419,2.4996,0.0,0.0,0.0,2.5723,2.5444,2.6418,0.0,0.0,2.7239,2.7665,2.875,2.9067,2.9222,2.9222,2.9222,2.8954,2.8403,2.7859,2.8342,2.9825,2.9041,2.9472,3.092,3.0774,3.0998,3.1533,3.1714,3.18,3.18,3.18,3.18,3.18,3.18,3.18,3.18,3.18,3.1965,3.2162,0.0,0.0,0.0,0.0,0.0,0.0,0.0,0.0,0.0,0.0,0.0,0.0,0.0,0.0,0.0,0.0,0.0,0.0,0.0,0.0,0.0,0.0,0.0,0.0,0.0,0.0,0.0,0.0,0.0,0.0,0.0,2.1912,2.2397,2.2981,2.2981,2.3258,2.3655,0.0,0.0,0.0,0.0,0.0,0.0,0.0,0.0,0.0,0.0,0.0,0.0,0.0,0.0,1.8979,1.9604,2.0033,2.056,2.1883,0.0,2.296,2.4168,2.4734,2.5082,2.5493,2.5049,2.4329,2.3714,2.2969,2.2029,2.0661,2.0337,0.0,0.0,0.0,0.0,0.0,0.0,0.0,2.4124,2.4984,2.5556,0.0,2.6556,0.0,2.7415,2.8177,2.887,0.0,2.8896,2.8836,2.948,2.9834,3.0024,3.0024,3.0024,2.9843,2.9403,2.8997,2.9256,3.0162,2.9972,3.0386,3.13,3.1214,3.1412,3.18,0.0,3.18,3.18,3.18,3.18,3.18,3.18,3.1893,3.2011,3.2011,3.2231,3.2511,0.0,0.0,0.0,0.0,0.0,0.0,0.0,0.0,0.0,0.0,0.0,0.0,0.0,0.0,0.0,0.0,0.0,0.0,0.0,0.0,0.0,0.0,0.0,0.0,0.0,0.0,0.0,0.0,0.0,0.0,0.0,0.0,0.0,0.0,0.0,0.0,0.0,0.0,0.0,0.0,0.0,0.0,0.0,0.0,0.0,0.0,0.0,0.0,0.0,0.0,1.8891,1.918,2.0991,2.1579,2.1851,2.3237,2.4047,2.4524,2.4621,2.5105,2.559,2.5477,2.4903,2.3989,2.258,2.2183,2.1576,1.9598,0.0,0.0,1.9461,0.0,2.0459,2.0556,0.0,2.2785,2.3885,2.4562,2.5721,2.7759,2.8117,2.8588,2.9567,2.9739,3.0093,3.0791,3.0843,3.0541,2.9842,3.0481,3.0843,3.0843,3.0757,3.0757,3.0843,3.055,3.0196,2.9825,3.0955,3.1274,3.0878,3.1516,3.18,3.18,0.0,0.0,3.1955,3.1955,3.1975,3.2021,3.2021,3.216,3.2378,3.2378,3.2569,3.2876,0.0,0.0,0.0,0.0,0.0,0.0,0.0,0.0,0.0,0.0,1.1391,1.0254,0.0,0.0,0.0,0.0,0.0,0.0,0.0,0.0,0.0,0.0,0.0,0.0,0.0,0.0,0.0,0.0,0.0,0.0,0.0,0.0,0.0,0.0,0.0,0.0,0.0,0.0,0.0,0.0,0.0,0.0,0.0,0.0,0.0,0.0,0.0,0.0,0.0,0.0,1.9904,2.031,2.1101,2.2159,2.3285,2.4095,2.441,2.4637,2.5234,2.5509,2.5445,2.4839,2.4176,2.3301,2.1819,2.1058,0.0,0.0,0.0,2.0256,2.0127,2.0677,0.0,2.1948,0.0,0.0,0.0,0.0,2.5975,0.0,0.0,0.0,0.0,0.0,0.0,0.0,0.0,3.1541,3.1403,3.1524,3.161,3.161,3.1016,3.0998,3.1602,2.973,2.9661,3.1386,3.0386,3.0506,3.161,3.1731,3.18,3.18,3.18,0.0,3.2714,3.2714,3.2875,3.3115,3.3115,3.2949,3.2699,3.2699,3.2931,3.3304,0.0,0.0,0.0,0.0,0.0,0.0,0.0,1.544,1.4785,1.4405,1.2945,1.1644,1.084,1.0831,1.1404,0.0,0.0,0.0,0.0,0.0,0.0,0.0,0.0,0.0,0.0,0.0,0.0,0.0,0.0,0.0,0.0,0.0,0.0,0.0,0.0,0.0,0.0,0.0,0.0,0.0,0.0,0.0,0.0,0.0,0.0,0.0,0.0,0.0,0.0,0.0,1.9604,2.0064,2.1437,2.2612,2.3634,2.4306,2.4774,2.5146,2.5509,2.5597,2.5428,2.4686,2.3706,2.2645,2.156,0.0,0.0,0.0,0.0,2.0815,2.0815,0.0,0.0,0.0,0.0,0.0,0.0,0.0,0.0,0.0,0.0,0.0,0.0,0.0,0.0,0.0,0.0,3.18,3.18,3.18,3.18,3.18,3.1464,3.1257,3.124,3.0524,3.0533,3.1214,3.0869,3.1076,3.18,3.18,3.18,3.18,3.18,0.0,3.2923,3.3131,3.3551,3.4039,3.3802,3.3699,3.3625,3.3214,3.3537,3.4243,0.0,0.0,0.0,0.0,0.0,0.0,0.0,1.6678,1.6219,1.6038,1.4756,1.3639,1.3008,1.2355,1.2456,0.0,0.0,0.0,0.0,0.0,0.0,0.0,0.0,0.0,0.0,0.0,0.0,0.0,0.0,0.0,0.0,0.0,0.0,0.0,0.0,0.0,0.0,0.0,0.0,0.0,0.0,0.0,0.0,0.0,0.0,0.0,0.0,0.0,0.0,0.0,1.8976,1.9339,2.1154,2.2426,2.3366,2.3901,2.4677,2.5364,2.5364,2.5477,2.5396,2.4508,2.3341,2.2167,2.1285,2.067,0.0,0.0,0.0,2.1293,2.1293,0.0,0.0,0.0,0.0,0.0,0.0,0.0,0.0,0.0,0.0,0.0,0.0,0.0,0.0,0.0,0.0,0.0,3.18,3.18,3.18,3.18,3.18,3.1524,3.0947,3.1351,3.1351,3.0947,3.1361,3.1645,3.18,3.18,3.1924,3.2171,3.2171,0.0,0.0,3.3995,3.4544,3.5128,3.4765,3.4724,3.4818,3.4185,3.4513,3.5279,0.0,0.0,0.0,0.0,0.0,0.0,0.0,1.8819,1.8511,1.7773,1.6907,1.6349,1.6276,1.3651,1.2878,0.0,0.0,0.0,0.0,0.0,0.0,0.0,0.0,0.0,0.0,0.0,0.0,0.0,0.0,0.0,0.0,0.0,0.0,0.0,0.0,0.0,0.0,0.0,0.0,0.0,0.0,0.0,0.0,0.0,0.0,0.0,0.0,0.0,0.0,0.0,0.0,1.8588,1.9274,2.0887,2.2515,2.2572,0.0,0.0,2.4605,2.5098,2.5283,2.3933,2.2985,2.2054,2.071,0.0,0.0,0.0,2.0832,2.1293,2.1293,2.1293,0.0,0.0,0.0,0.0,0.0,0.0,0.0,0.0,0.0,0.0,0.0,0.0,0.0,0.0,0.0,0.0,3.18,3.18,3.18,3.18,3.18,3.1775,3.1696,3.1102,3.1102,3.1679,3.1085,3.1154,3.18,3.18,3.2366,3.3336,3.3336,0.0,0.0,3.6132,3.6367,3.6698,3.665,3.6438,3.6138,3.6047,3.6098,3.6174,0.0,0.0,0.0,0.0,0.0,0.0,1.9091,1.8697,1.8443,1.8606,1.7081,1.6356,1.7324,1.5411,1.4875,1.6852,0.0,0.0,0.0,0.0,0.0,0.0,0.0,0.0,0.0,0.0,0.0,0.0,0.0,0.0,0.0,0.0,0.0,0.0,0.0,0.0,0.0,0.0,0.0,0.0,0.0,0.0,0.0,0.0,0.0,0.0,0.0,0.0,0.0,0.0,0.0,0.0,1.7954,1.886,0.0,0.0,2.2758,2.3982,2.4387,2.5033,2.5267,2.3852,2.2612,2.1592,2.1018,0.0,0.0,2.0734,2.1115,2.1293,2.1293,2.1293,2.1293,0.0,0.0,0.0,0.0,0.0,0.0,0.0,0.0,0.0,0.0,0.0,0.0,0.0,0.0,0.0,3.18,3.18,3.18,3.18,3.18,3.1585,3.1136,3.1292,3.1292,3.1136,3.1292,3.1616,3.21,3.21,3.2713,3.3771,3.3283,0.0,0.0,3.6101,3.6627,3.7601,3.7356,3.7153,3.6953,3.6475,3.6604,3.7008,0.0,0.0,0.0,0.0,0.0,1.9091,1.9091,1.8624,1.8457,1.8998,1.7376,1.6685,1.8045,1.6977,1.6702,1.8077,1.7999,0.0,0.0,0.0,0.0,0.0,0.0,0.0,0.0,0.0,0.0,0.0,0.0,0.0,0.0,0.0,0.0,0.0,0.0,0.0,0.0,0.0,0.0,0.0,0.0,0.0,0.0,0.0,0.0,0.0,0.0,0.0,0.0,0.0,0.0,0.0,0.0,0.0,0.0,0.0,2.1535,2.2953,2.3439,2.4256,2.4693,2.348,2.2086,2.1058,0.0,0.0,1.9607,2.101,2.1293,2.1293,2.1293,2.1293,2.1293,0.0,0.0,0.0,0.0,0.0,0.0,0.0,0.0,0.0,0.0,0.0,0.0,0.0,0.0,0.0,0.0,3.18,3.18,3.18,3.18,3.155,3.1033,3.1642,3.1696,3.1185,3.1794,3.2223,3.2471,3.2683,3.3424,3.4492,0.0,0.0,0.0,3.6723,3.7256,3.8247,3.7963,3.7852,3.7779,3.7221,3.7375,3.7823,0.0,0.0,0.0,0.0,0.0,0.0,1.9091,1.9091,1.9074,1.9019,1.8289,1.806,1.8819,1.8164,1.7994,1.8814,1.8214,0.0,0.0,0.0,0.0,0.0,0.0,0.0,0.0,0.0,0.0,0.0,0.0,0.0,0.0,0.0,0.0,0.0,0.0,0.0,0.0,0.0,0.0,0.0,0.0,0.0,0.0,0.0,0.0,0.0,0.0,0.0,0.0,0.0,0.0,0.0,0.0,0.0,0.0,0.0,1.9657,2.1325,2.1325,2.2402,2.3334,2.2596,2.1357,2.0475,0.0,0.0,1.9607,2.101,2.1293,2.1293,2.1293,2.1293,2.1293,2.1293,0.0,0.0,0.0,0.0,0.0,0.0,0.0,0.0,0.0,0.0,0.0,0.0,0.0,0.0,0.0,3.18,3.18,3.18,3.18,3.18,3.1792,3.2135,3.2292,3.2301,3.2635,3.2787,3.283,3.3616,3.4596,0.0,0.0,0.0,0.0,3.8681,3.8681,3.8699,3.8681,3.8689,3.8689,3.8689,3.8689,3.8579,0.0,0.0,0.0,0.0,0.0,0.0,0.0,1.9036,1.9005,1.8944,1.8239,1.7826,1.8052,1.7846,1.7806,1.8065,1.8365,0.0,0.0,0.0,0.0,0.0,0.0,0.0,0.0,0.0,0.0,1.8797,0.0,0.0,0.0,0.0,0.0,0.0,0.0,0.0,0.0,0.0,0.0,0.0,0.0,0.0,0.0,0.0,0.0,0.0,0.0,0.0,0.0,0.0,0.0,0.0,0.0,0.0,0.0,1.7484,0.0,0.0,2.0483,2.1285,2.1827,2.1147,2.0248,1.9736,2.0451,0.0,1.9607,2.101,2.1293,2.1293,2.1293,2.1293,2.1356,2.1541,2.17,0.0,0.0,0.0,0.0,0.0,0.0,0.0,0.0,0.0,0.0,0.0,0.0,0.0,0.0,3.18,3.18,3.18,3.18,3.18,3.18,3.2135,3.2301,3.2301,3.2643,3.2913,3.3139,3.3409,0.0,0.0,0.0,0.0,0.0,3.7301,3.7716,3.8699,3.8699,3.8699,3.8699,3.8699,3.8699,3.867,0.0,0.0,0.0,0.0,0.0,0.0,0.0,1.8979,1.8958,1.8918,1.8466,1.8143,1.8122,1.8118,1.8118,1.8118,1.8565,0.0,0.0,0.0,0.0,0.0,0.0,0.0,0.0,0.0,1.8958,1.9248,1.9248,1.9248,0.0,0.0,0.0,0.0,0.0,0.0,0.0,0.0,0.0,0.0,0.0,0.0,1.8606,0.0,0.0,0.0,0.0,0.0,0.0,0.0,0.0,0.0,0.0,0.0,0.0,0.0,1.8301,1.9241,0.0,1.9981,2.0402,1.9988,1.9542,0.0,0.0,0.0,0.0,2.1074,2.1293,2.1293,2.1293,2.1293,2.1484,2.2025,2.1957,0.0,0.0,0.0,0.0,0.0,0.0,0.0,0.0,0.0,0.0,0.0,0.0,0.0,0.0,3.18,3.1856,3.1975,3.1984,3.1984,3.1984,3.2445,3.2685,3.2676,3.3024,3.3288,3.3505,3.3789,0.0,0.0,0.0,0.0,0.0,3.6824,3.7338,3.8274,3.8579,3.8699,3.8699,3.8699,3.8765,3.8851,0.0,0.0,0.0,0.0,0.0,0.0,0.0,1.8935,1.89,1.8883,1.8896,1.8874,1.8802,1.8797,1.8797,1.8797,0.0,0.0,0.0,0.0,0.0,0.0,0.0,0.0,0.0,1.8797,1.9176,1.9912,1.9912,1.9912,1.9895,1.9154,0.0,0.0,0.0,0.0,0.0,0.0,0.0,0.0,1.848,1.8375,0.0,0.0,0.0,0.0,0.0,0.0,0.0,0.0,0.0,0.0,0.0,0.0,0.0,0.0,0.0,0.0,0.0,1.8683,1.9193,1.9193,1.9193,1.9387,0.0,0.0,0.0,0.0,2.1293,2.1293,2.1293,2.1357,2.1719,2.2672,0.0,0.0,0.0,0.0,0.0,0.0,0.0,0.0,0.0,0.0,0.0,0.0,0.0,0.0,0.0,3.18,3.1956,3.2292,3.2326,3.2344,3.2344,3.2978,3.3306,3.3306,3.3645,3.3807,3.3825,3.4564,3.4912,0.0,0.0,0.0,0.0,3.718,3.7529,3.7658,3.8414,3.8715,3.8738,3.8738,3.8903,3.9135,0.0,0.0,0.0,0.0,0.0,0.0,0.0,0.0,0.0,0.0,1.8815,1.8811,1.8797,1.8797,1.8797,0.0,0.0,0.0,0.0,0.0,0.0,0.0,0.0,0.0,0.0,1.8797,1.8886,1.9082,1.9082,1.9082,1.9082,1.8886,1.8797,1.8797,1.8601,1.8619,1.8788,0.0,0.0,0.0,1.8237,1.8161,0.0,0.0,0.0,0.0,1.7236,1.7123,0.0,0.0,0.0,0.0,0.0,0.0,0.0,0.0,1.9017,1.9875,1.9137,0.0,1.9193,1.9193,1.9193,1.9387,0.0,0.0,0.0,0.0,0.0,2.1293,2.1293,2.1928,2.259,0.0,0.0,0.0,0.0,0.0,0.0,0.0,0.0,0.0,0.0,0.0,0.0,0.0,0.0,0.0,0.0,3.18,3.1956,3.2292,3.2544,3.2674,3.2674,3.3093,3.3306,3.3306,3.3645,3.3807,3.3807,3.4009,3.4075,0.0,0.0,0.0,3.6365,3.718,3.7852,3.8432,3.8634,3.884,3.9014,3.9014,3.919,3.9414,0.0,0.0,0.0,0.0,0.0,0.0,0.0,0.0,0.0,0.0,0.0,0.0,0.0,0.0,0.0,0.0,0.0,0.0,0.0,0.0,0.0,0.0,0.0,0.0,0.0,1.8797,1.8975,1.9355,1.9355,1.9355,1.9337,1.8975,1.8797,1.8797,1.8797,1.8732,1.8601,1.8573,1.844,1.826,1.8007,0.0,0.0,0.0,0.0,0.0,1.7141,1.7101,0.0,1.7101,1.7101,1.7101,0.0,0.0,0.0,0.0,1.9632,2.067,2.0273,1.9688,1.9193,1.9193,1.9445,1.981,0.0,0.0,0.0,0.0,0.0,0.0,2.1293,0.0,0.0,0.0,0.0,0.0,0.0,0.0,0.0,0.0,0.0,0.0,0.0,0.0,0.0,0.0,0.0,0.0,0.0,3.1928,3.2153,3.2529,3.2821,3.2993,3.3032,3.3354,3.3522,3.3529,3.3707,3.3807,3.3807,3.3807,3.3807,0.0,0.0,0.0,3.5764,3.6604,3.743,3.8198,3.8689,3.8971,3.9115,3.9232,3.9446,3.9688,0.0,0.0,0.0,0.0,0.0,0.0,0.0,0.0,0.0,0.0,0.0,0.0,0.0,0.0,0.0,0.0,0.0,0.0,0.0,0.0,0.0,0.0,0.0,0.0,1.8797,1.8797,1.9136,1.9823,1.993,2.0002,1.9984,1.9301,1.8913,1.8774,1.8751,1.8629,1.8416,1.8477,1.8265,1.7908,1.7788,0.0,0.0,0.0,0.0,0.0,0.0,0.0,0.0,1.7101,1.7101,1.7101,1.7101,0.0,0.0,0.0,0.0,0.0,2.1293,2.0434,1.951,1.951,1.9988,2.0443,0.0,0.0,0.0,0.0,0.0,0.0,0.0,0.0,0.0,0.0,0.0,0.0,0.0,0.0,0.0,0.0,0.0,0.0,0.0,0.0,0.0,0.0,0.0,0.0,0.0,3.2055,3.2386,3.2852,3.3081,3.3265,3.3379,3.3659,3.3807,3.3807,3.3807,3.3807,3.3807,3.3807,3.3807,3.3807,0.0,0.0,3.5261,3.6138,3.6982,3.7827,3.875,3.9144,3.9245,3.9483,3.9728,3.9951,0.0,0.0,0.0,0.0,0.0,0.0,0.0,0.0,0.0,0.0,0.0,0.0,0.0,0.0,0.0,0.0,0.0,0.0,0.0,0.0,0.0,0.0,0.0,1.8797,1.8797,1.8797,1.8868,1.8975,1.9663,2.0002,2.0002,1.9877,1.9383,1.8631,1.8514,1.8465,1.846,1.8142,1.8002,1.7952,1.7596,0.0,0.0,0.0,0.0,0.0,0.0,0.0,0.0,1.7101,1.7101,1.7101,1.7101,0.0,0.0,0.0,0.0,0.0,2.1293,2.1131,2.0977,2.0977,2.1058,2.1155,0.0,0.0,0.0,0.0,0.0,0.0,0.0,0.0,0.0,0.0,0.0,0.0,0.0,0.0,0.0,0.0,0.0,0.0,0.0,0.0,0.0,0.0,0.0,0.0,0.0,3.2003,3.2377,3.3111,3.3182,3.3375,3.3721,3.3768,3.3807,3.3807,3.3807,3.3807,3.3807,3.3807,3.3807,3.3844,0.0,3.5305,3.6156,3.6971,3.7922,3.8871,3.905,3.9382,3.9779,3.9818,4.0007,4.0239,0.0,0.0,0.0,0.0,0.0,0.0,0.0,0.0,0.0,0.0,0.0,0.0,0.0,0.0,0.0,0.0,0.0,0.0,0.0,0.0,0.0,0.0,1.9029,1.8797,1.8797,1.923,1.9444,1.9444,2.0169,2.0327,1.9888,1.9407,1.8964,1.8536,1.848,1.8335,1.8105,1.7997,1.7788,1.7502,0.0,0.0,0.0,0.0,0.0,0.0,0.0,0.0,0.0,0.0,1.7101,1.7166,1.7533,0.0,0.0,0.0,0.0,0.0,2.1293,2.1293,2.1293,2.1293,2.1293,0.0,0.0,0.0,0.0,0.0,0.0,0.0,0.0,0.0,0.0,0.0,0.0,0.0,0.0,0.0,0.0,0.0,0.0,0.0,0.0,0.0,0.0,0.0,0.0,0.0,0.0,0.0,3.2766,3.3121,3.3309,3.353,3.3746,3.3787,3.3807,3.3807,3.3807,3.3807,3.3807,3.3807,3.4045,3.4472,0.0,3.5488,3.6336,3.6823,3.7294,3.7777,3.8028,3.8282,3.8576,3.9192,3.9486,3.9656,0.0,0.0,0.0,0.0,0.0,0.0,0.0,0.0,0.0,0.0,0.0,0.0,0.0,0.0,0.0,0.0,0.0,0.0,0.0,0.0,1.9065,1.9698,1.9099,1.8934,1.9332,1.9741,2.0052,2.023,2.0898,2.0815,2.003,1.9172,1.866,1.8455,1.8375,1.8154,1.7828,1.7833,1.7567,1.7166,0.0,0.0,0.0,0.0,0.0,0.0,0.0,0.0,0.0,0.0,0.0,0.0,0.0,0.0,0.0,1.9875,2.0645,2.1293,2.1293,2.1293,2.1293,2.1293,0.0,0.0,0.0,0.0,0.0,0.0,0.0,0.0,0.0,0.0,0.0,0.0,0.0,0.0,0.0,0.0,0.0,0.0,0.0,0.0,0.0,0.0,0.0,0.0,0.0,0.0,0.0,0.0,3.3086,3.3185,3.343,3.3626,3.3698,3.3753,3.3787,3.3807,3.3807,3.3807,3.3807,3.3807,3.413,3.4729,3.4729,3.5195,3.6012,3.6239,3.6476,3.6733,3.7136,3.7344,3.7527,3.8608,3.9011,3.9121,0.0,0.0,0.0,0.0,0.0,0.0,0.0,0.0,0.0,0.0,0.0,0.0,0.0,0.0,0.0,0.0,0.0,0.0,0.0,0.0,1.8833,1.8886,1.8709,1.9348,2.0906,2.0195,2.0174,2.0934,2.1532,2.1469,2.0707,1.9961,1.9149,1.8295,1.7987,1.7872,1.7866,1.7503,1.7332,1.729,1.7302,0.0,0.0,0.0,0.0,0.0,0.0,0.0,0.0,0.0,0.0,0.0,0.0,0.0,1.9209,1.9257,2.0248,2.1293,2.1293,2.1293,2.1293,2.1293,0.0,0.0,0.0,0.0,0.0,0.0,0.0,0.0,0.0,0.0,0.0,0.0,0.0,0.0,0.0,0.0,0.0,0.0,0.0,0.0,0.0,0.0,0.0,0.0,0.0,0.0,0.0,0.0,0.0,3.3455,3.3484,3.357,3.3698,3.3698,3.3739,3.3807,3.3807,3.3807,3.3807,3.3807,3.3825,3.3899,3.3899,3.4351,3.5117,3.5382,3.6074,3.6986,3.7206,3.7443,3.7771,3.8663,3.9011,3.9121,0.0,0.0,0.0,0.0,0.0,0.0,0.0,0.0,0.0,0.0,0.0,0.0,0.0,0.0,0.0,0.0,0.0,0.0,0.0,0.0,1.8904,1.9406,1.8849,1.9273,2.0873,2.0596,2.0798,2.1567,2.126,2.0668,1.9847,1.9111,1.8586,1.8229,1.8114,1.7911,1.7704,1.7549,1.7371,1.7181,1.7181,1.7148,0.0,0.0,0.0,0.0,0.0,0.0,0.0,0.0,1.7101,1.7247,1.8139,1.8771,1.9371,2.0248,2.088,2.1293,2.1293,2.1293,2.1293,2.1293,0.0,0.0,0.0,0.0,0.0,0.0,0.0,0.0,0.0,0.0,0.0,0.0,0.0,0.0,0.0,0.0,0.0,0.0,0.0,0.0,0.0,0.0,0.0,0.0,0.0,0.0,0.0,3.3011,3.3298,3.3437,3.3481,3.3541,3.3647,3.3678,3.3732,3.3807,3.3807,3.3807,3.3807,3.3807,3.4082,3.4559,3.4729,3.4973,3.5277,3.5675,3.5778,3.5713,3.5913,3.6058,3.626,3.7116,3.7765,3.8323,0.0,0.0,0.0,0.0,0.0,0.0,0.0,0.0,0.0,0.0,0.0,0.0,0.0,0.0,0.0,0.0,0.0,0.0,0.0,1.8622,1.8804,1.9366,1.8786,1.9041,2.036,2.0579,2.108,2.1879,2.097,2.0114,1.928,1.8545,1.82,1.82,1.813,1.7911,1.7595,1.7526,1.7358,1.7101,1.7101,1.7101,0.0,0.0,0.0,0.0,0.0,0.0,0.0,0.0,1.728,1.7312,1.8473,1.9014,1.9387,2.0353,2.0945,2.1293,2.1293,2.1293,2.1293,0.0,0.0,0.0,0.0,0.0,0.0,0.0,0.0,0.0,0.0,0.0,0.0,0.0,0.0,0.0,0.0,0.0,0.0,0.0,0.0,0.0,0.0,0.0,0.0,0.0,0.0,0.0,0.0,3.322,3.3444,3.3393,3.3444,3.3499,3.3605,3.3654,3.3712,3.3807,3.3807,3.3807,3.3807,3.3807,3.4094,3.464,3.4895,3.5014,3.5058,3.553,3.5429,3.5014,3.516,3.5205,3.5339,3.6466,3.7077,3.7521,0.0,0.0,0.0,0.0,0.0,0.0,0.0,0.0,0.0,0.0,0.0,0.0,0.0,0.0,0.0,0.0,0.0,0.0,0.0,1.8544,1.8495,1.8495,1.8373,1.8666,1.9467,2.0073,2.0852,2.1788,2.0863,2.0021,1.9263,1.8545,0.0,0.0,1.7982,1.7788,1.7589,1.738,1.721,1.7101,1.7101,1.7101,1.7101,0.0,0.0,0.0,0.0,0.0,0.0,0.0,1.7662,1.7225,1.7915,1.8618,1.9209,1.9216,2.0215,2.1293,2.1293,2.1293,0.0,0.0,0.0,0.0,0.0,0.0,0.0,0.0,0.0,0.0,0.0,0.0,0.0,0.0,0.0,0.0,0.0,0.0,0.0,0.0,0.0,0.0,0.0,0.0,0.0,0.0,0.0,0.0,0.0,3.3167,3.3375,3.3393,3.3393,3.3466,3.3598,3.3605,3.3664,3.3807,3.3807,3.3807,3.3807,3.3807,3.3807,3.3809,3.4086,3.4209,3.4251,3.4703,3.5023,3.5205,3.5205,3.5205,3.5396,3.7063,3.7177,3.6863,0.0,0.0,0.0,0.0,0.0,0.0,0.0,0.0,0.0,0.0,0.0,0.0,0.0,0.0,0.0,0.0,0.0,0.0,0.0,1.8423,1.8363,1.8363,1.8286,1.8345,1.8569,1.9268,2.0021,2.0828,2.0539,1.9763,1.8528,0.0,0.0,1.7977,0.0,0.0,1.7396,1.7326,1.721,1.7101,1.7101,1.7101,1.7101,0.0,0.0,0.0,0.0,0.0,0.0,0.0,0.0,0.0,1.9252,1.9803,2.0062,2.0548,2.097,2.1293,2.1293,0.0,0.0,0.0,0.0,0.0,0.0,0.0,0.0,0.0,0.0,0.0,0.0,0.0,0.0,0.0,0.0,0.0,0.0,0.0,0.0,0.0,0.0,0.0,0.0,0.0,0.0,0.0,0.0,0.0,0.0,3.1642,3.1969,3.2542,3.256,3.2864,3.352,3.3577,3.3636,3.3732,3.378,3.3807,3.3807,3.3807,3.3901,3.4099,3.4314,3.4516,3.4703,3.501,3.516,3.5205,3.5205,3.5205,3.5263,3.5759,3.618,3.6615,0.0,0.0,0.0,0.0,0.0,0.0,0.0,0.0,0.0,0.0,1.8719,1.8682,0.0,0.0,0.0,0.0,0.0,0.0,1.8413,1.8325,1.8263,1.8263,1.8225,1.8338,1.8631,1.9074,1.9476,1.9841,1.9923,1.9315,0.0,0.0,1.7855,1.7777,0.0,1.7491,1.7308,1.7308,1.721,1.7128,1.7387,1.75,1.7533,0.0,0.0,0.0,0.0,0.0,0.0,0.0,0.0,0.0,1.9932,0.0,0.0,2.0783,2.1091,2.1293,2.1293,0.0,0.0,0.0,0.0,0.0,0.0,0.0,0.0,0.0,0.0,0.0,0.0,0.0,0.0,0.0,0.0,0.0,0.0,0.0,0.0,0.0,0.0,0.0,0.0,0.0,0.0,0.0,0.0,0.0,0.0,3.0991,3.1372,3.2162,3.2233,3.2664,3.3534,3.3612,3.3671,3.3739,3.3787,3.3807,3.3807,3.3807,3.3947,3.4221,3.4526,3.4803,3.5032,3.5145,3.5205,3.5205,3.5205,3.5205,3.5244,3.5587,3.5836,3.608,0.0,0.0,1.8797,1.8797,0.0,0.0,0.0,0.0,0.0,0.0,1.8585,1.8565,0.0,0.0,0.0,1.8465,1.8358,1.8285,1.8285,1.8229,1.82,1.82,1.82,1.851,1.9194,1.9183,1.9087,1.8903,1.9156,0.0,0.0,0.0,1.7755,1.7577,0.0,1.7444,1.7278,1.7278,1.724,1.7241,1.785,1.8135,1.8271,1.8942,0.0,0.0,0.0,0.0,0.0,0.0,0.0,0.0,2.0159,2.0386,2.0386,2.0386,2.0824,2.1293,0.0,0.0,0.0,0.0,0.0,0.0,0.0,0.0,0.0,0.0,0.0,0.0,0.0,0.0,0.0,0.0,0.0,0.0,0.0,0.0,0.0,0.0,0.0,0.0,0.0,0.0,0.0,0.0,0.0,0.0,0.0,3.0774,3.1154,3.1969,3.2039,3.2527,3.3463,3.354,3.3652,3.3793,3.3807,3.3802,3.3847,3.3847,3.3998,3.4299,3.4723,3.5037,3.5205,3.5205,3.5205,3.5205,3.5205,3.5205,3.5301,3.608,3.5874,3.5415,0.0,0.0,1.8797,1.8797,0.0,0.0,0.0,0.0,0.0,0.0,0.0,0.0,0.0,0.0,0.0,1.8267,1.8241,1.8225,1.8225,1.8216,1.82,1.82,1.82,1.8269,1.8424,1.8282,1.8188,1.8138,1.8751,0.0,0.0,0.0,0.0,1.7356,0.0,1.7179,1.7148,1.7148,1.7425,1.7899,1.8045,1.8456,1.8982,1.9144,1.9193,0.0,0.0,0.0,0.0,0.0,0.0,0.0,2.088,2.1083,2.1083,2.1083,2.118,2.1293,0.0,0.0,0.0,0.0,0.0,0.0,0.0,0.0,0.0,0.0,0.0,0.0,0.0,0.0,0.0,0.0,0.0,0.0,0.0,0.0,0.0,0.0,0.0,0.0,0.0,0.0,0.0,0.0,0.0,0.0,2.9149,2.9131,2.9481,3.0285,3.0323,3.1059,3.2556,3.2657,3.3036,0.0,3.378,3.3908,3.4117,3.4117,3.435,3.4748,3.5013,3.5153,3.5205,3.5205,3.5205,3.5205,3.5205,3.5205,3.5224,3.5415,3.5358,3.5244,0.0,0.0,0.0,0.0,0.0,0.0,0.0,0.0,0.0,0.0,0.0,0.0,0.0,1.83,0.0,0.0,1.8255,1.8229,1.8205,1.82,1.82,1.82,1.8114,1.8054,1.8054,1.7861,1.7715,0.0,0.0,0.0,0.0,0.0,0.0,1.7679,0.0,1.7776,1.8084,1.7727,1.798,1.8635,1.8635,1.9072,1.9762,2.0086,2.0215,2.0215,2.0215,0.0,0.0,0.0,0.0,0.0,0.0,0.0,2.1293,2.1293,2.1293,2.1293,0.0,0.0,0.0,0.0,0.0,0.0,0.0,0.0,0.0,0.0,0.0,0.0,0.0,0.0,0.0,0.0,0.0,0.0,0.0,0.0,0.0,0.0,0.0,0.0,0.0,0.0,0.0,0.0,0.0,2.904,2.8611,2.86,2.8968,2.9766,2.9829,3.0643,3.2336,3.2411,3.2887,3.3753,3.3787,3.3986,3.4348,3.448,3.4662,3.4917,3.5111,3.5205,3.5205,3.5205,3.5205,3.5205,3.5205,3.5205,3.5205,3.5205,3.5205,3.5205,0.0,0.0,0.0,0.0,0.0,0.0,0.0,0.0,0.0,0.0,0.0,0.0,0.0,1.83,1.829,0.0,0.0,0.0,1.8151,1.8114,1.8108,1.814,1.795,1.7844,1.7844,1.7641,1.7467,0.0,0.0,0.0,0.0,0.0,0.0,1.8109,0.0,1.8635,1.9167,1.8554,1.8716,1.9387,1.9387,1.9826,2.0524,2.1091,2.1293,2.1293,2.1293,2.1293,2.1293,2.1293,0.0,0.0,0.0,0.0,2.1293,2.1293,2.1293,2.1293,0.0,0.0,0.0,0.0,0.0,0.0,0.0,0.0,0.0,0.0,0.0,0.0,0.0,0.0,0.0,0.0,0.0,0.0,0.0,0.0,0.0,0.0,0.0,0.0,0.0,0.0,0.0,0.0,0.0,2.86,2.86,2.86,2.8914,2.956,2.9642,3.0415,3.1957,3.2031,3.2505,3.3371,3.3605,3.3981,3.4513,3.4812,3.4959,3.4969,3.5124,3.5205,3.5205,3.5205,3.5205,3.5205,3.5205,3.5205,3.5205,3.5205,3.5205,3.5205,0.0,0.0,0.0,0.0,0.0,0.0,0.0,0.0,0.0,0.0,1.8506,1.844,1.831,1.83,1.8277,1.822,1.8209,1.8146,1.7955,0.0,0.0,1.7939,1.7743,1.7641,1.7641,1.7433,1.7332,0.0,0.0,0.0,0.0,0.0,0.0,1.8126,0.0,0.0,1.9193,1.9095,1.9477,2.0143,2.0143,2.0556,2.1188,2.1277,2.1293,2.1293,0.0,0.0,0.0,2.1293,2.1293,0.0,0.0,0.0,2.1293,2.1293,2.1293,0.0,0.0,0.0,0.0,0.0,0.0,0.0,0.0,0.0,0.0,0.0,0.0,0.0,0.0,0.0,0.0,0.0,0.0,0.0,0.0,0.0,0.0,0.0,0.0,0.0,0.0,0.0,0.0,0.0,2.904,2.86,2.86,2.86,2.8654,2.8763,2.8769,2.9248,3.0227,3.0304,3.0775,3.1657,3.28,3.376,3.4518,3.4954,3.5153,3.5153,3.5197,3.5205,3.5205,3.5205,3.5205,3.5205,3.5205,3.5205,3.5205,3.5205,3.5205,3.5205,0.0,0.0,0.0,0.0,0.0,0.0,0.0,0.0,0.0,0.0,0.0,1.8327,1.8295,1.8196,1.8172,1.8248,1.8074,1.7917,1.7738,1.7652,1.7641,1.7726,1.7537,1.7421,1.7421,1.7275,0.0,0.0,0.0,0.0,0.0,1.8945,1.9333,0.0,0.0,0.0,0.0,0.0,2.0224,2.0832,2.0443,2.0702,2.1293,2.1293,2.1293,0.0,0.0,0.0,0.0,0.0,0.0,2.1293,2.1293,0.0,0.0,0.0,0.0,0.0,0.0,0.0,0.0,0.0,0.0,0.0,0.0,0.0,0.0,0.0,0.0,0.0,0.0,0.0,0.0,0.0,0.0,0.0,0.0,0.0,0.0,0.0,0.0,0.0,0.0,0.0,0.0,0.0,2.8799,2.86,2.86,2.86,2.86,2.86,2.8637,2.9075,2.9951,3.0026,3.0546,3.1531,3.2275,3.2879,3.3322,3.365,3.4308,3.5205,3.5205,3.5205,3.5205,3.5205,3.5205,3.5205,3.5205,3.5205,3.5205,3.5205,3.5205,3.5205,0.0,0.0,0.0,0.0,0.0,0.0,0.0,0.0,0.0,0.0,0.0,1.8394,1.8201,0.0,0.0,0.0,1.7894,1.7715,1.7606,1.7519,1.749,1.7514,1.7349,1.7246,1.7246,0.0,0.0,0.0,0.0,0.0,1.8686,1.9787,2.0386,0.0,2.0556,0.0,0.0,0.0,0.0,0.0,0.0,2.084,0.0,0.0,0.0,0.0,0.0,0.0,0.0,0.0,0.0,0.0,0.0,0.0,0.0,0.0,0.0,0.0,0.0,0.0,0.0,0.0,0.0,0.0,0.0,0.0,0.0,0.0,0.0,0.0,0.0,0.0,0.0,0.0,0.0,0.0,0.0,0.0,0.0,0.0,0.0,0.0,0.0,0.0,0.0,0.0,2.86,2.86,2.86,2.86,2.86,2.86,2.8675,2.9009,2.9666,2.9753,3.033,3.1401,3.1679,3.2001,3.2403,3.2617,3.3387,3.4575,3.4804,3.4904,3.4904,3.511,3.5205,3.5205,3.5205,3.5205,3.5205,3.5205,3.5205,3.5205,0.0,0.0,0.0,0.0,0.0,0.0,0.0,0.0,0.0,0.0,0.0,1.8874,1.7929,1.838,1.8462,1.7697,1.7624,1.7606,1.7601,1.7307,1.7181,1.7314,1.7181,0.0,0.0,0.0,0.0,0.0,0.0,0.0,2.0192,2.0265,2.0637,2.1245,2.1245,2.1277,2.1293,0.0,0.0,0.0,0.0,2.1277,0.0,0.0,0.0,0.0,0.0,0.0,0.0,0.0,0.0,0.0,0.0,0.0,0.0,0.0,0.0,0.0,0.0,0.0,0.0,0.0,0.0,0.0,0.0,0.0,0.0,0.0,0.0,0.0,0.0,0.0,0.0,0.0,0.0,0.0,0.0,0.0,0.0,0.0,0.0,0.0,0.0,0.0,0.0,0.0,2.86,2.86,2.86,2.86,2.86,2.86,2.8675,2.8718,2.8773,2.89,2.9497,3.0572,3.0823,3.1464,3.2403,3.2617,3.2753,3.289,3.37,3.4067,3.4124,3.4885,3.5205,3.5205,3.5205,3.5205,3.5205,3.5205,3.5205,3.5205,0.0,0.0,0.0,0.0,0.0,0.0,0.0,0.0,0.0,0.0,0.0,0.0,0.0,1.907,1.8725,1.8521,1.7834,1.7366,1.7279,1.7176,1.7127,1.7169,1.7133,0.0,0.0,0.0,0.0,0.0,0.0,1.9779,2.0314,2.0734,2.1067,2.1293,2.1293,2.1293,2.1293,2.1293,0.0,0.0,2.1293,2.1293,0.0,0.0,0.0,0.0,0.0,0.0,0.0,0.0,0.0,0.0,0.0,0.0,0.0,0.0,0.0,0.0,0.0,0.0,0.0,0.0,0.0,0.0,0.0,0.0,0.0,0.0,0.0,0.0,0.0,0.0,0.0,0.0,0.0,0.0,0.0,0.0,0.0,0.0,0.0,0.0,0.0,0.0,0.0,0.0,0.0,2.86,2.86,2.86,2.8619,2.8651,2.8737,2.8804,2.8887,2.8934,2.9296,2.9914,3.002,3.0396,3.099,3.1054,3.1102,3.114,3.1981,3.2974,3.401,3.4315,3.4732,3.5205,3.5205,3.5205,3.5205,3.5205,3.5205,3.5205,0.0,0.0,0.0,0.0,0.0,2.0488,0.0,0.0,0.0,0.0,0.0,0.0,0.0,0.0,1.9376,1.9318,1.852,1.8048,1.8043,1.7889,1.7847,1.7902,1.7838,0.0,0.0,0.0,0.0,0.0,0.0,0.0,0.0,0.0,2.1293,2.1293,2.1293,2.1293,0.0,0.0,0.0,2.1293,0.0,0.0,2.1293,0.0,0.0,0.0,0.0,0.0,0.0,0.0,0.0,0.0,0.0,0.0,0.0,0.0,0.0,0.0,0.0,0.0,0.0,0.0,0.0,0.0,0.0,0.0,0.0,0.0,0.0,0.0,0.0,0.0,0.0,0.0,0.0,0.0,0.0,0.0,0.0,0.0,0.0,0.0,0.0,0.0,0.0,0.0,0.0,0.0,2.86,2.8619,2.8681,2.8755,2.8816,2.8881,2.8999,2.9072,2.927,2.9603,2.9667,2.9884,3.0208,3.0208,3.0208,3.0227,3.0777,3.1981,3.3586,3.3876,3.4464,3.5205,3.5205,3.5205,3.5205,3.5205,3.5205,3.5205,0.0,2.1659,2.1854,2.2561,2.1898,2.1225,2.1215,0.0,0.0,0.0,0.0,0.0,0.0,0.0,0.0,1.9934,1.9664,1.9615,1.9874,1.9476,1.9311,1.95,1.9309,0.0,0.0,0.0,0.0,0.0,0.0,0.0,0.0,0.0,2.1293,0.0,2.1293,2.1293,2.1293,0.0,2.1293,2.1293,0.0,2.1293,2.1293,0.0,0.0,0.0,2.1293,2.1293,0.0,0.0,0.0,0.0,0.0,0.0,0.0,0.0,0.0,0.0,0.0,0.0,0.0,0.0,0.0,0.0,0.0,0.0,0.0,0.0,0.0,0.0,0.0,0.0,0.0,0.0,0.0,0.0,0.0,0.0,0.0,0.0,0.0,0.0,0.0,0.0,0.0,0.0,2.86,2.86,2.86,2.8675,2.8755,2.8905,2.8905,2.894,2.9011,2.9201,2.941,2.9617,2.9813,3.0007,3.0208,3.0208,3.0208,3.0208,3.0208,3.114,3.2737,3.3605,3.4445,3.5205,3.5205,3.5205,3.5205,3.5205,3.5205,3.5205,2.2274,2.229,2.2296,2.2638,2.2354,2.1895,2.1356,0.0,0.0,0.0,0.0,0.0,0.0,0.0,2.0622,1.9954,1.9828,1.9815,1.9903,1.9776,1.973,1.9789,1.9737,1.9618,0.0,0.0,0.0,0.0,0.0,0.0,0.0,0.0,0.0,0.0,2.1293,2.1293,2.1293,2.1293,0.0,0.0,2.1293,2.1293,0.0,0.0,0.0,0.0,0.0,2.1293,0.0,0.0,2.1293,2.1293,0.0,0.0,0.0,0.0,0.0,0.0,2.1794,0.0,0.0,0.0,0.0,0.0,2.3467,2.3896,0.0,0.0,0.0,0.0,0.0,0.0,0.0,0.0,0.0,0.0,0.0,0.0,0.0,0.0,0.0,0.0,0.0,0.0,0.0,0.0,2.86,2.86,2.86,2.8706,2.8816,2.8905,2.894,2.9043,2.9217,2.9267,2.9461,2.9822,2.9872,3.0007,3.0208,3.0208,3.0208,3.0208,3.0208,3.0796,3.1821,3.2699,3.3906,3.5205,3.5205,3.5205,3.5205,3.5205,3.5205,3.5205,2.2619,2.2616,2.2569,2.2679,2.2525,2.2252,0.0,0.0,0.0,0.0,0.0,0.0,0.0,0.0,0.0,2.0998,2.0837,2.0773,2.0773,2.0599,2.0529,2.0657,2.0536,2.0416,0.0,0.0,0.0,0.0,0.0,0.0,0.0,0.0,0.0,0.0,0.0,0.0,0.0,0.0,0.0,0.0,2.1293,0.0,0.0,2.1293,2.1293,0.0,0.0,0.0,2.1293,2.1293,2.1293,0.0,0.0,0.0,0.0,0.0,0.0,0.0,0.0,0.0,0.0,0.0,0.0,0.0,2.3065,2.3357,2.3792,0.0,0.0,0.0,0.0,0.0,0.0,0.0,0.0,0.0,0.0,0.0,0.0,0.0,0.0,0.0,0.0,2.86,2.86,2.86,2.86,2.8619,2.8675,2.8779,2.887,2.894,2.8988,2.9106,2.9298,2.9385,2.957,2.9897,2.9992,3.0098,3.0208,3.0208,3.0208,3.0208,3.0208,3.0663,3.148,3.1954,3.3161,3.4732,3.5072,3.5205,3.5205,3.5205,3.5205,3.5218,0.0,2.2699,2.2699,2.2699,2.2555,2.2432,0.0,0.0,0.0,0.0,0.0,0.0,0.0,0.0,0.0,0.0,2.2224,2.2077,2.2077,2.1691,2.1564,2.1797,2.1587,2.1433,2.1387,0.0,0.0,0.0,0.0,0.0,0.0,0.0,0.0,0.0,2.1293,2.1293,0.0,0.0,0.0,2.1293,2.1293,2.1293,0.0,0.0,2.1293,0.0,2.139,2.1374,2.1293,2.1293,2.1293,0.0,0.0,0.0,0.0,0.0,2.1293,0.0,0.0,0.0,0.0,0.0,0.0,0.0,2.2626,2.3065,2.3477,0.0,0.0,0.0,0.0,0.0,0.0,0.0,0.0,0.0,0.0,0.0,0.0,0.0,0.0,0.0,2.86,2.86,2.86,2.86,2.8606,2.8662,2.8785,2.8864,2.8929,2.8999,2.901,2.9127,2.9334,2.9537,2.9729,2.9944,3.0101,3.0208,3.0208,3.0208,3.0208,3.0208,3.0208,3.0647,3.1369,3.1404,3.2439,3.4067,3.4789,3.511,3.5205,3.5205,3.5218,3.5239,2.2699,2.2699,2.2699,2.2699,2.2665,2.2639,0.0,0.0,0.0,0.0,0.0,0.0,0.0,0.0,0.0,0.0,2.2582,2.2561,2.2561,2.248,2.2453,2.2494,2.2453,2.225,2.1875,2.1868,0.0,0.0,0.0,0.0,0.0,0.0,0.0,0.0,0.0,0.0,0.0,0.0,0.0,2.1293,2.1293,0.0,2.1293,2.1293,2.1293,2.1374,2.1965,2.1803,2.1293,0.0,2.1293,2.1293,0.0,0.0,0.0,0.0,0.0,0.0,0.0,0.0,0.0,0.0,0.0,0.0,2.2377,2.2468,2.2718,0.0,0.0,0.0,0.0,0.0,0.0,0.0,0.0,0.0,0.0,0.0,0.0,0.0,0.0,0.0,2.86,2.86,2.86,2.86,2.8656,2.8724,2.8792,2.8864,2.8929,2.8999,2.9165,2.9334,2.9547,2.9734,2.9937,3.0142,3.0174,3.0208,3.0208,3.0208,3.0208,3.0208,3.0208,3.0303,3.0513,3.1197,3.2477,3.401,3.4163,3.4636,3.5205,3.5205,3.5278,3.5357,2.2699,2.2699,2.2699,2.2699,0.0,0.0,0.0,0.0,0.0,0.0,0.0,0.0,0.0,0.0,0.0,0.0,0.0,0.0,0.0,0.0,2.2354,2.2354,2.2354,2.2233,2.2013,2.2006,2.1847,0.0,0.0,0.0,0.0,0.0,0.0,0.0,0.0,0.0,0.0,0.0,2.1293,2.1293,2.1293,0.0,2.1342,2.1706,2.1851,2.1956,2.2677,2.271,2.2402,2.2402,2.2151,0.0,0.0,2.1609,2.1293,0.0,2.1293,2.1309,0.0,0.0,0.0,2.1866,0.0,0.0,0.0,2.2363,2.2454,0.0,0.0,0.0,0.0,0.0,0.0,0.0,0.0,0.0,0.0,0.0,0.0,0.0,0.0,0.0,2.86,2.86,2.86,2.86,2.8693,2.8767,2.8798,2.8912,2.9015,2.9149,2.9254,2.9431,2.9742,2.9851,3.0003,3.0208,3.0208,3.0208,3.0208,3.0208,3.0208,3.0208,3.0208,3.0208,3.0227,3.0666,3.1599,3.2844,3.3666,3.4258,3.4655,3.5053,3.5277,3.5408,2.2699,2.2699,2.2699,2.2699,0.0,0.0,0.0,0.0,0.0,0.0,0.0,0.0,0.0,0.0,0.0,0.0,0.0,0.0,0.0,0.0,0.0,2.2006,2.2006,2.1984,2.194,2.194,2.184,0.0,0.0,0.0,0.0,0.0,0.0,0.0,0.0,0.0,0.0,0.0,0.0,2.1511,0.0,2.1511,2.1576,2.2167,2.2499,2.2693,2.3294,2.3577,2.3674,2.3537,0.0,2.2612,2.2612,2.2199,0.0,0.0,0.0,0.0,0.0,0.0,0.0,0.0,0.0,2.2405,0.0,0.0,0.0,0.0,0.0,0.0,0.0,0.0,0.0,0.0,0.0,0.0,0.0,0.0,0.0,0.0,0.0,0.0,0.0,2.8612,2.8619,2.8619,2.8743,2.8816,2.8816,2.8923,2.9082,2.9293,2.934,2.9537,2.9893,2.9948,3.0038,3.0208,3.0208,3.0208,3.0208,3.0208,3.0208,3.0208,3.0208,3.0208,3.0208,3.0208,3.0609,3.1408,3.2921,3.3609,3.3861,3.4672,3.5076,3.5229,2.2699,2.2699,2.2699,2.2699,0.0,0.0,0.0,0.0,0.0,0.0,0.0,0.0,0.0,0.0,0.0,0.0,0.0,0.0,2.237,0.0,0.0,0.0,2.2006,2.1928,2.1738,2.173,2.1602,2.1356,0.0,0.0,0.0,0.0,0.0,0.0,2.1293,0.0,0.0,0.0,2.1673,0.0,2.228,2.228,0.0,2.2361,2.2807,2.3391,2.3472,2.3885,2.4306,0.0,2.344,2.3375,0.0,2.3326,0.0,0.0,0.0,0.0,0.0,0.0,0.0,0.0,2.2215,0.0,0.0,0.0,0.0,0.0,0.0,0.0,0.0,0.0,0.0,0.0,0.0,0.0,0.0,0.0,0.0,0.0,0.0,0.0,0.0,2.8638,2.8682,2.8682,2.8803,2.8893,2.8893,2.897,2.9082,2.9293,2.9479,2.9672,2.9893,3.0087,3.0171,3.0208,3.0208,3.0208,3.0208,3.0208,3.0208,3.0208,3.0208,3.0208,3.0208,3.0208,3.0265,3.0437,3.1347,3.2164,3.2967,3.3878,3.4307,3.4554,2.2699,2.2699,2.2699,2.2699,0.0,0.0,0.0,0.0,0.0,0.0,0.0,0.0,0.0,0.0,0.0,0.0,0.0,2.3123,0.0,0.0,0.0,0.0,0.0,0.0,2.2281,2.2281,2.2168,2.1947,2.1947,0.0,0.0,0.0,0.0,0.0,2.138,0.0,2.1325,0.0,0.0,0.0,0.0,0.0,0.0,2.3617,2.4087,2.4725,2.4725,2.4903,2.5098,0.0,2.4362,0.0,0.0,0.0,0.0,0.0,0.0,0.0,0.0,0.0,0.0,0.0,0.0,0.0,2.2303,0.0,2.2296,0.0,0.0,0.0,0.0,0.0,0.0,0.0,0.0,0.0,0.0,0.0,0.0,0.0,0.0,0.0,0.0,0.0,0.0,0.0,2.881,2.8887,2.8846,2.906,2.9275,2.9474,2.9672,2.9872,3.0064,3.0157,3.0208,3.0208,3.0208,3.0208,3.0208,3.0208,3.0208,3.0208,3.0208,3.0208,3.0208,3.0208,3.0208,3.0227,3.0567,3.1564,3.2912,3.3775,3.453,3.5167,2.2699,0.0,0.0,0.0,0.0,0.0,0.0,0.0,0.0,0.0,0.0,0.0,2.3302,2.3802,0.0,0.0,0.0,2.3877,0.0,0.0,2.3192,0.0,0.0,0.0,0.0,2.2949,2.277,2.2626,2.2399,0.0,0.0,0.0,0.0,0.0,0.0,2.1734,2.1869,0.0,0.0,2.3144,2.3766,2.443,2.5008,2.4863,2.513,2.5597,2.5597,2.5597,2.5597,2.5597,2.5148,0.0,2.5063,0.0,0.0,0.0,0.0,0.0,2.3844,0.0,0.0,0.0,0.0,0.0,0.0,0.0,0.0,0.0,0.0,0.0,0.0,0.0,0.0,0.0,0.0,0.0,0.0,0.0,0.0,0.0,0.0,0.0,0.0,0.0,0.0,0.0,0.0,2.8905,2.887,2.9141,2.9395,2.9598,2.9805,2.9999,3.0208,3.0208,3.0208,3.0208,3.0208,3.0208,3.0208,3.0208,3.0208,3.0208,3.0208,3.0208,3.0208,3.0208,3.0208,3.0208,3.0208,3.1171,3.2669,3.3258,3.4123,3.5043,2.2699,2.2699,0.0,0.0,0.0,0.0,0.0,0.0,0.0,0.0,0.0,0.0,0.0,0.0,0.0,0.0,0.0,2.4842,2.456,0.0,2.4444,0.0,0.0,2.4243,0.0,2.3547,2.3179,2.3171,2.2386,0.0,0.0,0.0,0.0,0.0,0.0,2.284,2.3169,2.3652,2.4232,2.4851,2.5196,2.5732,2.628,0.0,2.5581,2.5597,2.5597,0.0,0.0,2.5597,2.5581,0.0,0.0,0.0,0.0,0.0,0.0,0.0,0.0,0.0,0.0,2.4078,0.0,0.0,0.0,0.0,2.3156,0.0,0.0,0.0,0.0,0.0,0.0,0.0,0.0,0.0,0.0,0.0,0.0,0.0,0.0,0.0,0.0,0.0,0.0,0.0,0.0,0.0,2.8994,2.9185,2.9395,2.9598,2.9805,2.9999,3.0208,3.0208,3.0208,3.0208,3.0208,3.0208,3.0208,3.0208,3.0208,3.0208,3.0208,3.0208,3.0208,3.0208,3.0208,3.0208,3.0208,3.0863,3.184,3.186,3.2469,3.3409,0.0,0.0,0.0,0.0,0.0,0.0,0.0,2.4222,0.0,0.0,0.0,0.0,0.0,0.0,2.704,0.0,0.0,2.6268,2.5626,2.5146,0.0,0.0,0.0,2.4758,0.0,0.0,2.4399,2.4399,2.4118,0.0,0.0,0.0,0.0,0.0,0.0,2.3667,0.0,0.0,0.0,0.0,0.0,2.714,2.751,0.0,0.0,2.6629,2.6889,2.6707,0.0,2.6526,2.618,2.5763,2.6296,2.6164,2.5885,2.6365,2.6129,0.0,0.0,0.0,2.5091,2.5067,0.0,0.0,0.0,0.0,0.0,0.0,0.0,0.0,0.0,0.0,0.0,0.0,0.0,0.0,0.0,0.0,0.0,0.0,0.0,0.0,0.0,0.0,0.0,0.0,2.8607,0.0,0.0,2.9365,2.9594,2.9781,2.998,3.0135,3.0208,3.0208,3.0208,3.0208,3.0208,3.0208,3.0208,3.0208,3.0208,3.0208,3.0208,3.0208,3.0208,3.0208,3.0208,3.0199,3.0248,3.0543,3.1084,3.2235,3.3287,3.4248,2.4232,0.0,0.0,0.0,0.0,0.0,0.0,0.0,0.0,0.0,2.6757,0.0,2.7989,0.0,2.861,0.0,2.7833,2.7471,2.6946,2.623,0.0,2.5816,2.5816,0.0,0.0,0.0,2.5395,2.5395,0.0,2.5005,0.0,0.0,0.0,0.0,0.0,0.0,0.0,0.0,2.5874,0.0,0.0,2.8347,0.0,0.0,2.7914,2.7549,0.0,2.7781,2.7409,2.7316,2.6849,2.635,2.6623,2.6392,2.6118,2.6572,2.6452,2.6217,2.6271,2.605,0.0,2.5774,2.5536,0.0,2.494,0.0,0.0,0.0,0.0,0.0,0.0,0.0,0.0,0.0,0.0,0.0,0.0,2.3139,0.0,0.0,0.0,0.0,0.0,0.0,0.0,2.7499,2.8173,0.0,0.0,0.0,2.9689,2.9888,3.0106,3.0208,3.0208,3.0208,3.0208,3.0208,3.0208,3.0208,3.0208,3.0208,3.0208,3.0208,3.0208,3.0208,3.0208,3.0208,3.0208,3.0202,3.0276,3.0381,3.0641,3.1788,3.2842,3.3846,2.505,0.0,0.0,0.0,2.5074,0.0,0.0,0.0,2.6498,0.0,2.804,2.8799,2.9532,2.9601,2.9601,2.9601,2.8937,0.0,2.8506,2.7824,0.0,0.0,2.7359,2.7341,2.7307,0.0,0.0,0.0,0.0,0.0,0.0,0.0,0.0,0.0,2.5558,0.0,2.6182,2.6667,2.736,2.8185,2.8892,2.934,2.9644,3.0097,2.9472,2.8384,2.8648,2.8727,2.8583,2.7862,2.7497,2.7286,2.6851,2.6674,2.6666,2.6843,2.6893,2.6784,2.6271,2.641,2.6615,2.6228,0.0,0.0,0.0,0.0,2.5456,0.0,0.0,0.0,0.0,0.0,0.0,0.0,0.0,0.0,0.0,0.0,0.0,0.0,0.0,0.0,0.0,0.0,2.5845,2.7424,2.7702,2.8233,0.0,0.0,2.9694,2.9901,3.0109,3.0208,3.0208,3.0208,3.0208,3.0208,3.0208,3.0208,3.0208,3.0208,3.0208,3.0208,3.0208,3.0208,3.0208,3.0208,3.0208,3.0202,3.0282,3.0392,3.0526,3.069,3.1344,3.2287,2.5826,2.6299,2.672,0.0,2.6212,2.6015,0.0,0.0,0.0,0.0,2.961,3.0386,3.1127,3.1214,3.1214,3.1214,3.0533,0.0,0.0,0.0,0.0,2.8144,2.8127,2.7851,2.7307,2.7092,0.0,2.6988,0.0,0.0,2.672,0.0,0.0,0.0,0.0,0.0,2.7025,2.7486,2.8596,3.0022,3.0211,3.0507,0.0,0.0,3.1018,3.041,2.9691,2.908,2.8531,2.7999,2.7435,2.6962,2.6926,2.6909,2.6876,2.6784,2.675,2.6725,2.6573,2.6624,2.6674,2.6564,2.6615,2.6649,0.0,0.0,0.0,0.0,0.0,0.0,0.0,0.0,0.0,0.0,0.0,0.0,0.0,0.0,0.0,2.3748,0.0,0.0,0.0,0.0,2.557,2.6627,2.7344,2.8247,0.0,0.0,0.0,3.0117,3.0167,3.0208,3.0208,3.0208,3.0208,3.0208,3.0208,3.0208,3.0208,3.0208,3.0208,3.0208,3.0208,3.0208,3.0208,3.0208,3.0208,3.0213,3.0384,3.0563,3.0877,3.2201,3.284,3.3183,2.6626,0.0,0.0,2.7713,0.0,0.0,2.7713,0.0,0.0,2.992,3.0705,0.0,3.1748,3.2093,3.2145,3.1834,3.143,0.0,0.0,0.0,0.0,2.8903,2.8575,2.8213,2.7782,2.7462,0.0,2.7307,0.0,0.0,2.7307,0.0,0.0,0.0,0.0,2.7129,0.0,2.8262,2.9446,3.0722,3.105,0.0,0.0,3.1727,3.1681,3.1409,3.0462,3.0083,2.9866,2.8928,2.8502,2.8279,2.7665,2.7419,2.7335,2.7207,2.6945,2.67,2.67,2.67,2.67,2.67,2.67,2.67,2.67,2.67,2.6573,0.0,0.0,0.0,0.0,0.0,0.0,0.0,0.0,0.0,0.0,0.0,0.0,0.0,0.0,0.0,0.0,2.4265,2.4941,2.5819,2.6767,2.7812,0.0,0.0,0.0,3.0181,3.0571,3.059,3.0208,3.0548,3.0548,3.0208,3.0208,3.0208,3.0208,3.0208,3.0208,3.0208,3.0208,3.0208,3.0208,3.0208,3.0208,3.0216,3.0416,3.0628,3.1016,3.2753,3.3164,3.2891,0.0,0.0,0.0,0.0,0.0,0.0,0.0,2.9317,0.0,3.0878,0.0,3.1972,3.2102,3.2662,3.28,3.2162,0.0,3.1662,3.1033,3.0248,2.9765,2.9661,2.9041,2.8644,2.8558,2.7824,0.0,0.0,0.0,0.0,0.0,0.0,0.0,0.0,0.0,0.0,0.0,2.9075,3.011,0.0,3.1541,3.18,3.18,3.18,3.18,3.1723,3.1067,3.117,3.1419,2.9963,2.9823,3.0015,2.8664,2.8108,2.7968,2.7968,2.7427,2.6843,2.6843,2.6776,2.67,2.67,2.67,2.67,2.67,2.67,2.67,2.67,2.67,2.6496,0.0,0.0,0.0,0.0,0.0,0.0,0.0,0.0,0.0,0.0,0.0,0.0,0.0,0.0,2.4257,2.5129,2.6195,2.7251,0.0,0.0,0.0,3.0185,3.093,3.0968,3.0208,0.0,3.0892,3.0208,3.0208,3.0208,3.0208,3.0208,3.0208,3.0208,3.0208,3.0208,3.0208,3.0208,3.0213,3.027,3.0427,3.0686,3.1152,3.2675,3.2891,3.2423,0.0,0.0,0.0,0.0,0.0,3.0498,3.1119,3.0809,3.0981,3.2334,3.2628,3.2955,3.362,3.381,3.3845,3.3707,3.3093,0.0,0.0,0.0,0.0,3.0515,3.0377,2.9998,2.9308,2.8575,2.8213,0.0,0.0,0.0,0.0,0.0,0.0,0.0,0.0,0.0,2.9179,3.0101,0.0,3.1619,3.1757,3.18,3.18,3.18,3.18,3.1783,3.1645,3.1228,3.0579,2.9703,2.941,2.9347,2.9028,2.8907,2.8862,2.8808,2.823,2.7604,2.7604,2.7165,2.67,2.67,2.67,2.67,2.67,2.67,2.67,2.67,2.67,2.6666,2.6522,0.0,0.0,0.0,0.0,0.0,0.0,0.0,0.0,0.0,0.0,0.0,0.0,0.0,0.0,2.5129,2.6147,2.72,0.0,0.0,0.0,0.0,3.0341,0.0,0.0,0.0,3.0341,3.0208,3.0208,3.0208,3.0208,3.0208,3.0208,3.0208,3.0208,3.0208,3.0208,3.0208,3.0305,3.045,3.0484,3.106,3.1917,3.2228,3.3105,3.4156,0.0,0.0,0.0,0.0,0.0,0.0,0.0,3.2948,0.0,3.3431,3.3517,3.3672,3.4052,3.4448,3.4517,3.4121,3.4103,3.3921,3.3551,3.3189,3.2654,3.1869,3.1481,0.0,3.0144,2.9368,2.8972,2.8972,0.0,0.0,0.0,0.0,0.0,0.0,0.0,2.8713,0.0,0.0,0.0,3.18,3.18,3.18,3.18,3.18,3.18,3.18,3.18,3.1494,3.0963,3.0226,3.0118,3.0212,2.9799,2.9651,2.9613,2.9585,2.9025,2.8323,2.7908,2.7536,2.7182,2.6801,2.67,2.67,2.67,2.67,2.67,2.67,2.67,2.67,2.67,2.6404,0.0,0.0,0.0,0.0,0.0,0.0,0.0,0.0,0.0,0.0,0.0,0.0,0.0,0.0,0.0,0.0,0.0,0.0,0.0,0.0,0.0,0.0,0.0,0.0,0.0,3.0208,3.0208,3.0208,3.0208,3.0208,3.0208,3.0208,3.0208,3.0208,3.0195,3.0244,3.0367,3.0554,3.0554,3.1193,3.2152,3.2618,3.3553,3.4604,0.0,2.9877,0.0,0.0,3.23,0.0,3.4931,3.4845,3.4569,3.4569,3.4431,3.4397,3.4552,3.5087,3.5207,3.4621,3.4966,3.4949,3.4362,3.419,3.3741,3.2938,3.2334,3.1679,3.0947,3.0162,2.9765,0.0,0.0,0.0,0.0,0.0,0.0,0.0,0.0,0.0,0.0,0.0,3.1274,3.18,3.18,3.18,3.18,3.18,3.18,3.18,3.18,3.1709,3.1512,3.0911,3.0978,3.1193,3.0604,3.0385,3.0335,3.0335,2.9803,2.9102,2.8458,2.8043,2.7655,2.708,2.6818,2.67,2.67,2.6826,2.6894,2.6733,2.67,2.675,2.6894,2.681,0.0,0.0,0.0,0.0,0.0,0.0,0.0,0.0,0.0,0.0,0.0,0.0,0.0,0.0,0.0,2.6958,2.719,2.8308,2.9406,0.0,0.0,3.0284,3.0475,0.0,3.0873,3.0208,3.0208,3.0208,3.0208,3.0208,3.0208,3.0208,3.0208,3.0208,3.0218,3.0273,3.0411,3.0591,3.0803,3.1496,3.2482,3.3339,3.4176,3.4877,0.0,0.0,0.0,0.0,0.0,0.0,3.5173,3.5714,3.6094,3.6094,3.5508,3.5345,3.6025,3.6163,3.6163,3.6094,3.5542,3.5173,3.5104,3.4466,3.3741,3.2938,3.2835,3.2455,3.1714,3.0964,3.0584,0.0,0.0,0.0,0.0,0.0,0.0,0.0,0.0,0.0,0.0,3.1412,3.1731,3.18,3.18,3.18,3.18,3.18,3.18,3.18,3.18,3.1709,3.1589,3.146,3.1365,3.1286,3.1155,3.1099,3.1099,3.1099,3.0565,2.998,2.9912,2.8855,2.7781,2.7714,2.719,2.67,2.67,2.7224,2.7511,2.6843,2.67,2.6894,2.757,2.7156,2.6683,0.0,0.0,0.0,0.0,0.0,0.0,0.0,0.0,0.0,0.0,2.3917,0.0,0.0,2.6417,2.7117,2.7198,2.9019,3.0461,3.135,0.0,3.059,3.1369,3.0685,3.0284,3.0208,3.0208,3.0208,3.0208,3.0208,3.0208,3.0208,3.0208,3.0208,3.0218,3.0273,3.0384,3.0582,3.1443,3.2391,3.3378,3.4195,3.5033,3.5773,0.0,0.0,0.0,0.0,0.0,0.0,0.0,3.6111,3.6301,3.6301,3.6042,3.5973,3.6266,3.6301,3.6301,3.6301,3.6025,3.5852,3.5852,3.5576,3.5087,3.43,3.3862,3.3258,3.2472,3.1731,3.1361,0.0,0.0,0.0,0.0,0.0,0.0,0.0,0.0,3.0947,3.1378,3.1662,3.18,3.18,3.18,3.18,3.18,3.18,3.1746,3.1681,3.1681,3.1615,3.1511,3.1416,3.1341,3.1293,3.123,3.12,3.12,3.12,3.0987,3.0565,2.9677,2.8991,2.8298,2.7368,2.6911,2.6818,2.7258,2.7587,2.7858,2.8036,2.8079,2.8019,2.7824,2.7553,2.7275,0.0,0.0,0.0,0.0,0.0,0.0,0.0,0.0,0.0,0.0,0.0,0.0,0.0,0.0,2.7316,2.8057,2.8825,2.9935,3.1442,0.0,3.0067,3.1423,3.0624,3.0208,3.0208,3.0208,3.0208,3.0208,3.0208,3.0208,3.0192,3.0235,3.0316,3.0398,3.0448,3.0876,3.1497,3.1875,3.2871,3.4156,3.4487,3.515,3.591,3.4449,0.0,3.4655,0.0,3.5525,3.5697,3.6215,3.6301,3.6301,3.6301,3.6301,3.6301,3.6301,3.6301,3.6301,3.6301,3.6301,3.6301,3.6301,3.6301,3.587,3.4931,3.4379,0.0,3.2921,3.2179,3.1903,3.2127,3.1378,0.0,0.0,0.0,0.0,0.0,3.1016,3.1309,3.18,3.18,3.18,3.18,3.18,3.18,3.18,3.18,3.1718,3.1598,3.1598,3.1549,3.1488,3.1351,3.1295,3.1293,3.123,3.12,3.12,3.12,3.12,3.097,2.9931,2.9331,2.879,2.7909,2.7368,2.7215,2.7985,2.8323,2.8712,2.9491,2.9297,2.8882,2.8534,2.8111,2.7734,2.7554,0.0,0.0,0.0,0.0,0.0,0.0,2.656,2.6234,2.5425,0.0,0.0,0.0,0.0,0.0,2.8275,2.8803,0.0,0.0,0.0,0.0,0.0,3.0605,3.0208,3.0208,3.0208,3.0208,3.0208,3.0208,3.0208,3.0195,3.0251,3.0344,3.046,3.0815,3.1386,3.209,3.2631,3.3553,3.4624,3.4897,3.5364,3.5949,3.5035,3.519,3.5432,3.6163,3.6284,3.6284,3.6301,3.6301,3.6301,3.6301,3.6301,3.6301,3.6301,3.6301,3.6301,3.6301,3.6301,3.6301,3.6301,3.6301,3.5656,0.0,0.0,3.3724,3.2921,3.2179,3.2162,3.2886,0.0,0.0,3.0705,0.0,3.1085,3.1792,3.1792,3.1783,3.18,3.18,3.18,3.18,3.18,3.18,3.18,3.18,3.1718,3.1598,3.1598,3.1549,3.1488,3.1351,3.1295,3.1293,3.123,3.12,3.12,3.12,3.12,3.12,3.1183,3.0117,2.917,2.9888,2.8906,2.7993,2.8798,2.955,3.0284,3.1021,3.0016,2.9221,2.9929,2.8821,2.7912,2.8234,0.0,0.0,0.0,0.0,0.0,0.0,2.7393,2.7067,2.6252,0.0,0.0,0.0,0.0,0.0,0.0,0.0,0.0,3.0208,3.0208,0.0,3.1385,3.0605,3.0208,3.0208,3.0208,3.0208,3.0208,3.0208,3.0208,3.0208,3.0192,3.0247,3.0374,3.1375,3.1827,3.2084,3.3863,3.4585,3.4702,3.5578,3.589,3.6025,3.6376,3.6587,3.6667,3.6354,3.6533,3.6618,3.6343,3.6301,3.6301,3.6301,3.6301,3.6301,3.6301,3.6301,3.6301,0.0,3.6301,3.6301,0.0,3.6301,3.6094,3.5611,3.5121,3.4742,3.4473,3.3741,3.3482,3.3724,0.0,0.0,0.0,3.2455,3.2334,3.2524,3.2024,3.18,3.18,3.18,3.18,3.18,3.18,3.18,3.18,3.18,3.1688,3.1528,3.1528,3.1433,3.1278,3.1259,3.1232,3.1239,3.121,3.12,3.12,3.12,3.12,3.1089,3.0598,3.0108,2.9685,2.9424,2.8984,2.8822,2.9583,3.0311,3.092,3.1149,3.0828,3.0422,3.0149,2.989,2.9481,2.8765,2.8735,0.0,0.0,0.0,0.0,0.0,2.8219,2.7894,0.0,2.7532,0.0,0.0,0.0,0.0,0.0,0.0,0.0,0.0,3.0494,0.0,3.1461,3.0624,3.0208,3.0208,3.0208,3.0208,3.0208,3.0208,3.0208,3.0218,3.0346,3.0749,3.1361,3.1811,3.2691,3.3802,3.4364,3.4955,3.552,3.5793,3.591,3.5949,3.7162,3.7339,3.7331,3.6841,3.6958,3.7046,3.6781,3.6741,3.6698,3.6553,3.6533,3.6471,3.6322,3.6301,0.0,3.6301,3.6301,3.6301,3.6301,3.6301,3.618,3.5904,3.5449,3.5207,3.5207,3.4483,0.0,3.4517,3.3931,3.3793,3.4069,3.3283,3.3059,3.3327,3.2879,3.249,3.2214,3.2214,3.2041,3.18,3.18,3.18,3.1818,3.1947,3.1884,3.1755,3.1718,3.1562,3.1391,3.1242,3.12,3.12,3.12,3.12,3.12,3.12,3.12,3.1106,3.0632,3.0301,3.0065,2.9864,2.961,2.961,3.0345,3.0869,3.12,3.12,3.12,3.1065,3.0598,3.046,3.0255,2.9756,2.9354,2.9098,2.9061,0.0,0.0,0.0,0.0,0.0,0.0,2.831,2.8549,0.0,0.0,0.0,0.0,0.0,0.0,3.0464,3.03,0.0,3.1006,3.0475,3.0208,3.0208,3.0208,3.0208,3.0208,3.0208,3.0208,3.0221,3.0714,3.1245,3.1857,3.2679,3.3632,3.4624,3.4955,3.5423,3.591,3.591,3.591,3.5986,3.7542,3.7569,3.7569,0.0,3.7523,0.0,3.7505,3.7505,3.7377,3.6997,3.6939,3.6781,3.6378,3.6343,3.6332,3.6301,0.0,0.0,0.0,3.6301,3.599,3.5311,3.5276,3.5276,3.5276,3.4604,3.4586,3.5276,3.3783,3.3473,3.4241,3.3421,3.3455,3.4172,3.4052,3.3603,3.2904,3.2852,3.2439,3.1829,3.1829,3.1847,3.1902,3.2214,3.2301,3.2223,3.2083,3.1959,3.178,3.1408,3.1288,3.1278,3.1249,3.1239,3.123,3.121,3.12,3.12,3.12,3.07,3.0335,3.1021,3.0683,3.0352,3.1038,3.12,3.12,3.12,3.122,3.123,3.12,3.0699,3.047,3.1009,2.9886,2.9148,2.9723,0.0,0.0,0.0,0.0,0.0,0.0,2.8619,2.8669,0.0,0.0,0.0,0.0,0.0,3.0709,2.9048,2.9784,3.0208,3.0208,3.0208,3.0208,3.0208,3.0322,3.0341,3.0284,3.0341,3.038,3.0428,3.1309,3.1797,3.2106,3.3802,3.4575,3.478,3.5578,3.591,3.591,3.591,3.591,3.6123,0.0,0.0,3.8219,3.7605,3.7747,3.7861,3.7551,3.7505,3.7469,3.7377,3.7367,3.719,3.6801,3.6769,3.6628,3.6332,3.6301,3.6301,3.6301,3.6301,3.6215,3.6042,3.6042,3.6042,3.6042,3.587,3.5852,3.6042,3.5111,3.5042,3.5766,3.5018,3.4759,3.4897,3.3714,3.3076,3.2869,3.23,3.2103,3.217,3.217,3.2335,3.2577,3.2659,3.2635,3.257,3.2496,3.2377,3.2231,3.2092,3.2039,3.1985,3.1675,3.1573,3.1534,3.1271,3.12,3.12,3.12,3.1072,3.097,3.1157,3.1072,3.0997,3.1157,3.12,3.12,3.12,3.1408,3.1506,3.1249,3.173,3.1926,3.1222,3.0759,3.031,2.9855,2.9119,0.0,0.0,2.86,2.86,2.86,2.8798,2.8979,0.0,0.0,0.0,0.0,3.1451,3.1569,2.9937,3.0093,3.0208,3.0208,3.0208,3.0208,3.0227,3.15,3.1763,3.1137,3.1801,3.2107,3.2126,3.2506,3.3063,3.3742,3.4342,3.4983,3.5617,3.5812,3.591,3.591,3.591,3.591,3.5967,3.8377,3.8546,3.8554,3.8118,3.8228,3.8293,3.8085,3.8051,3.7973,3.7809,3.7765,3.7623,3.7227,3.7017,3.6811,3.6587,3.6399,3.6301,3.6301,3.6301,3.6301,3.6301,3.6301,3.6301,3.6301,3.6301,3.6301,3.6301,3.5559,3.5576,3.6284,3.5542,3.5482,3.5933,3.5108,3.4639,3.4441,3.3678,3.3239,3.3041,3.2687,3.2643,3.2811,3.2978,3.2986,3.2918,3.2846,3.2758,3.2645,3.2385,3.23,3.2266,3.203,3.2229,3.2443,3.2084,3.1601,3.12,3.12,3.12,3.1334,3.1844,3.2234,3.2474,3.2474,3.2225,3.1976,3.1976,3.199,3.1923,3.1731,3.2188,3.2428,3.1954,3.1543,3.1185,3.0935,2.988,0.0,2.9656,2.9366,2.93,2.9656,2.9941,2.998,2.9691,3.0766,0.0,3.0501,3.1826,3.2058,3.0835,3.1159,3.1178,3.0796,3.0796,3.0987,3.1347,3.2279,3.2451,3.2012,3.2489,3.2695,3.273,3.3275,3.3773,3.4254,3.4822,3.5346,3.5804,3.5804,3.5843,3.591,3.591,3.6142,3.6551,3.8699,3.8699,3.8699,3.8699,3.8699,3.8699,3.8699,3.8699,3.858,3.8236,3.8203,3.8042,3.7632,3.7293,3.7065,3.6997,3.6618,3.6357,3.6301,3.6301,3.6301,3.6301,3.6301,3.6301,3.6301,3.6243,3.6284,3.6388,3.5716,3.5763,3.6464,3.5833,3.6058,3.6997,3.6874,3.6677,3.6345,3.5533,3.4835,3.4196,3.3383,3.3084,3.3155,3.3447,3.3437,3.3272,3.3339,3.3245,3.3006,3.2594,3.2558,3.2638,3.2587,3.3107,3.367,3.3295,3.2487,3.1699,3.1578,3.1588,3.1864,3.2907,3.3642,3.411,3.411,3.3615,3.3164,3.3164,3.2834,3.2535,3.2493,3.2464,3.2544,3.2763,3.2191,3.1812,3.2144,0.0,3.0237,3.0919,3.04,3.0255,3.0919,3.1271,3.1133,3.0404,3.1451,3.1855,3.119,3.218,3.2507,3.1874,3.2409,3.2374,3.1691,3.1809,3.2149,3.2695,3.2967,3.3081,3.3081,3.3081,3.3158,3.3318,3.4004,3.4311,3.4395,3.5259,3.574,3.591,3.5898,3.5985,3.6103,3.624,3.6688,3.7311,3.8699,3.8699,3.8699,3.8699,3.8699,3.8699,3.8699,3.8699,3.8684,3.8619,3.8611,3.8441,3.8051,3.7948,3.7783,3.7441,3.7046,3.6668,3.6322,3.6301,3.6301,3.6301,3.6301,3.6301,3.6301,3.6011,3.618,3.6801,3.6419,3.6603,3.7303,3.7197,3.7234,3.7378,3.6755,3.6444,3.6345,3.5541,3.5287,3.5364,3.4553,3.4407,3.4669,3.4711,3.427,3.3695,3.4324,3.4062,3.3404,3.3271,3.3677,3.4171,3.3836,3.4288,3.4869,3.4515,3.4299,3.399,3.3267,3.3304,3.3711,3.427,3.4521,3.4591,3.4591,3.4503,3.4415,3.4415,3.4067,3.3645,3.3371,3.327,3.3139,3.2852,3.2418,3.213,3.2191,0.0,3.0865,3.0998,3.0889,3.0865,3.0998,3.1403,3.1601,3.1466,3.2003,3.2327,3.2266,3.3113,3.3595,3.3534,3.2989,3.2638,3.2508,3.3242,3.3318,3.2714,3.4132,3.4804,3.4804,3.4804,3.5201,3.5878,3.5405,3.5252,3.5389,3.5544,3.6133,3.6961,3.6843,3.6883,3.7097,3.7818,3.772,3.7311,3.8699,3.8699,3.8699,3.8699,3.8699,3.8699,3.8699,3.8699,3.8699,3.8699,3.8699,3.8627,3.8433,3.8228,3.8034,3.7844,3.746,3.7133,3.6958,3.6536,3.6301,3.6301,3.6301,3.6301,3.6301,3.6558,3.6779,3.69,3.6966,3.7175,3.7505,3.7505,3.7614,3.7808,3.7466,3.7441,3.757,3.6318,3.6121,3.655,3.5287,3.5147,3.5683,3.5622,3.5326,3.498,3.5282,3.4836,3.4144,3.456,3.4653,3.4648,3.4897,3.5522,3.6094,3.5678,3.5145,3.4618,3.4212,3.4682,3.5336,3.5563,3.5909,3.6219,3.6219,3.5873,3.5563,3.5563,3.4897,3.4279,3.4116,3.3702,3.3341,3.3144,3.2972,0.0,0.0,3.2524,3.2451,3.2886,3.294,3.3103,3.3538,3.3641,3.3696,3.3696,3.3761,3.3821,3.3843,3.4712,3.5026,3.4609,3.381,3.3601,3.4036,3.4025,3.4254,3.4762,3.5526,3.6122,3.6547,3.6547,3.6523,3.6504,3.6591,3.6151,3.5448,3.637,3.6804,3.6968,3.7424,3.7663,3.784,3.833,3.8539,3.8656,3.8699,3.8699,3.8699,3.8699,3.8699,3.8699,3.8699,3.8699,3.8699,3.8699,3.8699,3.8699,3.8699,3.8417,3.8236,3.8236,3.7879,3.7641,3.7641,3.6978,3.6577,3.6577,3.6577,3.6577,3.6577,3.7283,3.7487,3.718,3.7587,3.7783,3.7783,3.7783,3.7939,3.8236,3.8236,3.8409,3.8608,3.7386,3.721,3.765,3.6167,3.5984,3.6553,3.6435,3.6226,3.6023,3.615,3.5628,3.4979,3.5594,3.5504,3.5276,3.5884,3.6635,3.7209,3.685,3.6167,3.5447,3.5172,3.6007,3.6916,3.6844,3.7246,3.7658,3.7658,3.7193,3.6745,3.6745,3.5897,3.5168,3.5168,3.449,3.3954,3.3954,0.0,0.0,0.0,3.3954,3.4182,3.4816,3.4888,3.5124,3.5731,3.5731,3.5676,3.5676,3.5598,3.5557,3.5571,3.6277,3.6392,3.5808,3.5002,3.4885,3.5492,3.5076,3.5515,3.6791,3.6791,3.7211,3.7999,3.7793,3.7464,3.7092,3.7521,3.6988,3.5935,3.7226,3.7571,3.7394,3.8121,3.8465,3.8605,3.8933,3.9351,3.9783,3.8699,3.8699,3.8699,3.8699,3.8699,3.8699,3.8699,3.8699,3.8699,3.8699,3.8699,3.8699,3.8699,3.8658,3.8669,3.8669,3.8285,3.8059,3.8059,3.765,3.7414,3.7414,3.7414,3.7414,3.7414,3.7826,3.8042,3.7999,3.8409,3.8611,3.8611,3.8611,3.8627,3.8669,3.8669,3.8658,3.8681,3.8579,3.8553,3.8542,3.7669,3.7345,3.7412,3.7252,3.6711,3.6096,3.6776,3.6453,3.5713,3.5776,3.6254,3.6832,3.6886,3.7458,3.811,3.8066,3.8005,3.7703,3.6585,3.7389,3.8463,3.8136,3.8112,3.814,3.814,3.8104,3.8058,3.8058,3.7405,3.6814,3.6814,3.6164,3.5623,3.5623,0.0,0.0,3.5623,3.5623,3.5641,3.5695,3.5721,3.5731,3.5786,3.6223,3.6513,3.6513,3.6945,3.725,3.7318,3.7443,3.7518,3.7517,3.6734,3.6347,3.6405,3.7082,3.7487,3.7617,3.7617,3.8075,3.8877,3.8075,3.8113,3.8777,3.8018,3.7706,3.7705,3.7823,3.8413,3.9206,3.9288,3.9313,3.9438,4.0374,4.0256,3.9743,3.8699,3.8699,3.8699,3.8699,3.8699,3.8699,3.8699,3.8699,3.8699,3.8699,3.8699,3.8699,3.8699,3.8699,3.8699,3.8699,3.8554,3.8475,3.8475,3.8336,3.8025,3.7523,3.7729,3.7765,3.7505,3.8135,3.8352,3.8101,3.8499,3.8699,3.8699,3.8699,3.8699,3.8699,3.8699,3.8699,3.8663,3.8182,3.823,3.8634,3.7823,3.7749,3.8109,3.8024,3.7755,3.7449,3.7703,3.7247,3.6624,3.7123,3.7168,3.7085,3.7593,3.7947,3.82,3.82,3.8544,3.8736,3.7777,3.795,3.8355,3.8221,3.82,3.82,3.82,3.82,3.82,3.82,3.7557,3.6995,3.6995,3.6345,3.5804,3.5804,0.0,3.5804,3.5804,3.6236,3.6552,3.6552,3.6979,3.7286,3.7286,3.732,3.7539,3.8054,3.7702,3.7716,3.8287,3.7909,3.7927,3.8491,3.8204,3.7784,3.7254,3.754,3.796,3.8514,3.8514,3.8954,3.979,3.9465,3.9198,3.9007,3.9217,3.8787,3.7981,3.899,3.94,3.9456,3.9891,4.012,4.0255,4.0635,4.0617,4.0465,3.8699,3.8699,3.8699,3.8699,3.8699,3.8699,3.8699,3.8699,3.8699,3.8699,3.8699,3.8699,3.8699,3.8699,3.8699,3.8699,3.8699,3.8699,3.8699,3.8699,3.8441,3.7905,3.8135,3.8152,3.7887,3.8417,3.8554,3.8285,3.8554,3.8699,3.8699,3.8699,3.8699,3.8699,3.8699,3.8699,3.867,3.8109,3.8201,3.8644,3.8042,3.8088,3.8494,3.8409,3.8346,3.829,3.8216,3.7846,3.7466,3.8009,3.782,3.7466,3.8019,3.82,3.82,3.82,3.8581,3.8907,3.8345,3.82,3.82,3.82,3.82,3.82,3.82,3.82,3.82,3.82,3.7756,3.7375,3.7375,3.6924,3.6554,3.6554,3.6554,3.6554,3.6554,3.7023,3.7375,3.7375,3.7865,3.82,3.82,3.8184,3.8412,3.8964,3.855,3.8538,3.9167,3.8752,3.8765,3.9389,3.9408,3.9121,3.8514,3.8514,3.882,3.9408,3.9408,3.9713,4.0306,4.0306,3.9962,3.9446,4.0038,3.9675,3.8742,3.9935,4.0158,3.9805,4.0342,4.0584,4.0632,4.0632,4.0691,4.0796,3.8699,3.8699,3.8699,3.8699,3.8699,3.8699,3.8699,3.8699,3.8699,3.8699,3.8699,3.8699,3.8699,3.8699,3.8699,3.8699,3.8699,3.8699,3.8699,3.8699,3.8699,3.8699,3.8699,3.8699,3.8699,3.8699,3.8699,3.8699,3.8699,3.8699,3.8699,3.8699,3.8699,3.8699,3.8699,3.8699,3.8699,3.8699,3.8699,3.8692,3.8559,3.851,3.8486,3.8354,3.8299,3.829,3.8216,3.82,3.82,3.82,3.82,3.82,3.82,3.82,3.82,3.82,3.82,3.82,3.82,3.82,3.82,3.82,3.82,3.82,3.82,3.82,3.82,3.82,3.82,3.82,3.82,3.82,3.82,3.82,3.82,3.82,3.82,3.82,3.82,3.82,3.82,3.82,3.82,3.8685,3.9001,3.9001,3.9568,3.9968,4.0082,4.0166,4.0239,4.0301,4.0301,4.0301,4.0306,4.0306,4.0306,4.0306,4.0306,4.0306,4.0306,4.0306,4.0306,4.0306,4.0306,4.0306,4.0319,4.0593,4.0615,4.0512,4.0642,4.0612,4.0496,4.0496,4.0496,4.0542,3.8699,3.8699,3.8699,3.8699,3.8699,3.8699,3.8699,3.8699,3.8699,3.8699,3.8699,3.8699,3.8699,3.8699,3.8699,3.8699,3.8699,3.8699,3.8699,3.8699,3.8699,3.8699,3.8699,3.8699,3.8699,3.8699,3.8699,3.8699,3.8699,3.8699,3.8699,3.8699,3.8699,3.8699,3.8699,3.8699,3.8699,3.8699,3.865,3.8559,3.8517,3.843,3.8354,3.8323,3.8266,3.8234,3.8209,3.82,3.82,3.82,3.82,3.82,3.82,3.82,3.82,3.82,3.82,3.82,3.82,3.82,3.82,3.82,3.82,3.82,3.82,3.82,3.82,3.82,3.82,3.82,3.82,3.82,3.82,3.82,3.82,3.82,3.82,3.82,3.82,3.82,3.82,3.82,3.82,3.8685,3.9001,3.9001,3.9568,3.9933,4.0036,4.0057,4.0108,4.0234,4.0239,4.0253,4.0301,4.0306,4.0306,4.0306,4.0306,4.0306,4.0306,4.0306,4.0306,4.0306,4.0306,4.0345,4.0432,4.043,4.0516,4.0629,4.057,4.0538,4.0496,4.0496,4.0496,4.0508,3.8699,3.8699,3.8699,3.8699,3.8699,3.8699,3.8699,3.8699,3.8699,3.8699,3.8699,3.8699,3.8699,3.8699,3.8699,3.8699,3.8699,3.8699,3.8699,3.8699,3.8699,3.8699,3.8699,3.8699,3.8699,3.8699,3.8699,3.8699,3.8699,3.8699,3.8699,3.8699,3.8699,3.8699,3.8699,3.8666,3.8616,3.8616,3.8559,3.8462,3.8423,3.8379,3.8299,3.8266,3.8251,3.82,3.82,3.82,3.82,3.82,3.82,3.82,3.82,3.82,3.82,3.82,3.82,3.82,3.82,3.82,3.82,3.82,3.82,3.82,3.82,3.82,3.82,3.82,3.82,3.82,3.82,3.82,3.82,3.82,3.82,3.82,3.82,3.82,3.82,3.82,3.82,3.8241,3.8354,3.8752,3.9097,3.9332,3.9699,3.9927,3.9996,3.9996,4.0057,4.0162,4.0186,4.021,4.0258,4.0296,4.0306,4.0306,4.0306,4.0306,4.0306,4.0306,4.0306,4.0306,4.0306,4.0355,4.0422,4.0383,4.0476,4.0612,4.0581,4.0553,4.0496,4.0496,4.0472,4.0438,3.8699,3.8699,3.8699,3.8699,3.8699,3.8699,3.8699,3.8699,3.8699,3.8699,3.8699,3.8699,3.8699,3.8699,3.8699,3.8699,3.8699,3.8699,3.8699,3.8699,3.8699,3.8699,3.8699,3.8699,3.8699,3.8699,3.8699,3.8699,3.8699,3.8699,3.8699,3.8699,3.8699,3.8699,3.8692,3.8616,3.851,3.8483,3.8454,3.8393,3.8322,3.8299,3.8282,3.8216,3.82,3.82,3.82,3.82,3.82,3.82,3.82,3.82,3.82,3.82,3.82,3.82,3.82,3.82,3.82,3.8255,3.8291,3.8218,3.8255,3.8291,3.8218,3.82,3.82,3.82,3.82,3.82,3.82,3.8263,3.8317,3.8317,3.8363,3.8381,3.8309,3.8317,3.829,3.8242,3.8232,3.8346,3.8615,3.8879,3.9281,3.9867,3.99,3.9927,3.9986,3.9986,4.0012,4.0082,4.0162,4.0191,4.0191,4.0253,4.0301,4.0306,4.0306,4.0306,4.0306,4.0306,4.0306,4.0306,4.0306,4.0306,4.032,4.0423,4.0473,4.0508,4.0626,4.0591,4.0473,4.0508,4.0417,4.031,3.8699,3.8699,3.8699,3.8699,3.8699,3.8699,3.8699,3.8699,3.8699,3.8699,3.8699,3.8699,3.8699,3.8699,3.8699,3.8699,3.8699,3.8699,3.8699,3.8699,3.8699,3.8699,3.8699,3.8699,3.8699,3.8699,3.8699,3.8699,3.8699,3.8699,3.8699,3.8699,3.8699,3.8699,3.8583,3.8525,3.8502,3.8446,3.8385,3.8313,3.8307,3.8266,3.8225,3.8209,3.82,3.82,3.82,3.82,3.82,3.82,3.82,3.82,3.82,3.82,3.82,3.82,3.82,3.82,3.82,3.8653,3.8997,3.8363,3.8671,3.8961,3.8345,3.82,3.82,3.82,3.82,3.82,3.82,3.8707,3.9142,3.9142,3.9623,3.9804,3.9215,3.9142,3.899,3.8559,3.8517,3.8631,3.8893,3.9196,3.9532,3.9878,3.99,3.9905,3.9922,3.9922,3.9949,4.0012,4.0082,4.0127,4.0127,4.0186,4.0249,4.0306,4.0306,4.0306,4.0306,4.0306,4.0306,4.0306,4.0306,4.0306,4.0306,4.0333,4.0332,4.0354,4.0481,4.046,4.035,4.0464,4.0417,4.0291,3.8699,3.8699,3.8699,3.8699,3.8699,3.8699,3.8699,3.8699,3.8699,3.8699,3.8699,3.8699,3.8699,3.8699,3.8699,3.8699,3.8699,3.8699,3.8699,3.8699,3.8699,3.8699,3.8699,3.8699,3.8699,3.8699,3.8699,3.8699,3.8699,3.8699,3.8699,3.8699,3.8699,3.8699,3.8559,3.8486,3.8446,3.8385,3.8313,3.8249,3.8249,3.8242,3.82,3.82,3.82,3.82,3.82,3.82,3.82,3.82,3.82,3.82,3.82,3.82,3.82,3.82,3.82,3.82,3.82,3.878,3.9215,3.84,3.8798,3.9197,3.8381,3.82,3.82,3.82,3.82,3.8309,3.8707,3.9124,3.9523,3.9876,4.0247,4.0374,3.9985,3.993,3.9888,3.9758,3.9743,3.9925,4.0385,4.071,4.0948,4.1088,4.1094,4.0929,4.0544,4.0525,4.0352,3.9968,4.0046,4.0077,4.0057,4.0181,4.0249,4.0253,4.0253,4.0263,4.0306,4.0306,4.0306,4.0306,4.0306,4.0306,4.0306,4.0306,4.0306,4.0305,4.0444,4.0422,4.0329,4.0448,4.0417,4.032,3.8699,3.8699,3.8699,3.8699,3.8699,3.8699,3.8699,3.8699,3.8699,3.8699,3.8699,3.8699,3.8699,3.8699,3.8699,3.8699,3.8699,3.8699,3.8699,3.8699,3.8699,3.8699,3.8699,3.8699,3.8699,3.8699,3.8699,3.8699,3.8699,3.8699,3.8699,3.8699,3.8692,3.8658,3.8544,3.8446,3.8385,3.8305,3.8241,3.82,3.82,3.82,3.82,3.82,3.82,3.82,3.82,3.82,3.82,3.82,3.82,3.82,3.82,3.82,3.82,3.82,3.82,3.82,3.82,3.878,3.9233,3.8563,3.8907,3.9269,3.8726,3.8508,3.84,3.84,3.8508,3.8798,3.9468,3.9695,3.9985,4.061,4.0827,4.0863,4.0718,4.0709,4.0796,4.1048,4.1188,4.1467,4.202,4.2276,4.2407,4.2407,4.2407,4.2109,4.1457,4.1419,4.104,4.0163,4.0256,4.0229,3.9996,4.0171,4.0244,4.0196,4.0186,4.021,4.0306,4.0306,4.0306,4.0306,4.0306,4.0306,4.0306,4.0306,4.0306,4.0301,4.043,4.0392,4.0305,4.0411,4.0392,4.0329,3.8699,3.8699,3.8699,3.8699,3.8699,3.8699,3.8699,3.8699,3.8699,3.8699,3.8699,3.8699,3.8699,3.8699,3.8699,3.8699,3.8699,3.8699,3.8699,3.8699,3.8699,3.8699,3.8699,3.8699,3.8699,3.8699,3.8699,3.8699,3.8699,3.8699,3.8699,3.8699,3.865,3.8517,3.8446,3.8377,3.8315,3.8232,3.8209,3.82,3.82,3.82,3.82,3.82,3.82,3.82,3.82,3.82,3.82,3.82,3.82,3.82,3.82,3.82,3.82,3.82,3.82,3.82,3.82,3.878,3.9378,3.9269,3.9323,3.9541,4.0066,3.9695,3.9233,3.9233,3.9749,4.0229,4.0338,4.0917,4.1415,4.1524,4.2122,4.2321,4.1642,4.1542,4.152,4.1429,4.1896,4.2251,4.2335,4.2389,4.2407,4.2407,4.2407,4.2373,4.2334,4.2321,4.1941,4.1144,4.1174,4.0822,4.0015,4.0077,4.0152,4.0196,4.0147,4.0171,4.0306,4.0306,4.0306,4.0306,4.0306,4.0306,4.0306,4.0306,4.0306,4.0306,4.0314,4.0329,4.0306,4.0314,4.0329,4.0306,3.8699,3.8699,3.8699,3.8699,3.8699,3.8699,3.8699,3.8699,3.8699,3.8699,3.8699,3.8699,3.8699,3.8699,3.8699,3.8699,3.8699,3.8699,3.8699,3.8699,3.8699,3.8699,3.8699,3.8699,3.8699,3.8699,3.8699,3.8699,3.8699,3.8699,3.8699,3.8699,3.8624,3.8502,3.843,3.836,3.8299,3.8242,3.82,3.82,3.82,3.82,3.82,3.82,3.82,3.82,3.82,3.82,3.82,3.82,3.82,3.82,3.82,3.82,3.82,3.82,3.82,3.82,3.82,3.878,3.9396,3.9396,3.9713,4.0103,4.0429,4.0591,4.0555,4.0103,4.0266,4.0637,4.1098,4.1451,4.185,4.2303,4.2674,4.2783,4.2411,4.2523,4.277,4.3091,4.3529,4.379,4.379,4.379,4.379,4.379,4.379,4.3618,4.3192,4.3208,4.2815,4.194,4.2049,4.1864,4.1352,4.1485,4.1303,4.0816,4.1322,4.1106,4.0306,4.0306,4.0306,4.0306,4.0306,4.0306,4.0306,4.0306,4.0306,4.0306,4.0306,4.0306,4.0306,4.0306,4.0306,4.0306]}]]